[[{"header":{"parameterUnit":"m.s-1","parameterCategory":1,"la1":30.6,"la2":28.766,"lo1":-90.7593,"lo2":-88.6598,"dy":0.0162,"dx":0.0183,"nx":116,"ny":114,"refTime":"2023-06-19T12:00:00:Z","depth":0,"parameterNumber":2,"parameterNumberName":"U-component_of_WINDS"},"data":[0.0,0.0,0.0,0.0,0.0,0.0,0.0,0.0,0.0,0.0,0.0,0.0,0.0,0.0,0.0,0.0,0.0,0.0,0.0,0.0,0.0,0.0,0.0,0.0,0.0,0.0,0.0,0.0,0.0,0.0,0.0,0.0,0.0,0.0,0.0,0.0,0.0,0.0,0.0,0.0,0.0,0.0,0.0,0.0,0.0,0.0,0.0,0.0,0.0,0.0,0.0,0.0,0.0,0.0,0.0,0.0,0.0,0.0,0.0,0.0,0.0,0.0,0.0,0.0,0.0,0.0,0.0,0.0,0.0,0.0,0.0,0.0,0.0,0.0,0.0,0.0,0.0,0.0,0.0,0.0,0.0,0.0,0.0,0.0,0.0,0.0,0.0,0.0,0.0,0.0,0.0,0.0,0.0,0.0,0.0,0.0,0.0,0.0,0.0,0.0,0.0,0.0,0.0,0.0,0.0,0.0,0.0,0.0,0.0,0.0,0.0,0.0,0.0,0.0,0.0,0.0,0.0,0.0,0.0,0.0,0.0,0.0,0.0,0.0,0.0,0.0,0.0,0.0,0.0,0.0,0.0,0.0,0.0,0.0,0.0,0.0,0.0,0.0,0.0,0.0,0.0,0.0,0.0,0.0,0.0,0.0,0.0,0.0,0.0,0.0,0.0,0.0,0.0,0.0,0.0,0.0,0.0,0.0,0.0,0.0,0.0,0.0,0.0,0.0,0.0,0.0,0.0,0.0,0.0,0.0,0.0,0.0,0.0,0.0,0.0,0.0,0.0,0.0,0.0,0.0,0.0,0.0,0.0,0.0,0.0,0.0,0.0,0.0,0.0,0.0,0.0,0.0,0.0,0.0,0.0,0.0,0.0,0.0,0.0,0.0,0.0,0.0,0.0,0.0,0.0,0.0,0.0,0.0,0.0,0.0,0.0,0.0,0.0,0.0,0.0,0.0,0.0,0.0,0.0,0.0,0.0,0.0,0.0,0.0,0.0,0.0,0.0,0.0,0.0,0.0,0.0,0.0,0.0,0.0,0.0,0.0,0.0,0.0,0.0,0.0,0.0,0.0,0.0,0.0,0.0,0.0,0.0,0.0,0.0,0.0,0.0,0.0,0.0,0.0,0.0,0.0,0.0,0.0,0.0,0.0,0.0,0.0,0.0,0.0,0.0,0.0,0.0,0.0,0.0,0.0,0.0,0.0,0.0,0.0,0.0,0.0,0.0,0.0,0.0,0.0,0.0,0.0,0.0,0.0,0.0,0.0,0.0,0.0,0.0,0.0,0.0,0.0,0.0,0.0,0.0,0.0,0.0,0.0,0.0,0.0,0.0,0.0,0.0,0.0,0.0,0.0,0.0,0.0,0.0,0.0,0.0,0.0,0.0,0.0,0.0,0.0,0.0,0.0,0.0,0.0,0.0,0.0,0.0,0.0,0.0,0.0,0.0,0.0,0.0,0.0,0.0,0.0,0.0,0.0,0.0,0.0,0.0,0.0,0.0,0.0,0.0,0.0,0.0,0.0,0.0,0.0,0.0,0.0,0.0,0.0,0.0,0.0,0.0,0.0,0.0,0.0,0.0,0.0,0.0,0.0,0.0,0.0,0.0,0.0,0.0,0.0,0.0,0.0,0.0,0.0,0.0,0.0,0.0,0.0,0.0,0.0,0.0,0.0,0.0,0.0,0.0,0.0,0.0,0.0,0.0,0.0,0.0,0.0,0.0,0.0,0.0,0.0,0.0,0.0,0.0,0.0,0.0,0.0,0.0,0.0,0.0,0.0,0.0,0.0,0.0,0.0,0.0,0.0,0.0,0.0,0.0,0.0,0.0,0.0,0.0,0.0,0.0,0.0,0.0,0.0,0.0,0.0,0.0,0.0,0.0,0.0,0.0,0.0,0.0,0.0,0.0,0.0,0.0,0.0,0.0,0.0,0.0,0.0,0.0,0.0,0.0,0.0,0.0,0.0,0.0,0.0,0.0,0.0,0.0,0.0,0.0,0.0,0.0,0.0,0.0,0.0,0.0,0.0,0.0,0.0,0.0,0.0,0.0,0.0,0.0,0.0,0.0,0.0,0.0,0.0,0.0,0.0,0.0,0.0,0.0,0.0,0.0,0.0,0.0,0.0,0.0,0.0,0.0,0.0,0.0,0.0,0.0,0.0,0.0,0.0,0.0,0.0,0.0,0.0,0.0,0.0,0.0,0.0,0.0,0.0,0.0,0.0,0.0,0.0,0.0,0.0,0.0,0.0,0.0,0.0,0.0,0.0,0.0,0.0,0.0,0.0,0.0,0.0,0.0,0.0,0.0,0.0,0.0,0.0,0.0,0.0,0.0,0.0,0.0,0.0,0.0,0.0,0.0,0.0,0.0,0.0,0.0,0.0,0.0,0.0,0.0,0.0,0.0,0.0,0.0,0.0,0.0,0.0,0.0,0.0,0.0,0.0,0.0,0.0,0.0,0.0,0.0,0.0,0.0,0.0,0.0,0.0,0.0,0.0,0.0,0.0,0.0,0.0,0.0,0.0,0.0,0.0,0.0,0.0,0.0,0.0,0.0,0.0,0.0,0.0,0.0,0.0,0.0,0.0,0.0,0.0,0.0,0.0,0.0,0.0,0.0,0.0,0.0,0.0,0.0,0.0,0.0,0.0,0.0,0.0,0.0,0.0,0.0,0.0,0.0,0.0,0.0,0.0,0.0,0.0,0.0,0.0,0.0,0.0,0.0,0.0,0.0,0.0,0.0,0.0,0.0,0.0,0.0,0.0,0.0,0.0,0.0,0.0,0.0,0.0,0.0,0.0,0.0,0.0,0.0,0.0,0.0,0.0,0.0,0.0,0.0,0.0,0.0,0.0,0.0,0.0,0.0,0.0,0.0,0.0,0.0,0.0,0.0,0.0,0.0,0.0,0.0,0.0,0.0,0.0,0.0,0.0,0.0,0.0,0.0,0.0,0.0,0.0,0.0,0.0,0.0,0.0,0.0,0.0,0.0,0.0,0.0,0.0,0.0,0.0,0.0,0.0,0.0,0.0,0.0,0.0,0.0,0.0,0.0,0.0,0.0,0.0,0.0,0.0,0.0,0.0,0.0,0.0,0.0,0.0,0.0,0.0,0.0,0.0,0.0,0.0,0.0,0.0,0.0,0.0,0.0,0.0,0.0,0.0,0.0,0.0,0.0,0.0,0.0,0.0,0.0,0.0,0.0,0.0,0.0,0.0,0.0,0.0,0.0,0.0,0.0,0.0,0.0,0.0,0.0,0.0,0.0,0.0,0.0,0.0,0.0,0.0,0.0,0.0,0.0,0.0,0.0,0.0,0.0,0.0,0.0,0.0,0.0,0.0,0.0,0.0,0.0,0.0,0.0,0.0,0.0,0.0,0.0,0.0,0.0,0.0,0.0,0.0,0.0,0.0,0.0,0.0,0.0,0.0,0.0,0.0,0.0,0.0,0.0,0.0,0.0,0.0,0.0,0.0,0.0,0.0,0.0,0.0,0.0,0.0,0.0,0.0,0.0,0.0,0.0,0.0,0.0,0.0,0.0,0.0,0.0,0.0,0.0,0.0,0.0,0.0,0.0,0.0,0.0,0.0,0.0,0.0,0.0,0.0,0.0,0.0,0.0,0.0,0.0,0.0,0.0,0.0,0.0,0.0,0.0,0.0,0.0,0.0,0.0,0.0,0.0,0.0,0.0,0.0,0.0,0.0,0.0,0.0,0.0,0.0,0.0,0.0,0.0,0.0,0.0,0.0,0.0,0.0,0.0,0.0,0.0,0.0,0.0,0.0,0.0,0.0,0.0,0.0,0.0,0.0,0.0,0.0,0.0,0.0,0.0,0.0,0.0,0.0,0.0,0.0,0.0,0.0,0.0,0.0,0.0,0.0,0.0,0.0,0.0,0.0,0.0,0.0,0.0,0.0,0.0,0.0,0.0,0.0,0.0,0.0,0.0,0.0,0.0,0.0,0.0,0.0,0.0,0.0,0.0,0.0,0.0,0.0,0.0,0.0,0.0,0.0,0.0,0.0,0.0,0.0,0.0,0.0,0.0,0.0,0.0,0.0,0.0,0.0,0.0,0.0,0.0,0.0,0.0,0.0,0.0,0.0,0.0,0.0,0.0,0.0,0.0,0.0,0.0,0.0,0.0,0.0,0.0,0.0,0.0,0.0,0.0,0.0,0.0,0.0,0.0,0.0,0.0,0.0,0.0,0.0,0.0,0.0,0.0,0.0,0.0,0.0,0.0,0.0,0.0,0.0,0.0,0.0,0.0,0.0,0.0,0.0,0.0,0.0,0.0,0.0,0.0,0.0,0.0,0.0,0.0,0.0,0.0,0.0,0.0,0.0,0.0,0.0,0.0,0.0,0.0,0.0,0.0,0.0,0.0,0.0,0.0,0.0,0.0,0.0,0.0,0.0,0.0,0.0,0.0,0.0,0.0,0.0,0.0,0.0,0.0,0.0,0.0,0.0,0.0,0.0,0.0,0.0,0.0,0.0,0.0,0.0,0.0,0.0,0.0,0.0,0.0,0.0,0.0,0.0,0.0,0.0,0.0,0.0,0.0,0.0,0.0,0.0,0.0,0.0,0.0,0.0,0.0,0.0,0.0,0.0,0.0,0.0,0.0,0.0,0.0,0.0,0.0,0.0,0.0,0.0,0.0,0.0,0.0,0.0,0.0,0.0,0.0,0.0,0.0,0.0,0.0,0.0,0.0,0.0,0.0,0.0,0.0,0.0,0.0,0.0,0.0,0.0,0.0,0.0,0.0,0.0,0.0,0.0,0.0,0.0,0.0,0.0,0.0,0.0,0.0,0.0,0.0,0.0,0.0,0.0,0.0,0.0,0.0,0.0,0.0,0.0,0.0,0.0,0.0,0.0,0.0,0.0,0.0,0.0,0.0,0.0,0.0,0.0,0.0,0.0,0.0,0.0,0.0,0.0,0.0,0.0,0.0,0.0,0.0,0.0,0.0,0.0,0.0,0.0,0.0,0.0,0.0,0.0,0.0,0.0,0.0,0.0,0.0,0.0,0.0,0.0,0.0,0.0,0.0,0.0,0.0,0.0,0.0,0.0,0.0,0.0,0.0,0.0,0.0,0.0,0.0,0.0,0.0,0.0,0.0,0.0,0.0,0.0,0.0,0.0,0.0,0.0,0.0,0.0,0.0,0.0,0.0,0.0,0.0,0.0,0.0,0.0,0.0,0.0,0.0,0.0,0.0,0.0,0.0,0.0,0.0,0.0,0.0,0.0,0.0,0.0,0.0,0.0,0.0,0.0,0.0,0.0,0.0,0.0,0.0,0.0,0.0,0.0,0.0,0.0,0.0,0.0,0.0,0.0,0.0,0.0,0.0,0.0,0.0,0.0,0.0,0.0,0.0,0.0,0.0,0.0,0.0,0.0,0.0,0.0,0.0,0.0,0.0,0.0,0.0,0.0,0.0,0.0,0.0,0.0,0.0,0.0,0.0,0.0,0.0,0.0,0.0,0.0,0.0,0.0,0.0,0.0,0.0,0.0,0.0,0.0,0.0,0.0,0.0,0.0,0.0,0.0,0.0,0.0,0.0,0.0,0.0,0.0,0.0,0.0,0.0,0.0,0.0,0.0,0.0,0.0,0.0,0.0,0.0,0.0,0.0,0.0,0.0,0.0,0.0,0.0,0.0,0.0,0.0,0.0,0.0,0.0,0.0,0.0,0.0,0.0,0.0,0.0,0.0,0.0,0.0,0.0,0.0,0.0,0.0,0.0,0.0,0.0,0.0,0.0,0.0,0.0,0.0,0.0,0.0,0.0,0.0,0.0,0.0,0.0,0.0,0.0,0.0,0.0,0.0,0.0,0.0,0.0,0.0,0.0,0.0,0.0,0.0,0.0,0.0,0.0,0.0,0.0,0.0,0.0,0.0,0.0,0.0,0.0,0.0,0.0,0.0,0.0,0.0,0.0,0.0,0.0,0.0,0.0,0.0,0.0,0.0,0.0,0.0,0.0,0.0,0.0,0.0,0.0,0.0,0.0,0.0,0.0,0.0,0.0,0.0,0.0,0.0,0.0,0.0,0.0,0.0,0.0,0.0,0.0,0.0,0.0,0.0,0.0,0.0,0.0,0.0,0.0,0.0,0.0,0.3253,0.0,0.0,0.0,0.0,0.0,0.0,0.0,0.0,0.0,0.0,0.0,0.0,0.0,0.0,0.0,0.0,0.0,0.0,0.0,0.0,0.0,0.0,0.0,0.0,0.0,0.0,0.0,0.0,0.0,0.0,0.0,0.0,0.0,0.0,0.0,0.0,0.0,0.0,0.0,0.0,0.0,0.0,0.0,0.0,0.0,0.0,0.0,0.0,0.0,0.0,0.0,0.0,0.0,0.0,0.0,0.0,0.0,0.0,0.0,0.0,0.0,0.0,0.0,0.0,0.0,0.0,0.0,0.0,0.0,0.0,0.0,0.0,0.0,0.0,0.0,0.0,0.0,0.0,0.0,0.0,0.0,0.0,0.0,0.0,0.0,0.0,0.0,0.0,0.0,0.0,0.0,0.0,0.0,0.0,0.0,0.0,0.0,0.0,0.0,0.0,0.0,0.0,0.0,0.0,0.0,0.0,0.0,0.0,0.0,0.0,0.0,0.0,0.0,0.0,0.0,0.0,0.2482,0.0,0.0,0.0,0.0,0.0,0.0,0.0,0.0,0.0,0.0,0.0,0.0,0.0,0.0,0.0,0.0,0.0,0.0,0.0,0.0,0.0,0.0,0.0,0.0,0.0,0.0,0.0,0.0,0.0,0.0,0.0,0.0,0.0,0.0,0.0,0.0,0.0,0.0,0.0,0.0,0.0,0.0,0.0,0.0,0.0,0.0,0.0,0.0,0.0,0.0,0.0,0.0,0.0,0.0,0.0,0.0,0.0,0.0,0.0,0.0,0.0,0.0,0.0,0.0,0.0,0.0,0.0,0.0,0.0,0.0,0.0,0.0,0.0,0.0,0.0,0.0,0.0,0.0,0.0,0.0,0.0,0.0,0.0,0.0,0.0,0.0,0.0,0.0,0.0,0.0,0.0,0.0,0.0,0.0,0.0,0.0,0.0,0.0,0.0,0.0,0.0,0.0,0.0,0.0,0.0,0.0,0.0,0.0,-0.2803,-0.283,-0.2553,-0.2787,-0.2634,-0.2199,-0.1256,-0.0545,0.0061,0.1327,0.0,0.0,0.0,0.0,0.0,0.0,0.0,0.0,0.0,0.0,0.0,0.0,0.0,0.0,0.0,0.0,0.0,0.0,0.0,0.0,0.0,0.0,0.0,0.0,0.0,0.0,0.0,0.0,0.0,0.0,0.0,0.0,0.0,0.0,0.0,0.0,0.0,0.0,-0.0,-0.033,-0.0552,-0.065,-0.0211,0.0,0.0,0.0,0.0,0.0,0.0,0.0,0.0,0.0,0.0,0.0,0.0,0.0,0.0,0.0,0.0,0.0,0.0,0.0,0.0,0.0,0.0,0.0,0.0,0.0,0.0,0.0,0.0,0.0,0.0,0.0,0.0,0.0,0.0,0.0,0.0,0.0,0.0,0.0,0.0,0.0,0.0,0.0,0.1551,-0.0,0.0,0.0,0.0,0.0,0.0,0.0,0.0,0.0,0.0,0.0,0.0,0.0,0.0,-0.2694,-0.2694,-0.3915,-0.4541,-0.4677,-0.5339,-0.5542,-0.5448,-0.5807,-0.5532,-0.4784,-0.552,0.0,-0.0955,-0.2447,0.0,0.0,0.0,0.0,0.0,0.0,0.0,0.0,0.0,0.0,0.0,0.0,0.0,0.0,0.0,0.0,0.0,0.0,0.0,0.0,0.0,0.0,0.0,0.0,0.0,0.0,0.0,0.0,0.0,0.0,0.0,0.0,0.0,0.0,0.0,0.0,-0.1423,-0.0641,-0.0,-0.0548,-0.1424,-0.2367,-0.124,-0.0802,-0.0965,-0.1379,0.0,0.0,0.0,0.0,0.0,0.0,0.0,0.0,0.0,0.0,0.0,0.0,0.0,0.0,0.0,0.0,0.0,0.0,0.0,0.0,0.0,0.0,0.0,0.0,0.0,0.0,0.0,0.0,0.0,0.0,0.0,0.0,0.0,0.0,0.0,0.0,0.0,0.0,0.0,0.0926,0.0317,-0.1017,0.0628,0.1574,0.0,0.0,0.0,0.0,0.0,0.0,0.0,0.0,0.0,-0.4629,-0.4816,-0.5135,-0.5728,-0.6427,-0.6908,-0.7148,-0.7655,-0.7908,-0.7757,-0.8331,-0.8004,-0.7103,-0.8205,-0.7301,-0.4978,-0.4627,-0.3662,-0.2378,0.0,0.0,0.0,0.0,-0.1802,-0.2491,0.0,0.0,0.0,0.0,0.0,0.0,0.0,0.0,0.0,0.0,0.0,0.0,0.0,0.0,0.0,-0.2927,0.0,0.0,0.0,0.0,0.0,0.0,0.0,0.0,0.0,0.0,0.0,-0.1819,-0.1476,-0.1026,-0.0606,-0.0995,-0.2022,-0.3371,-0.2075,-0.1414,-0.1252,-0.1446,-0.1796,0.0,0.0,0.0,0.0,0.0,0.0,0.0,0.0,0.0,0.0,0.0,0.0,0.0,0.0,0.0,0.0,0.0,0.0,0.0,0.0,0.0,0.0,0.0,0.0,0.0,0.0,0.0,0.0,0.0,0.0,0.0,0.0,0.0,0.0,0.0,0.0,0.0,0.0,-0.0708,-0.1328,-0.1906,-0.1216,-0.0584,0.0,0.0,0.0,0.0,0.0,0.0,-0.4416,-0.4104,-0.4699,-0.6356,-0.6634,-0.7336,-0.8488,-0.8602,-0.8876,-0.9091,-0.9569,-0.9675,-0.9647,-1.022,-0.9994,-0.9215,-1.0151,-1.0019,-0.8895,-0.6791,-0.5569,-0.5016,-0.4341,-0.388,-0.3481,-0.3479,-0.3752,-0.4362,0.0,0.0,0.0,0.0,0.0,0.0,0.0,0.0,0.0,0.0,0.0,0.0,0.0,0.0,-0.3118,-0.2991,-0.304,-0.2867,0.0,0.0,0.0,0.0,0.0,0.0,0.0,0.0,0.0,-0.1173,-0.16,-0.1961,-0.2088,-0.1725,-0.1888,-0.2388,-0.2158,-0.1901,-0.1661,-0.1618,-0.142,-0.1094,0.0,0.0,0.0,0.0,0.0,0.0,0.0,0.0,0.0,0.0,0.0,0.0,0.0,0.0,0.0,0.0,0.0,0.0,0.0,0.0,0.0,0.0,0.0,0.0,0.0,0.0,0.0,0.0,0.0,0.0,0.0,0.0,0.0,0.0,0.0,0.0,0.0,0.0,0.0,-0.2645,-0.2924,0.0,0.0,0.0,0.0,-0.3714,-0.3253,-0.374,-0.5336,-0.5035,-0.5964,-0.8468,-0.8595,-0.9075,-1.0088,-1.011,-1.0171,-1.025,-1.05,-1.07,-1.0917,-1.1416,-1.1386,-1.0929,-1.1601,-1.1682,-1.1321,-0.9738,-0.8276,-0.7011,-0.6322,-0.5585,-0.4991,-0.5077,-0.5558,-0.6261,0.0,0.0,0.0,0.0,0.0,0.0,0.0,0.0,0.0,0.0,0.0,0.0,0.0,-0.3273,-0.3561,-0.3521,-0.3667,-0.3559,-0.3149,0.0,0.0,0.0,0.0,0.0,0.0,0.0,-0.1723,-0.1015,-0.1282,-0.1546,-0.1935,-0.1885,-0.2142,-0.2654,-0.238,-0.2238,-0.223,-0.2031,-0.1997,-0.2114,-0.2128,-0.2588,0.0,0.0,0.0,0.0,0.0,0.0,0.0,0.0,0.0,0.0,0.0,0.0,0.0,0.0,0.0,0.0,0.0,0.0,0.0,0.0,0.0,0.0,0.0,0.0,0.0,0.0,0.0,0.0,0.0,0.0,0.0,0.0,0.0,0.0,0.0,0.0,0.0,-0.3811,-0.3976,0.0,-0.4473,-0.5438,-0.5935,-0.5636,-0.6233,-0.6914,-0.754,-0.769,-0.8092,-0.8903,-0.913,-0.9674,-1.0528,-1.0444,-1.0802,-1.1368,-1.1932,-1.2221,-1.2312,-1.2575,-1.255,-1.22,-1.219,-1.2017,-1.1688,-1.0701,-1.0118,-0.9757,-0.8623,-0.7987,-0.7704,-0.762,-0.7714,-0.8013,0.0,0.0,0.0,0.0,0.0,0.0,0.0,0.0,0.0,0.0,0.0,-0.3407,-0.3247,-0.3637,-0.3955,-0.4128,-0.4188,-0.4047,-0.3691,0.0,0.0,0.0,0.0,0.0,0.0,-0.3045,-0.2457,-0.0892,-0.1067,-0.1377,-0.1754,-0.1982,-0.2254,-0.2723,-0.2495,-0.2452,-0.2508,-0.2239,-0.2234,-0.2341,-0.2178,-0.2648,-0.3375,0.0,0.0,0.0,0.0,0.0,0.0,0.0,0.0,0.0,0.0,0.0,0.0,0.0,0.0,0.0,0.0,0.0,0.0,0.0,0.0,0.0,0.0,0.0,0.0,0.0,0.0,0.0,0.0,0.0,0.0,0.0,0.0,0.0,0.0,0.0,-0.483,-0.4,-0.5267,-0.6026,-0.5731,-0.6739,-0.7382,-0.7321,-0.8118,-0.8465,-0.8231,-0.8387,-0.8551,-0.8761,-0.9058,-0.9792,-1.1128,-1.1128,-1.1535,-1.237,-1.2856,-1.3108,-1.3123,-1.3209,-1.3007,-1.2497,-1.2672,-1.255,-1.2152,-1.1793,-1.1939,-1.2081,-1.0323,-0.9712,-0.9758,-0.934,-0.9257,-0.9257,0.0,0.0,0.0,0.0,0.0,0.0,0.0,0.0,0.0,0.0,-0.3743,-0.389,-0.4088,-0.4124,-0.4316,-0.4756,-0.4557,-0.4258,-0.386,-0.3806,0.0,0.0,0.0,0.0,-0.3611,-0.3996,-0.3062,-0.0743,-0.1037,-0.1401,-0.1688,-0.1948,-0.2218,-0.242,-0.242,-0.2451,-0.2506,-0.2349,-0.2038,-0.1638,-0.1523,-0.1835,-0.2354,0.0,0.0,0.0,0.0,0.0,0.0,0.0,0.0,0.0,0.0,0.0,0.0,0.0,0.0,0.0,0.0,0.0,0.0,0.0,0.0,0.0,0.0,0.0,0.0,0.0,0.0,0.0,0.0,0.0,0.0,0.0,0.0,0.0,-0.1351,-0.4543,-0.6121,-0.3328,-0.6754,-0.8762,-0.7308,-0.8481,-0.9119,-0.8765,-0.8538,-0.8054,-0.7278,-0.7064,-0.7434,-0.8367,-0.838,-0.9545,-1.1806,-1.2056,-1.2419,-1.3048,-1.316,-1.3253,-1.3287,-1.3247,-1.2656,-1.182,-1.3189,-1.3374,-1.2764,-1.3209,-1.366,-1.3859,-1.1293,-1.0609,-1.0971,-1.0202,-1.0033,-1.0038,0.0,0.0,0.0,0.0,0.0,0.0,0.0,0.0,0.0,0.0,-0.4174,-0.4356,-0.4255,-0.4506,-0.4721,-0.4815,-0.4803,-0.4747,-0.455,0.0,0.0,0.0,0.0,0.0,-0.3754,-0.3034,-0.2171,-0.104,-0.1232,-0.1473,-0.1707,-0.176,-0.1922,-0.2197,-0.2722,-0.3078,-0.3196,-0.3778,-0.3882,-0.3579,-0.289,-0.2989,-0.3535,0.0,0.0,0.0,0.0,0.0,0.0,0.0,0.0,0.0,0.0,0.0,0.0,0.0,0.0,0.0,0.0,0.0,0.0,0.0,0.0,0.0,0.0,0.0,0.0,0.0,0.0,0.0,0.0,0.0,0.0,0.0,0.0,-0.5299,-0.3811,-0.673,-0.8374,-0.6818,-0.8449,-0.9574,-0.9199,-0.926,-0.9275,-0.9145,-0.9065,-0.8861,-0.8534,-0.8467,-0.8415,-0.8403,-0.8703,-0.9494,-1.0924,-1.1288,-1.2025,-1.3167,-1.3306,-1.3464,-1.3459,-1.3557,-1.3557,-1.3529,-1.3849,-1.3765,-1.3543,-1.3719,-1.395,-1.4079,-1.2352,-1.185,-1.2105,-1.1434,-1.1068,-1.0849,0.0,0.0,0.0,0.0,0.0,0.0,0.0,0.0,0.0,0.0,-0.4494,-0.4628,-0.4658,-0.4842,-0.4992,-0.5035,-0.5067,-0.4939,-0.4671,0.0,0.0,0.0,0.0,-0.4936,-0.4629,-0.3568,-0.2769,-0.2339,-0.2534,-0.2592,-0.2491,-0.2698,-0.295,-0.3249,-0.3697,-0.3839,-0.3753,-0.4488,-0.4589,-0.4134,-0.4351,-0.4288,-0.4245,-0.4963,-0.5397,-0.5678,-0.5908,-0.5944,-0.5856,-0.5591,0.0,0.0,0.0,0.0,0.0,0.0,0.0,0.0,0.0,0.0,0.0,0.0,0.0,0.0,0.0,0.0,0.0,0.0,0.0,0.0,0.0,0.0,0.0,0.0,-0.5369,-0.6124,-0.5805,-0.7794,-0.8851,-0.7867,-0.898,-0.9771,-0.9916,-0.9695,-0.9549,-0.9549,-0.9473,-0.9316,-0.9003,-0.8886,-0.8739,-0.8418,-0.916,-1.009,-1.1123,-1.1981,-1.2936,-1.398,-1.4076,-1.4165,-1.4158,-1.4079,-1.3903,-1.3715,-1.4221,-1.4266,-1.407,-1.4636,-1.5005,0.0,0.0,0.0,0.0,0.0,-1.2241,-1.1932,0.0,0.0,0.0,0.0,0.0,0.0,0.0,0.0,0.0,0.0,0.0,-0.4771,-0.5276,-0.5237,-0.5211,-0.5403,-0.5242,-0.4929,0.0,0.0,0.0,-0.5306,-0.5567,-0.5764,-0.5773,-0.4876,-0.4287,-0.4046,-0.4275,-0.4196,-0.3666,-0.4173,-0.4562,-0.4819,-0.4897,-0.4722,-0.4346,-0.4977,-0.4825,-0.4281,-0.5767,-0.5701,-0.4737,-0.5262,-0.5481,-0.5567,-0.5998,-0.6129,-0.6063,-0.6022,0.0,0.0,0.0,0.0,0.0,0.0,0.0,0.0,0.0,0.0,0.0,0.0,0.0,0.0,0.0,0.0,0.0,0.0,0.0,0.0,0.0,0.0,0.0,0.0,-0.5868,-0.6677,-0.7274,-0.8007,-0.8308,-0.7632,-0.8807,-0.9771,-0.9916,-0.9846,-0.9841,-0.9846,-0.9695,-0.9478,-0.919,0.0,0.0,0.0,0.0,-1.0923,-1.1845,-1.3166,-1.4199,-1.4975,-1.4932,-1.4867,-1.494,-1.4646,-1.4065,-1.3344,-1.4668,-1.498,-1.4615,-1.5866,-1.6482,-1.6482,-1.4943,-1.4433,-1.4469,-1.3717,-1.3303,-1.3121,0.0,0.0,0.0,0.0,0.0,0.0,0.0,0.0,0.0,-0.5479,-0.5035,-0.4968,-0.5911,-0.5702,-0.551,-0.556,-0.5337,-0.5033,0.0,0.0,-0.5342,-0.5483,-0.581,-0.6017,-0.603,-0.5332,-0.5001,-0.5127,-0.4695,-0.4394,-0.4227,-0.4455,-0.4556,-0.4667,-0.5271,-0.5526,-0.5603,-0.6392,-0.6671,-0.6603,-0.7042,-0.667,-0.5997,-0.7108,-0.736,-0.7146,-0.7556,-0.747,-0.7131,-0.6842,-0.6788,-0.6823,-0.6929,0.0,0.0,0.0,0.0,0.0,0.0,0.0,0.0,0.0,0.0,0.0,0.0,0.0,0.0,0.0,0.0,0.0,0.0,0.0,0.0,-0.643,-0.6576,-0.684,-0.7487,-0.7792,-0.8243,-0.9091,-0.9857,-1.0218,-0.9922,-0.9771,-0.962,-0.9397,-0.9397,-0.955,-1.0036,-0.9719,-0.9894,-1.0831,-1.1053,-1.1569,-1.2209,-1.2824,-1.3459,-1.4165,0.0,0.0,-1.4602,-1.4862,-1.504,-1.5124,-1.5558,-1.6116,-1.6754,-1.681,-1.7173,-1.7554,-1.5631,-1.5084,-1.5014,-1.3361,-1.3284,-1.3891,0.0,0.0,0.0,0.0,0.0,0.0,0.0,0.0,0.0,0.0,-0.4625,-0.4565,-0.5553,-0.5259,-0.5043,-0.519,-0.496,0.0,0.0,-0.5243,-0.5636,-0.571,-0.6125,-0.6303,-0.6152,-0.586,-0.5789,-0.5876,-0.5586,-0.543,-0.5431,-0.5649,-0.5871,-0.5939,-0.64,-0.6468,-0.6247,-0.7013,-0.7124,-0.6749,-0.7294,-0.7249,-0.6938,-0.7561,-0.7638,-0.7561,-0.7949,-0.7872,-0.7693,-0.7799,-0.7746,-0.7616,-0.7777,-0.7261,-0.639,0.0,0.0,0.0,0.0,0.0,0.0,0.0,0.0,0.0,0.0,0.0,0.0,0.0,0.0,-0.5396,0.0,0.0,-0.6233,-0.7013,-0.663,-0.6798,-0.8621,-0.8555,-0.8578,-0.9286,-0.9981,-1.0419,-1.0619,-1.0478,-1.0456,-1.0512,-1.0517,-1.0723,-1.1151,-1.0891,-1.1004,-1.155,-1.2101,-1.2497,-1.2606,-1.3796,-1.4508,-1.4684,-1.5168,-1.5404,-1.5481,-1.5728,-1.5989,-1.616,-1.6585,-1.7199,-1.7961,-1.8335,-1.8604,-1.8683,-1.7175,-1.6514,-1.6399,-1.4911,-1.4933,-1.5705,0.0,0.0,0.0,0.0,0.0,0.0,0.0,0.0,0.0,0.0,-0.4255,-0.4247,-0.5161,-0.486,-0.4709,0.0,0.0,0.0,0.0,-0.542,-0.5848,-0.6155,-0.6542,-0.6619,-0.6506,-0.6555,-0.663,-0.6668,-0.663,-0.6643,-0.6684,-0.6937,-0.719,-0.7364,-0.7479,-0.7169,-0.67,-0.7246,-0.7092,-0.6549,-0.7249,-0.7484,-0.7484,-0.7484,-0.7484,-0.7561,-0.8025,-0.803,-0.7876,-0.8403,-0.8403,-0.8178,-0.8327,-0.7863,-0.7061,-0.6242,-0.5415,0.0,0.0,0.0,0.0,0.0,0.0,0.0,0.0,0.0,-0.5575,-0.5988,-0.6253,-0.6607,-0.7311,-0.6891,-0.6765,-0.7458,-0.6926,-0.7319,-0.9824,-0.9704,-0.9405,-0.9756,-1.0247,-1.0741,-1.1415,-1.151,-1.1685,-1.1914,-1.1926,-1.1944,-1.2215,-1.2073,-1.2061,-1.2285,-1.3173,-1.3588,-1.3491,-1.5051,-1.5771,-1.5656,-1.6377,-1.6666,-1.6476,-1.6802,-1.6916,-1.7022,-1.7692,-1.8222,-1.8717,-1.9561,-1.9845,-1.9538,-1.8612,-1.8175,-1.7863,-1.6692,-1.6735,-1.723,0.0,0.0,0.0,0.0,0.0,0.0,0.0,0.0,0.0,0.0,0.0,0.0,0.0,0.0,0.0,0.0,0.0,0.0,-0.555,-0.5937,-0.6384,-0.6997,-0.713,-0.7264,-0.7634,-0.748,-0.7485,-0.7609,-0.7485,-0.7432,-0.7573,-0.7504,-0.7551,-0.766,-0.7551,-0.748,-0.7403,-0.748,-0.7484,-0.7326,-0.7484,-0.7484,-0.7484,-0.7484,-0.7484,-0.7561,-0.8174,-0.8102,-0.7804,-0.8106,-0.8255,-0.8403,-0.8403,-0.8475,-0.8262,-0.7095,0.0,-0.623,-0.4529,-0.3862,-0.3834,-0.4707,-0.4877,-0.5215,0.0,0.0,-0.6759,-0.7194,-0.768,-0.8082,-0.8353,-0.8385,-0.8328,-0.8408,-0.8645,-0.9181,-1.0164,-1.0548,-1.1029,-1.1834,-1.1854,-1.1848,-1.1939,-1.2257,-1.2508,-1.2552,-1.2552,-1.2654,-1.2896,-1.2908,-1.3244,-1.4103,-1.4212,-1.4692,-1.558,-1.5518,-1.5829,-1.6499,-1.6263,-1.6366,-1.6664,-1.7465,-1.7862,-1.7903,-1.9022,-1.9369,-1.9098,-1.994,-2.011,-1.9861,-1.9374,-1.9184,-1.8872,-1.7333,-1.7047,-1.753,0.0,0.0,0.0,0.0,0.0,0.0,0.0,0.0,0.0,0.0,0.0,0.0,0.0,0.0,0.0,0.0,0.0,0.0,-0.5789,-0.6367,-0.7095,-0.8007,-0.7754,-0.7783,-0.8174,-0.7766,-0.7631,-0.7981,-0.7768,-0.7769,-0.8027,-0.785,-0.7938,-0.8107,-0.7891,-0.8071,-0.8584,-0.851,-0.851,-0.8579,-0.8579,-0.8435,-0.8169,-0.8169,-0.8169,-0.8201,-0.8002,-0.7735,0.0,0.0,-0.8241,-0.8159,-0.86,-0.8161,-0.7535,-0.7431,-0.6655,0.0,-0.5326,-0.5352,0.0,0.0,-0.6969,-0.7285,-0.7799,-0.8012,-0.8029,-0.8146,-0.8296,-0.8475,-0.8552,-0.8806,-0.8853,0.0,-0.9297,-1.014,-1.0953,-1.1341,-1.1983,-1.3233,-1.2702,-1.2176,-1.1999,-1.2897,-1.3214,-1.2797,-1.3326,-1.3748,-1.3944,-1.3868,-1.4253,-1.5241,-1.5177,-1.5505,-1.6257,-1.6376,-1.6548,-1.685,-1.6792,-1.7282,-1.8076,-1.8568,-1.9339,-2.0246,-2.1321,-2.1692,-2.1475,-2.2057,-2.2215,-2.187,-2.1383,-2.1246,-2.1274,-1.9457,-1.891,-1.92,0.0,0.0,0.0,0.0,0.0,0.0,0.0,0.0,0.0,0.0,0.0,0.0,0.0,0.0,0.0,0.0,0.0,0.0,0.0,-0.6857,-0.7635,-0.8999,-0.8457,-0.8393,-0.8955,-0.8457,-0.8341,-0.871,-0.8477,-0.844,-0.8623,-0.8447,-0.8534,-0.8836,-0.8601,-0.9059,-0.9851,-0.9704,-0.971,-0.9851,-0.9851,-0.9665,-0.9372,-0.9372,-0.9185,-0.889,-0.8201,-0.77,0.0,0.0,-0.823,-0.8035,-0.8467,-0.7929,-0.7269,-0.7636,-0.6759,-0.5723,-0.6342,0.0,0.0,-0.8072,-0.8613,-0.8963,-0.9018,-0.8999,-0.8999,-0.8828,-0.8828,-0.8899,-0.8931,-0.9239,-0.9404,-0.928,-1.013,-1.1128,-1.1912,-1.2351,-1.288,-1.3672,-1.3074,-1.226,-1.1622,-1.2947,-1.3712,-1.3441,-1.4199,-1.4741,-1.4824,-1.4734,-1.5043,-1.587,-1.5813,-1.627,-1.729,-1.7461,-1.7803,-1.824,-1.8319,-1.8884,-1.977,-2.0329,-2.1322,-2.2616,-2.3357,-2.3605,-2.3467,-2.3879,-2.3896,-2.3657,-2.3339,-2.3258,-2.3309,-2.2169,-2.1581,-2.1203,0.0,0.0,0.0,0.0,0.0,0.0,0.0,0.0,0.0,0.0,0.0,0.0,0.0,0.0,0.0,0.0,0.0,0.0,0.0,-0.7524,-0.8017,-0.98,-0.9079,-0.9199,-1.0192,-0.9897,-0.9897,-1.0217,-1.002,-0.978,-0.9528,-0.9421,-0.9591,-1.0058,-0.9931,-1.0254,-1.1069,-1.1069,-1.1069,-1.1069,-1.1069,-1.1075,-1.1007,-1.1007,-1.0456,-0.9589,-0.8969,0.0,0.0,0.0,-0.8274,-0.8271,-0.7706,-0.7942,0.0,-0.7853,-0.7568,0.0,0.0,0.0,-0.8016,-0.8522,-0.8874,-0.9043,-0.9216,-0.9257,-0.9257,-0.9262,-0.9432,-0.963,-0.9766,-0.9966,-1.0292,-1.0731,-1.1632,-1.2302,-1.2662,-1.3483,-1.3768,-1.3144,-1.2932,-1.2222,0.0,-1.2179,-1.3839,-1.4975,-1.5242,-1.5264,-1.509,-1.5235,-1.5548,-1.587,-1.6156,-1.7235,-1.9306,-1.9039,-1.9557,-2.1062,-2.1137,-2.118,-2.1291,-2.2788,-2.3864,-2.4424,-2.4696,-2.4693,-2.45,-2.451,-2.4428,-2.448,-2.4972,-2.4706,-2.4297,-2.5669,-2.4954,-2.3432,0.0,0.0,0.0,0.0,0.0,0.0,0.0,0.0,0.0,0.0,0.0,0.0,0.0,0.0,0.0,0.0,0.0,0.0,0.0,-0.8128,-0.8914,-1.0185,-1.0137,-1.0289,-1.0648,-1.0072,-1.0026,-1.0482,-1.0277,-1.0387,-1.077,-1.0619,-1.0823,-1.1268,-1.1147,-1.148,-1.2278,-1.2121,-1.2192,-1.2278,-1.2278,-1.2111,-1.1784,-1.1077,-1.0689,-1.036,0.0,0.0,0.0,0.0,0.0,-0.8191,-0.8113,-0.7852,-0.7512,-0.6884,-0.7302,-0.7944,0.0,0.0,-0.8625,-0.8744,-0.8955,-0.919,-0.93,-0.9262,-0.9262,-0.9262,-0.9039,-0.8746,-0.8918,-0.9571,-1.0089,-1.0253,-1.1544,-1.2672,-1.2884,-1.2816,-1.302,-1.3642,-1.2674,0.0,0.0,0.0,0.0,-1.3162,-1.454,-1.5423,-1.5492,-1.5782,-1.6545,-1.7814,-1.8143,-1.9205,-2.0944,-2.056,-2.0907,-2.1738,-2.3037,-2.3967,-2.4532,-2.5733,-2.6334,-2.6379,-2.699,-2.679,-2.6166,-2.6459,-2.6493,-2.6279,-2.6003,-2.6007,-2.631,-2.6438,-2.6391,-2.6177,0.0,0.0,0.0,0.0,0.0,0.0,0.0,0.0,0.0,0.0,0.0,0.0,0.0,0.0,0.0,0.0,0.0,0.0,0.0,0.0,-0.9144,-1.0482,-1.0316,-1.0346,-1.0595,-1.0244,-1.0383,-1.0991,-1.1023,-1.1339,-1.1927,-1.1678,-1.1922,-1.2499,-1.2356,-1.2721,-1.3454,-1.329,-1.323,-1.3127,-1.2959,-1.2567,-1.2044,-1.1094,-1.0516,0.0,0.0,0.0,0.0,0.0,0.0,0.0,-0.8001,-0.7466,-0.7026,-0.7383,-0.7824,-0.8339,-0.8876,-0.929,-0.9553,-0.9457,-0.9649,-0.9781,-0.9607,-0.9607,-0.9689,-0.9689,-0.947,-0.9166,-0.8937,-0.9631,-1.036,-1.079,-1.1951,-1.3098,-1.4135,-1.379,-1.3752,-1.442,-1.3446,-1.3056,0.0,0.0,0.0,-1.2678,-1.4265,-1.5204,-1.5235,-1.6116,-1.7283,-1.8866,-1.9643,-2.0747,-2.2217,-2.2105,-2.2511,-2.3644,-2.4799,-2.583,-2.6824,-2.7565,-2.7461,-2.6941,-2.8021,-2.7839,-2.6788,-2.7597,-2.785,-2.7633,-2.7038,-2.7101,-2.7469,-2.718,-2.7285,-2.7547,0.0,0.0,0.0,0.0,0.0,0.0,0.0,0.0,0.0,0.0,0.0,0.0,0.0,0.0,0.0,0.0,0.0,0.0,0.0,0.0,0.0,-1.0677,-0.9823,-0.9588,-1.0326,-1.0493,-1.0931,-1.1606,-1.2057,-1.2453,-1.2793,-1.2513,-1.2738,-1.3482,-1.3497,-1.3807,-1.4324,-1.4324,-1.3979,-1.347,-1.2964,-1.2352,-1.1717,-1.113,0.0,0.0,0.0,0.0,0.0,0.0,0.0,0.0,0.0,-0.6988,-0.7104,-0.9208,-0.9083,-0.8809,-1.0826,-1.0953,-1.0578,-1.074,-1.0727,-1.0641,-1.0207,-1.0294,-1.0366,-1.0322,-1.0641,-1.0616,0.0,0.0,-1.0957,-1.2344,-1.2764,-1.371,-1.6117,-1.6177,-1.5827,0.0,0.0,0.0,0.0,0.0,0.0,-1.3827,0.0,-1.4962,-1.4739,-1.6339,-1.7876,-1.9112,-2.0595,-2.1938,-2.3212,-2.3466,-2.4626,-2.6647,-2.6474,-2.6955,-2.8053,-2.8355,-2.7613,-2.622,-2.805,-2.788,-2.6454,-2.7834,-2.8395,-2.8301,-2.8092,-2.7998,-2.7998,-2.7998,-2.7809,-2.7547,0.0,0.0,0.0,0.0,0.0,0.0,0.0,0.0,0.0,0.0,0.0,0.0,0.0,0.0,0.0,0.0,0.0,0.0,0.0,0.0,0.0,0.0,0.0,0.0,0.0,0.0,0.0,0.0,0.0,-1.1407,-1.1422,-1.2011,-1.2506,-1.3013,-1.3273,-1.3332,-1.322,-1.3284,-1.2797,-1.1947,0.0,-1.176,-1.1138,0.0,0.0,0.0,0.0,0.0,0.0,0.0,0.0,0.0,0.0,-0.9709,-0.9528,-0.9834,-1.0079,-1.0297,-1.0838,-1.0891,-1.0953,-1.1112,-1.1068,-1.1149,-1.206,-1.1649,-1.1032,-1.1015,-0.9991,-0.8904,0.0,0.0,0.0,-1.1941,-1.2434,0.0,-1.5102,-1.4962,0.0,0.0,0.0,-1.4796,-1.5346,-1.6736,0.0,0.0,-1.6974,-1.7572,-1.7476,-1.8972,-2.0452,-2.1655,-2.2454,-2.3289,-2.4323,-2.5104,-2.6007,-2.7115,-2.764,-2.8287,-2.9127,-2.8987,-2.8649,-2.8138,-2.8364,-2.7993,-2.7313,-2.7672,-2.7736,-2.7536,-2.7536,-2.7441,-2.7441,-2.7441,-2.7441,-2.7357,0.0,0.0,0.0,0.0,0.0,0.0,0.0,0.0,0.0,0.0,0.0,0.0,0.0,0.0,0.0,0.0,0.0,0.0,0.0,0.0,0.0,0.0,0.0,0.0,0.0,0.0,0.0,0.0,0.0,0.0,0.0,-1.1837,-1.2133,-1.2348,-1.2772,-1.2811,-1.2639,-1.3028,0.0,0.0,0.0,0.0,0.0,0.0,0.0,0.0,0.0,0.0,0.0,0.0,0.0,-1.0405,-1.1355,-1.1125,-1.0704,-1.1665,0.0,-1.1847,-1.2701,-1.2762,-1.2522,-1.2174,-1.2334,-1.2542,-1.2071,-1.1652,-1.1251,-1.0581,-0.9489,0.0,0.0,0.0,0.0,0.0,0.0,0.0,-1.5283,-1.5143,-1.4894,0.0,-1.5138,0.0,-1.6606,-1.7667,-1.8071,0.0,-1.8532,-1.8877,-1.8697,-2.0218,-2.1542,-2.2727,-2.3585,-2.4496,-2.5451,-2.5854,-2.6571,-2.7594,-2.7952,-2.847,-2.9209,-2.9035,-2.8418,-2.759,0.0,-2.7761,-2.677,-2.7379,-2.7536,-2.7452,-2.7357,-2.7262,-2.7262,-2.7262,-2.7262,-2.7262,0.0,0.0,0.0,0.0,0.0,0.0,0.0,0.0,0.0,0.0,0.0,0.0,0.0,0.0,0.0,0.0,0.0,0.0,0.0,0.0,0.0,0.0,0.0,0.0,0.0,0.0,0.0,0.0,0.0,0.0,0.0,0.0,0.0,0.0,0.0,0.0,0.0,0.0,0.0,0.0,0.0,0.0,0.0,0.0,0.0,0.0,0.0,0.0,0.0,0.0,-1.1894,-1.0748,-1.2406,-1.2134,-1.1584,-1.394,-1.3844,-1.3331,-1.518,-1.5216,-1.4448,-1.3516,-1.4092,-1.4227,-1.2037,-1.1702,-1.1495,-1.0171,0.0,-0.8782,-0.8059,0.0,-0.9883,-1.2047,0.0,-1.3807,-1.5545,-1.589,-1.5929,-1.5957,-1.6057,-1.6566,-1.778,-1.8049,-1.8553,-1.9397,-1.9824,-1.9852,-1.9496,-2.0947,-2.2227,-2.3229,-2.4297,-2.5269,-2.6113,-2.6145,-2.6823,-2.7987,-2.7871,-2.8169,-2.8757,-2.8757,-2.7898,-2.6373,-2.7774,0.0,-2.5931,-2.7045,-2.7547,-2.7536,-2.7357,-2.7262,-2.7357,-2.7357,-2.7347,-2.7357,0.0,0.0,0.0,0.0,0.0,0.0,0.0,0.0,0.0,0.0,-0.6781,0.0,0.0,0.0,0.0,0.0,0.0,0.0,0.0,0.0,0.0,0.0,0.0,0.0,0.0,0.0,0.0,0.0,0.0,0.0,0.0,0.0,0.0,0.0,0.0,0.0,0.0,0.0,0.0,0.0,0.0,0.0,0.0,0.0,0.0,0.0,0.0,0.0,0.0,0.0,-1.2856,-1.2744,-1.4301,-1.4576,-1.4458,-1.5031,-1.5004,-1.4828,-1.5281,-1.5043,-1.4782,-1.4942,-1.5101,-1.5464,-1.6051,-1.466,0.0,0.0,0.0,-0.8897,-0.9124,-0.9528,0.0,-1.2787,0.0,0.0,0.0,0.0,-1.5853,0.0,0.0,0.0,0.0,0.0,0.0,0.0,0.0,-2.2658,-2.1872,-2.3337,-2.4255,-2.447,-2.5028,-2.5554,-2.5832,-2.7045,-2.7734,-2.7987,-2.8391,-2.868,-2.8757,-2.8757,-2.8533,-2.7957,-2.7996,0.0,-2.7295,-2.7348,-2.7357,-2.7357,-2.7357,-2.7262,-2.7357,-2.7715,-2.762,-2.7357,0.0,0.0,0.0,0.0,0.0,0.0,0.0,0.0,0.0,-0.6684,-0.6727,-0.6898,0.0,0.0,0.0,0.0,0.0,0.0,0.0,0.0,0.0,0.0,0.0,0.0,0.0,0.0,0.0,0.0,0.0,0.0,0.0,0.0,0.0,0.0,0.0,0.0,0.0,0.0,0.0,0.0,0.0,0.0,0.0,0.0,0.0,0.0,0.0,0.0,0.0,0.0,-1.2466,-1.2982,-1.5044,-1.5623,-1.5532,-1.5413,-1.5848,-1.6354,-1.6174,-1.6412,-1.6609,-1.6437,-1.669,-1.6628,-1.5291,0.0,0.0,0.0,0.0,-0.8468,-0.8686,0.0,0.0,0.0,0.0,0.0,0.0,0.0,0.0,0.0,0.0,0.0,0.0,0.0,0.0,0.0,0.0,-2.2412,-2.3076,-2.3988,-2.4696,-2.5138,-2.5462,-2.6074,-2.691,-2.7693,-2.8186,-2.8373,-2.8664,-2.8757,-2.8757,-2.8757,-2.8664,-2.8395,-2.8092,0.0,-2.6613,-2.7327,-2.7118,-2.636,-2.7524,-2.7904,-2.7715,-2.8175,-2.8269,-2.8081,0.0,0.0,0.0,0.0,0.0,0.0,0.0,-0.699,-0.6799,-0.6705,-0.6602,-0.6848,-0.7682,-0.7535,-0.7562,0.0,0.0,0.0,0.0,0.0,0.0,0.0,0.0,0.0,0.0,0.0,0.0,0.0,0.0,0.0,0.0,0.0,0.0,0.0,0.0,0.0,0.0,0.0,0.0,0.0,0.0,0.0,0.0,0.0,0.0,0.0,0.0,0.0,0.0,0.0,-1.1887,-1.2694,-1.4902,-1.5557,-1.543,-1.5513,-1.6391,-1.7295,-1.7243,-1.7743,-1.8193,-1.7691,-1.8023,-1.7553,-1.4279,-1.3487,0.0,0.0,-0.8741,-0.8307,-0.8641,0.0,0.0,0.0,0.0,0.0,0.0,0.0,0.0,0.0,0.0,0.0,0.0,0.0,0.0,0.0,0.0,0.0,-2.3747,-2.4048,-2.4516,-2.5391,-2.5869,-2.6641,-2.7838,-2.8038,-2.8373,-2.8757,-2.8757,-2.8757,-2.8757,-2.8757,-2.8664,-2.8488,-2.8186,0.0,0.0,-2.7423,-2.7087,-2.5711,-2.7893,-2.8445,-2.8175,-2.8724,-2.8817,-2.8724,0.0,0.0,0.0,0.0,0.0,0.0,0.0,-0.6947,-0.7114,-0.6743,-0.6686,-0.6925,-0.7544,-0.7473,-0.7498,0.0,0.0,0.0,0.0,0.0,0.0,0.0,0.0,0.0,0.0,0.0,0.0,0.0,0.0,0.0,0.0,0.0,0.0,0.0,0.0,0.0,0.0,0.0,0.0,0.0,0.0,0.0,0.0,0.0,0.0,0.0,0.0,0.0,0.0,0.0,0.0,-1.2419,-1.3641,-1.4115,-1.443,-1.5471,0.0,0.0,-1.7979,-1.8141,-1.8121,-1.8273,-1.8353,-1.7996,-1.6378,0.0,0.0,-1.1547,-0.9904,-0.9247,-1.0677,-1.0764,0.0,0.0,0.0,0.0,0.0,0.0,0.0,0.0,0.0,0.0,0.0,0.0,0.0,0.0,0.0,0.0,-2.4049,-2.4138,-2.4526,-2.5219,-2.633,-2.7062,-2.7462,-2.8261,-2.8757,-2.8757,-2.8757,-2.8757,-2.8757,-2.8757,-2.8757,-2.8757,-2.8477,0.0,0.0,-2.7802,-2.7543,-2.6563,-2.8076,-2.8631,-2.8724,-2.9198,-2.9106,-2.8724,0.0,0.0,0.0,0.0,0.0,0.0,0.0,-0.6451,-0.657,-0.7057,-0.6866,-0.7214,-0.8584,-0.8021,-0.7589,0.0,0.0,0.0,0.0,0.0,0.0,0.0,0.0,0.0,0.0,0.0,0.0,0.0,0.0,0.0,0.0,0.0,0.0,0.0,0.0,0.0,0.0,0.0,0.0,0.0,0.0,0.0,0.0,0.0,0.0,0.0,0.0,0.0,0.0,0.0,0.0,0.0,-1.1716,-1.2172,0.0,0.0,-1.5696,-1.6976,-1.6976,-1.7656,-1.8282,-1.8523,-1.8362,-1.7562,-1.5442,0.0,0.0,-1.0597,-0.9562,-0.9214,-0.9703,-0.9744,-1.0426,0.0,0.0,0.0,0.0,0.0,0.0,0.0,0.0,0.0,0.0,0.0,0.0,0.0,0.0,0.0,-2.4927,-2.4476,-2.4836,-2.6279,-2.6762,-2.7363,-2.8185,-2.8566,-2.8757,-2.8757,-2.8757,-2.8757,-2.8757,-2.8757,-2.8757,-2.8757,-2.8664,0.0,0.0,-2.7975,-2.7558,-2.5513,-2.8455,-2.9474,-2.9198,-2.976,-2.9749,-2.9658,0.0,0.0,0.0,0.0,0.0,0.0,-0.6484,-0.6443,-0.6539,-0.6858,-0.7013,-0.757,-0.8844,-0.8128,-0.7694,-0.8058,0.0,0.0,0.0,0.0,0.0,0.0,0.0,0.0,0.0,0.0,0.0,0.0,0.0,0.0,0.0,0.0,0.0,0.0,0.0,0.0,0.0,0.0,0.0,0.0,0.0,0.0,0.0,0.0,0.0,0.0,0.0,0.0,0.0,0.0,0.0,0.0,0.0,0.0,0.0,0.0,-1.5002,-1.6581,-1.639,-1.7284,-1.8282,-1.8451,-1.8021,-1.6908,0.0,0.0,0.0,-0.9743,-0.905,-0.8961,-0.9079,-0.8926,-0.9461,-1.1574,0.0,0.0,0.0,0.0,0.0,0.0,0.0,0.0,0.0,0.0,0.0,0.0,0.0,0.0,-2.5747,-2.534,-2.5655,-2.6938,-2.7178,-2.7772,-2.8757,-2.8757,-2.8757,-2.8757,-2.8757,-2.8528,-2.8032,-2.856,-2.8609,-2.8236,-2.8664,0.0,0.0,-2.8455,-2.7995,-2.5795,-2.893,-3.0034,-2.976,-3.0034,-3.0216,-3.0216,0.0,0.0,0.0,0.0,0.0,0.0,0.0,-0.7239,-0.7372,-0.5905,-0.7045,-0.7933,-0.7815,-0.7561,-0.779,-0.8705,0.0,0.0,0.0,0.0,0.0,0.0,0.0,0.0,0.0,0.0,0.0,0.0,0.0,0.0,0.0,0.0,0.0,0.0,0.0,0.0,0.0,0.0,0.0,0.0,0.0,0.0,0.0,0.0,0.0,0.0,0.0,0.0,0.0,0.0,0.0,0.0,0.0,0.0,0.0,0.0,-1.4104,-1.548,-1.6602,-1.7458,-1.804,-1.804,-1.7184,-1.5857,0.0,0.0,0.0,-0.9578,-0.8716,-0.8574,-0.9419,-0.8893,-0.919,-1.1961,-1.2381,0.0,0.0,0.0,0.0,0.0,0.0,0.0,0.0,0.0,0.0,0.0,0.0,0.0,-2.6145,-2.6651,-2.6949,-2.6959,-2.766,-2.8269,-2.8757,-2.8757,-2.8757,-2.8757,-2.8757,-2.7913,-2.639,-2.8,-2.8072,0.0,0.0,0.0,0.0,-2.9262,-2.9167,-2.8103,-2.9619,-3.0216,-3.0216,-3.0216,-3.0216,-3.0216,0.0,0.0,0.0,0.0,0.0,0.0,0.0,-0.6256,-0.643,-0.6319,-0.6726,-0.7424,-0.845,-0.7935,-0.7927,-0.8848,0.0,0.0,0.0,0.0,0.0,0.0,0.0,0.0,0.0,0.0,0.0,-0.9775,-1.0252,0.0,0.0,0.0,0.0,0.0,0.0,0.0,0.0,0.0,0.0,0.0,0.0,0.0,0.0,0.0,0.0,0.0,0.0,0.0,0.0,0.0,0.0,0.0,0.0,0.0,0.0,0.0,0.0,0.0,-1.4196,-1.4769,-1.5274,-1.5009,-1.4675,-1.3982,-1.2419,0.0,0.0,-0.94,-0.8638,-0.8489,-0.9069,-0.8714,-0.9106,-1.1575,-1.2012,0.0,0.0,0.0,0.0,0.0,0.0,0.0,0.0,0.0,0.0,0.0,0.0,0.0,-2.7066,-2.7233,-2.7233,-2.7421,-2.7934,-2.8384,-2.8488,-2.8664,-2.8757,-2.8757,-2.8757,-2.8094,-2.6746,-2.8283,-2.8331,0.0,0.0,0.0,0.0,-2.9429,-2.9255,-2.8138,-2.963,-3.0216,-3.0216,-3.0216,-3.0216,-3.0216,0.0,0.0,0.0,0.0,0.0,0.0,0.0,-0.612,-0.635,-0.6303,-0.6781,-0.748,-0.8416,-0.7898,-0.7873,-0.8848,0.0,0.0,0.0,0.0,0.0,0.0,0.0,0.0,0.0,0.0,-0.9015,-0.9686,-1.0038,-1.0488,-1.1016,0.0,0.0,0.0,0.0,0.0,0.0,0.0,0.0,0.0,0.0,0.0,-1.4468,0.0,0.0,0.0,0.0,0.0,0.0,0.0,0.0,0.0,0.0,0.0,0.0,0.0,-1.1458,0.0,0.0,-1.3528,-1.3936,-1.3492,-1.3076,0.0,0.0,0.0,0.0,0.0,-0.8964,-0.899,-0.9009,-0.9005,-0.9364,-1.053,-1.2175,0.0,0.0,0.0,0.0,0.0,0.0,0.0,0.0,0.0,0.0,0.0,0.0,0.0,-2.74,-2.7536,-2.7536,-2.7441,-2.8008,-2.829,-2.8395,-2.8664,-2.8757,-2.8757,-2.8757,-2.8094,-2.6843,-2.8374,-2.841,0.0,0.0,0.0,0.0,-2.9747,-2.9665,-2.8919,-2.9848,-3.0216,-3.0216,-3.0216,-3.0216,-3.0216,0.0,0.0,0.0,0.0,0.0,0.0,0.0,0.0,0.0,0.0,-0.7024,-0.7881,-0.7842,-0.7514,-0.7708,0.0,0.0,0.0,0.0,0.0,0.0,0.0,0.0,0.0,0.0,-0.8262,-0.8742,-0.9686,-0.9686,-1.0123,-1.0891,-1.0891,-1.0968,0.0,0.0,0.0,0.0,0.0,0.0,0.0,0.0,0.0,0.0,0.0,0.0,0.0,0.0,0.0,0.0,0.0,0.0,0.0,0.0,0.0,0.0,0.0,0.0,0.0,0.0,0.0,0.0,0.0,0.0,0.0,0.0,0.0,0.0,0.0,0.0,0.0,0.0,-0.9856,-1.0105,-0.9283,0.0,0.0,0.0,0.0,0.0,0.0,0.0,0.0,0.0,0.0,0.0,0.0,0.0,0.0,-2.7357,-2.7715,-2.7809,-2.7347,-2.7809,-2.8092,-2.8301,-2.8571,-2.8702,-2.8604,-2.8713,-2.8039,-2.6593,-2.8318,-2.85,0.0,0.0,0.0,0.0,-3.0216,-3.0216,-3.0216,-3.0216,-3.0216,-3.0306,-3.0306,-3.0306,-3.0476,0.0,0.0,0.0,0.0,0.0,0.0,0.0,0.0,0.0,0.0,-0.6459,-0.6958,-0.7175,-0.7363,-0.763,0.0,0.0,0.0,0.0,0.0,0.0,0.0,0.0,0.0,0.0,-0.8195,-0.8712,-0.9543,-0.9709,-1.0158,-1.0891,-1.0891,-1.093,-1.0968,-1.0919,0.0,0.0,0.0,0.0,0.0,0.0,0.0,0.0,0.0,0.0,0.0,-1.1714,-1.1406,0.0,0.0,0.0,0.0,0.0,0.0,0.0,0.0,-0.971,-1.0052,-1.025,0.0,-1.0479,-1.0006,-0.9536,0.0,0.0,0.0,0.0,0.0,0.0,0.0,0.0,0.0,0.0,0.0,0.0,0.0,0.0,0.0,0.0,0.0,0.0,0.0,0.0,0.0,0.0,0.0,0.0,-2.7536,-2.7547,-2.7809,-2.7998,-2.7809,-2.7904,-2.7904,-2.782,-2.8092,-2.765,-2.67,-2.8141,-2.7502,-2.5367,-2.832,-2.9058,0.0,0.0,0.0,-3.0487,-3.0306,-3.0306,-3.0487,-3.0306,-3.0656,-3.127,-3.127,-3.1701,-3.2376,0.0,0.0,0.0,0.0,0.0,0.0,0.0,0.0,0.0,0.0,0.0,0.0,0.0,0.0,0.0,0.0,0.0,0.0,0.0,0.0,0.0,0.0,0.0,0.0,0.0,-0.8383,-0.887,-0.9509,-0.9828,-1.0297,-1.0891,-1.0891,-1.0891,-1.0891,-1.0968,0.0,0.0,0.0,0.0,0.0,-1.3095,0.0,0.0,0.0,0.0,0.0,-1.1125,-1.0784,0.0,-0.9567,-0.9328,-0.9358,0.0,0.0,0.0,0.0,-0.9293,-0.9503,-0.9384,-0.9546,-0.9676,-0.9629,-0.9213,-0.8915,0.0,0.0,0.0,0.0,0.0,0.0,0.0,0.0,0.0,0.0,0.0,0.0,0.0,0.0,0.0,0.0,0.0,0.0,0.0,0.0,0.0,0.0,0.0,-2.7631,-2.7631,-2.8008,-2.8196,-2.8196,-2.8269,-2.8175,-2.782,-2.8186,-2.7661,-2.6292,-2.8149,-2.8033,-2.6181,-2.8743,-2.9533,0.0,0.0,0.0,-3.0339,-2.9569,-2.9685,-3.0476,-3.0746,-3.1181,-3.1625,-3.2052,-3.2562,-3.3066,0.0,0.0,0.0,0.0,0.0,0.0,0.0,0.0,0.0,0.0,0.0,0.0,0.0,0.0,0.0,0.0,0.0,0.0,0.0,0.0,0.0,0.0,0.0,0.0,-0.8093,-0.8653,-0.9098,-0.9509,-0.9973,-1.0438,-1.0891,-1.0891,-1.0961,-1.1023,-1.1187,-1.1545,-1.2007,-1.1647,0.0,0.0,-1.2658,0.0,0.0,0.0,0.0,0.0,0.0,0.0,0.0,-0.9134,-0.901,-0.9129,-0.8593,0.0,0.0,0.0,0.0,0.0,-0.9287,-0.9658,-1.0094,-1.0539,-0.9919,-0.9459,0.0,0.0,0.0,0.0,0.0,0.0,0.0,0.0,0.0,0.0,0.0,0.0,0.0,0.0,0.0,0.0,0.0,0.0,0.0,0.0,0.0,0.0,0.0,-2.7726,-2.782,-2.829,-2.8581,-2.8581,-2.8642,-2.8549,-2.8186,-2.856,-2.8025,-2.653,-2.851,-2.8802,-2.7601,-2.9194,-3.0057,-3.0147,0.0,0.0,-3.0214,-2.885,-2.9242,-3.0644,-3.1347,-3.1789,-3.214,-3.298,-3.3322,-3.3505,0.0,0.0,0.0,0.0,0.0,0.0,0.0,0.0,0.0,0.0,0.0,0.0,0.0,0.0,0.0,0.0,0.0,0.0,0.0,0.0,0.0,0.0,0.0,0.0,-0.8093,-0.8672,-0.9151,-0.9509,-1.0033,-1.05,-1.0891,-1.0891,-1.1165,-1.1688,-1.1747,-1.2093,-1.2634,-1.216,-1.2362,-1.2925,-1.2846,0.0,0.0,0.0,0.0,0.0,0.0,0.0,0.0,-0.8776,-0.9226,-1.003,-0.8121,0.0,0.0,0.0,0.0,0.0,-0.9861,-1.0438,-1.094,-1.1129,-1.0498,-1.0076,-1.0844,0.0,0.0,0.0,0.0,0.0,0.0,0.0,0.0,0.0,0.0,0.0,0.0,0.0,0.0,0.0,0.0,0.0,0.0,0.0,0.0,0.0,0.0,-2.8395,-2.8571,-2.9024,-2.9301,-2.9301,-2.9117,-2.9035,-2.8943,-2.8828,-2.8014,-2.6713,-2.86,-2.8791,-2.7471,-2.9349,-3.0125,-3.0204,0.0,-3.0279,-3.0859,-3.0154,-3.0779,-3.219,-3.1916,-3.2857,-3.4249,-3.4415,-3.4759,-3.5291,0.0,0.0,0.0,0.0,0.0,0.0,0.0,0.0,0.0,0.0,0.0,0.0,0.0,0.0,0.0,0.0,0.0,0.0,0.0,0.0,0.0,0.0,-0.847,-0.85,-0.854,-0.9004,-0.945,-0.9881,-1.0077,-1.0417,-1.0891,-1.0891,-1.1235,-1.1773,-1.157,-1.1757,-1.2242,-1.1862,-1.2157,-1.2784,0.0,0.0,0.0,0.0,0.0,0.0,0.0,0.0,0.0,0.0,-0.893,-0.9257,-0.8257,0.0,0.0,0.0,0.0,0.0,-0.9785,-1.0529,-1.1528,-1.3432,-1.2686,-1.2086,-1.4516,0.0,0.0,0.0,0.0,0.0,0.0,0.0,0.0,0.0,0.0,0.0,0.0,0.0,0.0,0.0,0.0,0.0,0.0,0.0,0.0,0.0,0.0,0.0,-2.8943,-2.9405,-2.9556,-2.9274,-2.9286,-2.9162,-2.8868,-2.8768,-2.812,-2.696,-2.8959,-2.9158,-2.7759,-2.9427,-3.0216,-3.017,0.0,-2.9558,-3.0531,-2.9921,-3.0659,-3.2127,-3.3041,-3.3901,-3.4607,-3.5032,-3.5453,-3.571,0.0,0.0,0.0,0.0,0.0,0.0,0.0,0.0,0.0,0.0,0.0,0.0,0.0,0.0,0.0,0.0,0.0,0.0,0.0,0.0,-0.8723,-0.8952,-0.9065,-0.9075,-0.9004,-0.9414,-0.9764,-0.999,-1.0206,-1.0582,-1.1113,-1.1227,-1.1535,-1.1931,-1.1478,-1.153,-1.1961,-1.1662,-1.1955,-1.2496,0.0,0.0,0.0,0.0,0.0,0.0,0.0,0.0,0.0,0.0,0.0,0.0,0.0,0.0,0.0,-0.8648,-0.8811,-0.9194,-0.9787,-1.0635,-1.2095,-1.5111,0.0,-1.3635,-1.762,0.0,0.0,0.0,0.0,0.0,0.0,0.0,0.0,0.0,0.0,0.0,0.0,0.0,0.0,0.0,0.0,0.0,0.0,0.0,0.0,0.0,0.0,0.0,-2.9312,-2.959,-2.9624,-2.9215,-2.9278,-2.9114,-2.87,-2.87,-2.8334,-2.7543,-2.9121,-2.9263,-2.8184,-2.9332,-2.986,-2.9802,-2.8643,-2.8965,-3.0202,-2.9797,-3.0639,-3.2376,-3.4017,-3.4772,-3.4895,-3.5467,-3.571,-3.571,0.0,0.0,0.0,0.0,0.0,0.0,0.0,0.0,0.0,0.0,0.0,0.0,0.0,0.0,0.0,0.0,0.0,0.0,0.0,0.0,-0.9831,-0.9722,-1.0146,-1.004,-0.9389,-0.9827,-0.9848,-0.9463,-1.037,-1.1134,-1.1752,-1.2256,-1.2478,-1.2415,-1.2012,-1.2075,-1.2447,-1.2173,-1.1972,-1.1834,-1.1616,0.0,0.0,0.0,0.0,0.0,0.0,0.0,0.0,0.0,0.0,0.0,0.0,0.0,-0.892,-0.8593,-0.9018,-0.967,-1.0229,-1.1277,-1.268,-1.4697,-1.3672,0.0,-1.7937,0.0,0.0,0.0,0.0,0.0,0.0,0.0,0.0,0.0,0.0,0.0,0.0,0.0,0.0,0.0,0.0,0.0,0.0,0.0,0.0,0.0,0.0,0.0,-2.9794,-2.9635,-2.9538,-2.9493,-2.901,-2.8735,-2.87,-2.87,-2.8677,-2.8557,-2.8758,-2.8746,-2.8643,-2.8758,-2.8804,-2.8804,-2.8689,-2.9289,-3.0338,-3.064,-3.2006,-3.3979,-3.4534,-3.5196,-3.5992,-3.5804,-3.571,-3.571,0.0,0.0,0.0,0.0,0.0,0.0,0.0,0.0,0.0,0.0,0.0,0.0,0.0,0.0,0.0,0.0,0.0,0.0,0.0,0.0,-0.9979,-1.0175,-1.0249,-1.0313,-1.0345,-1.019,-1.019,-1.0319,-1.11,-1.1389,-1.1323,-1.1865,0.0,0.0,-1.1483,-1.1339,-1.1445,-1.1485,-1.128,-1.092,-1.0959,-1.0594,0.0,0.0,0.0,0.0,0.0,0.0,0.0,0.0,-0.8458,-0.8552,0.0,-0.8633,-0.9007,-0.927,-0.9479,-0.9804,-1.0803,-1.1637,-1.3032,-1.6294,0.0,0.0,0.0,0.0,0.0,0.0,0.0,0.0,0.0,0.0,0.0,0.0,0.0,0.0,0.0,0.0,0.0,0.0,0.0,0.0,0.0,0.0,0.0,0.0,0.0,0.0,-2.911,-2.9026,-2.8861,-2.8563,-2.8356,-2.8103,-2.7793,-2.8339,-2.8574,-2.8574,-2.9236,-2.9543,-2.9543,-3.0037,-3.0276,-3.0276,-3.0276,-3.0443,-3.0951,-3.1644,-3.2465,-3.3251,-3.434,-3.5087,-3.5566,-3.5668,-3.571,-3.571,0.0,0.0,0.0,0.0,0.0,0.0,0.0,0.0,0.0,0.0,0.0,0.0,0.0,0.0,0.0,0.0,0.0,0.0,0.0,0.0,-1.0347,-1.0697,-1.0589,-1.0662,-1.0964,-1.0497,-1.0389,-1.0664,-1.141,-1.1732,-1.1722,-1.2078,0.0,0.0,0.0,0.0,0.0,-1.1086,-1.0835,-1.0393,-1.0454,-1.0144,0.0,0.0,0.0,0.0,0.0,0.0,0.0,0.0,-0.8735,0.0,0.0,0.0,0.0,-0.9733,-0.9954,-1.0166,-1.0793,-1.154,-1.2984,0.0,0.0,0.0,0.0,0.0,0.0,0.0,0.0,0.0,0.0,0.0,0.0,0.0,0.0,0.0,0.0,0.0,0.0,0.0,0.0,0.0,0.0,0.0,0.0,0.0,0.0,0.0,0.0,-2.8551,-2.8322,-2.7989,-2.7828,-2.7575,-2.7231,-2.8075,-2.8462,-2.8474,-2.9751,-3.0188,-2.9955,-3.0512,-3.0753,-3.0753,-3.0753,-3.0901,-3.1153,-3.1979,-3.2646,-3.3093,-3.4146,-3.4648,-3.4794,-3.5018,-3.5276,-3.5438,0.0,0.0,0.0,0.0,0.0,0.0,0.0,0.0,0.0,0.0,0.0,0.0,0.0,0.0,0.0,0.0,0.0,0.0,0.0,-1.0574,-1.1102,-1.141,-1.1276,-1.1164,-1.1092,-1.0784,-1.0446,-1.0108,-1.1186,-1.2236,-1.3297,-1.3163,0.0,0.0,0.0,0.0,0.0,0.0,-1.0825,-1.0376,-1.0244,-0.9808,-0.9154,0.0,0.0,0.0,0.0,0.0,0.0,0.0,-0.9499,0.0,0.0,0.0,0.0,-0.979,-1.0395,-1.0839,-1.0066,-1.0963,0.0,0.0,0.0,0.0,0.0,0.0,0.0,0.0,0.0,0.0,0.0,0.0,0.0,0.0,0.0,0.0,0.0,0.0,0.0,0.0,0.0,0.0,0.0,0.0,0.0,0.0,0.0,0.0,0.0,-2.823,-2.7977,-2.7977,-2.7495,-2.7231,-2.7231,-2.8075,-2.8542,-2.8542,-3.0139,-3.0519,-2.9704,-2.9704,-2.9704,-2.9704,-2.9704,-3.0152,-3.0934,-3.1535,-3.2601,-3.3856,-3.3856,-3.3869,-3.3856,-3.3869,-3.4248,-3.4828,0.0,0.0,0.0,0.0,0.0,0.0,0.0,0.0,0.0,0.0,0.0,0.0,0.0,0.0,0.0,0.0,0.0,0.0,0.0,-1.1006,-1.1318,-1.1384,-1.1233,-1.112,-1.1092,-1.0919,-1.0915,-1.1168,-1.1901,-1.2425,0.0,0.0,0.0,-1.1922,0.0,0.0,0.0,0.0,0.0,0.0,-0.9739,-0.936,-0.9165,0.0,0.0,0.0,0.0,0.0,0.0,0.0,0.0,0.0,0.0,0.0,0.0,-1.1865,-1.1605,-1.1131,-1.3032,0.0,0.0,0.0,0.0,0.0,0.0,0.0,0.0,0.0,0.0,0.0,0.0,0.0,0.0,0.0,0.0,0.0,0.0,0.0,0.0,0.0,0.0,0.0,0.0,0.0,0.0,0.0,0.0,0.0,0.0,-2.7529,-2.7461,-2.7461,-2.73,-2.7452,-2.8075,-2.8924,-2.9614,-3.0203,-3.1307,-3.1381,-3.0594,-3.1158,-3.1482,-3.1482,-3.1482,-3.1629,-3.1863,-3.2245,-3.2714,-3.3065,-3.349,-3.352,-3.3376,-3.3797,-3.3977,-3.414,0.0,0.0,0.0,0.0,0.0,0.0,0.0,0.0,0.0,0.0,0.0,0.0,0.0,0.0,0.0,0.0,0.0,0.0,0.0,0.0,-1.1346,-1.1282,-1.1168,-1.1044,-1.0995,-1.1173,-1.1352,-1.1612,-1.1975,0.0,0.0,0.0,-1.2325,-1.2045,0.0,-1.2315,0.0,0.0,0.0,0.0,-0.9526,-0.9213,-0.9032,0.0,0.0,0.0,0.0,0.0,0.0,0.0,0.0,0.0,0.0,0.0,0.0,-1.2185,-1.2368,-1.2754,-1.4378,0.0,0.0,0.0,0.0,0.0,0.0,0.0,0.0,0.0,0.0,0.0,0.0,0.0,0.0,0.0,0.0,0.0,0.0,0.0,0.0,0.0,0.0,0.0,0.0,0.0,0.0,0.0,0.0,0.0,0.0,-2.7534,-2.7696,-2.7696,-2.7995,-2.8462,-2.9003,-2.9768,-3.0443,-3.0895,-3.1776,-3.1996,-3.1649,-3.1996,-3.2182,-3.2182,-3.2182,-3.2241,-3.2444,-3.2632,-3.2775,-3.2945,-3.332,-3.3329,-3.3166,-3.3389,-3.3602,-3.3731,0.0,0.0,0.0,0.0,0.0,0.0,0.0,0.0,0.0,0.0,0.0,0.0,0.0,0.0,0.0,0.0,0.0,0.0,0.0,0.0,-1.1207,-1.1019,-1.1103,-1.1058,-1.0884,-1.1483,-1.1743,-1.1612,-1.1612,0.0,0.0,0.0,-1.2758,-1.2793,0.0,-1.2047,0.0,0.0,0.0,-0.9764,-0.9495,-0.9175,-0.8884,-0.8939,0.0,0.0,0.0,0.0,0.0,0.0,0.0,0.0,0.0,0.0,-1.3454,-1.1388,-1.2789,-1.4924,0.0,0.0,0.0,0.0,0.0,0.0,0.0,0.0,0.0,0.0,0.0,0.0,0.0,0.0,0.0,0.0,0.0,0.0,0.0,0.0,0.0,0.0,0.0,0.0,0.0,0.0,0.0,0.0,0.0,0.0,0.0,-2.7995,-2.8462,-2.8462,-2.9316,-2.9704,-2.9781,-3.0519,-3.097,-3.1044,-3.185,-3.2444,-3.2704,-3.2372,-3.2255,-3.2255,-3.2255,-3.2444,-3.2775,-3.2775,-3.2988,-3.3339,-3.3339,-3.3339,-3.3269,-3.2917,-3.3049,-3.3445,0.0,0.0,0.0,0.0,0.0,0.0,0.0,0.0,0.0,0.0,0.0,0.0,0.0,0.0,0.0,0.0,0.0,0.0,0.0,0.0,-1.036,-1.0324,-1.1169,-1.1596,-1.1426,-1.169,-1.1743,-1.1612,-1.1612,0.0,0.0,0.0,0.0,-1.1944,0.0,-1.2613,0.0,0.0,0.0,-1.031,-0.9052,-0.8909,-0.9359,-0.8713,-0.8656,0.0,0.0,0.0,0.0,0.0,0.0,0.0,-0.9187,-0.9863,-1.081,-1.192,-1.302,-1.4327,0.0,0.0,0.0,0.0,0.0,0.0,0.0,0.0,0.0,0.0,0.0,0.0,0.0,0.0,0.0,0.0,0.0,0.0,0.0,0.0,0.0,0.0,0.0,0.0,0.0,0.0,0.0,0.0,0.0,0.0,-2.7231,-2.7995,-2.8462,-2.8462,-2.9316,-2.9999,-3.067,-3.082,-3.1341,0.0,-3.2489,-3.2632,-3.2704,-3.2372,-3.23,-3.2561,-3.2561,-3.2988,-3.3563,-3.3563,-3.3632,-3.3701,-3.3701,-3.3548,-3.3269,-3.3199,-3.3071,-3.2897,0.0,0.0,0.0,0.0,0.0,0.0,0.0,0.0,0.0,0.0,0.0,0.0,0.0,0.0,0.0,0.0,0.0,0.0,0.0,0.0,0.0,0.0,-1.0671,-1.1061,-1.1261,-1.135,-1.13,-1.1211,0.0,0.0,0.0,0.0,0.0,-1.2131,0.0,-1.2235,0.0,0.0,0.0,-0.9798,-0.8909,-0.8872,-0.9306,-0.8822,-0.8789,-0.8994,-0.8955,0.0,0.0,0.0,0.0,0.0,0.0,0.0,-1.1069,-1.1263,-1.237,-1.3937,0.0,0.0,0.0,0.0,0.0,0.0,0.0,0.0,0.0,0.0,0.0,0.0,0.0,0.0,0.0,0.0,0.0,0.0,0.0,0.0,0.0,0.0,0.0,0.0,0.0,0.0,0.0,0.0,0.0,-2.8199,-2.7846,-2.9147,-2.9833,-2.9679,-3.0469,-3.1084,-3.1529,-3.1663,-3.2101,-3.2704,-3.2917,-3.2988,-3.2988,-3.2574,-3.2646,-3.2988,-3.2988,-3.3269,-3.377,-3.377,-3.3908,-3.4059,-3.4059,-3.3991,-3.377,-3.3632,-3.3339,-3.2988,0.0,0.0,0.0,0.0,0.0,0.0,0.0,0.0,0.0,0.0,0.0,0.0,0.0,0.0,0.0,0.0,0.0,0.0,0.0,0.0,0.0,0.0,-1.0288,-1.0561,-1.0881,-1.1002,-1.0953,-1.0784,0.0,0.0,0.0,0.0,0.0,-1.2744,0.0,0.0,0.0,0.0,0.0,-0.9124,-0.8948,-0.899,-0.9179,-0.8962,-0.8984,-0.9068,-0.8911,-0.8878,-0.885,-0.8745,0.0,0.0,0.0,0.0,-1.1669,-1.0141,-1.1446,-1.3517,0.0,0.0,0.0,0.0,0.0,0.0,0.0,0.0,0.0,0.0,0.0,0.0,0.0,0.0,0.0,0.0,0.0,0.0,0.0,0.0,0.0,0.0,0.0,0.0,0.0,0.0,0.0,0.0,0.0,-2.9397,-2.89,-3.0581,-3.1429,-3.1044,-3.1909,-3.2386,-3.2314,-3.2646,-3.2846,-3.2917,-3.3199,-3.3353,-3.3254,-3.2905,-3.2961,-3.3409,-3.3409,-3.3563,-3.3908,-3.3908,-3.4128,-3.4414,-3.4414,-3.4414,-3.4346,-3.3991,-3.3632,-3.3269,0.0,0.0,0.0,0.0,0.0,0.0,0.0,0.0,0.0,0.0,0.0,0.0,0.0,0.0,0.0,0.0,0.0,0.0,-0.8522,0.0,0.0,-0.999,-1.102,-1.1318,-1.0833,-1.1371,-1.1331,0.0,0.0,0.0,0.0,0.0,0.0,-1.3455,0.0,0.0,0.0,0.0,0.0,0.0,-0.9141,-0.924,-0.9455,-0.8678,-0.8861,-0.9444,-0.8911,-0.8728,-0.8717,-0.869,-0.8717,0.0,0.0,0.0,-0.9425,-0.9264,-1.0987,0.0,0.0,0.0,0.0,0.0,0.0,0.0,0.0,0.0,0.0,0.0,0.0,0.0,0.0,0.0,0.0,0.0,0.0,0.0,0.0,0.0,0.0,0.0,0.0,0.0,0.0,0.0,0.0,0.0,-2.9462,-2.9834,-3.0428,-3.1422,-3.1769,-3.1429,-3.2547,-3.3002,-3.2632,-3.2988,-3.3339,-3.3632,-3.3701,-3.3554,-3.3174,-3.2823,-3.3053,-3.3701,-3.3701,-3.3977,-3.4346,-3.4346,-3.4346,-3.4414,-3.4414,-3.4414,-3.4346,-3.4128,-3.377,-3.3269,0.0,0.0,0.0,0.0,0.0,0.0,0.0,0.0,0.0,0.0,0.0,0.0,0.0,0.0,0.0,-0.9566,-0.9263,-0.9007,-0.8829,-0.8964,-0.9372,-1.0016,-1.0561,-1.0847,-1.0881,-1.1144,-1.1144,0.0,0.0,0.0,0.0,-1.4912,-1.4829,0.0,0.0,0.0,0.0,0.0,0.0,0.0,0.0,0.0,0.0,-0.9229,-0.9204,-0.9474,-0.886,-0.8645,-0.8645,-0.8645,-0.8728,-0.8811,-0.8916,0.0,0.0,0.0,0.0,0.0,0.0,0.0,0.0,0.0,0.0,0.0,0.0,0.0,0.0,0.0,0.0,0.0,0.0,0.0,0.0,0.0,0.0,0.0,0.0,0.0,0.0,0.0,0.0,0.0,0.0,0.0,0.0,0.0,-3.1114,-3.1569,-3.1496,-3.2478,-3.2875,-3.2533,-3.3044,-3.3199,-3.3058,-3.3283,-3.3591,-3.3868,-3.3496,-3.3436,-3.3681,-3.2697,-3.2473,-3.2811,-3.3235,-3.3528,-3.3772,-3.4201,-3.4414,-3.4414,-3.4264,-3.4196,-3.4196,-3.4074,-3.3577,-3.2917,0.0,0.0,0.0,0.0,0.0,0.0,0.0,0.0,0.0,0.0,0.0,0.0,0.0,0.0,0.0,0.0,-0.9154,-0.9179,-0.9308,-0.9239,-0.9532,-1.0262,-1.0236,-1.0436,-1.0881,-1.0919,0.0,0.0,0.0,0.0,-1.5802,-1.6009,-1.6065,0.0,-1.5919,0.0,0.0,0.0,0.0,0.0,0.0,0.0,0.0,-0.9813,-0.9715,-0.9748,-0.9032,-0.8785,-0.8764,-0.8689,-0.8795,-0.8905,-0.8933,-0.8971,0.0,0.0,0.0,0.0,0.0,0.0,0.0,0.0,0.0,0.0,0.0,0.0,0.0,0.0,0.0,0.0,0.0,0.0,0.0,0.0,0.0,0.0,0.0,0.0,0.0,0.0,0.0,0.0,0.0,0.0,0.0,0.0,-3.2536,-3.3003,-3.2621,-3.3451,-3.377,-3.3409,-3.3548,-3.3548,-3.3409,-3.3646,-3.3813,-3.3882,-3.345,-3.3378,-3.3786,-3.2772,-3.2105,-3.1718,-3.2542,-3.2881,-3.2924,-3.3705,-3.4033,-3.4114,-3.407,-3.4128,-3.4059,-3.3951,-3.3452,-3.2846,0.0,0.0,0.0,0.0,0.0,0.0,0.0,0.0,0.0,0.0,0.0,0.0,-0.9926,-0.9895,-0.9775,-0.9422,-0.9278,-0.9333,-0.9662,-0.9718,-1.0053,-1.0733,-1.0629,0.0,-1.0891,-1.0964,0.0,0.0,0.0,0.0,-1.4797,-1.5538,-1.6505,-1.751,-1.577,-1.5244,-1.5609,0.0,0.0,0.0,0.0,0.0,0.0,0.0,0.0,0.0,0.0,-0.9256,-0.921,-0.8979,-0.8878,-0.8933,-0.9054,-0.9092,-0.9092,0.0,0.0,0.0,0.0,0.0,0.0,0.0,0.0,0.0,0.0,0.0,0.0,0.0,0.0,0.0,0.0,0.0,0.0,0.0,0.0,0.0,0.0,0.0,0.0,0.0,0.0,0.0,0.0,0.0,0.0,0.0,-3.3143,-3.352,-3.4264,-3.4332,-3.4196,-3.377,-3.4128,-3.4128,-3.377,-3.3991,-3.4005,-3.3896,-3.3962,-3.3647,-3.2954,-3.3097,-3.2291,-3.0935,-3.1689,-3.209,-3.2082,-3.2697,-3.3102,-3.3293,-3.3897,-3.4128,-3.4059,-3.3951,-3.3605,-3.3171,0.0,0.0,0.0,0.0,0.0,0.0,0.0,0.0,0.0,0.0,0.0,0.0,0.0,-0.9961,-0.998,-0.9499,-0.9445,-0.9685,-1.022,-0.9901,-0.9977,-1.0661,-1.028,-1.027,-1.0718,-1.0744,0.0,0.0,0.0,-1.2396,-1.3942,-1.416,-1.4751,-1.5825,-1.7723,-1.7233,-1.5022,-1.6351,0.0,0.0,0.0,0.0,0.0,0.0,0.0,0.0,0.0,0.0,0.0,-0.9966,-0.93,-0.8955,-0.8971,-0.8999,-0.9078,0.0,0.0,0.0,0.0,0.0,0.0,0.0,0.0,0.0,0.0,0.0,0.0,0.0,0.0,0.0,0.0,0.0,0.0,0.0,0.0,0.0,0.0,0.0,0.0,0.0,0.0,0.0,0.0,0.0,0.0,0.0,0.0,-3.27,-3.4356,-3.3187,-3.3006,-3.4167,-3.4196,-3.3991,-3.366,-3.373,-3.3675,-3.3536,-3.366,-3.3616,-3.332,-3.3097,-3.2373,-3.1367,-3.1261,-3.124,-3.1297,-3.1989,-3.262,-3.3006,-3.3182,-3.3457,-3.373,-3.3605,-3.3241,-3.286,0.0,0.0,0.0,0.0,0.0,0.0,0.0,0.0,0.0,-1.0254,0.0,0.0,0.0,0.0,-1.0103,-0.9642,-0.9632,-0.9801,-1.014,-0.9799,-0.9875,-1.0559,-1.0167,-1.0255,-1.0902,-1.0761,0.0,0.0,0.0,0.0,0.0,-1.3107,-1.3693,-1.4762,-1.7746,-1.7855,0.0,0.0,0.0,-1.4316,0.0,0.0,-1.3345,0.0,0.0,0.0,0.0,0.0,0.0,0.0,-1.1229,-1.0284,0.0,0.0,0.0,0.0,0.0,0.0,0.0,0.0,0.0,0.0,0.0,0.0,0.0,0.0,0.0,0.0,0.0,0.0,0.0,0.0,0.0,0.0,0.0,0.0,0.0,0.0,0.0,0.0,0.0,0.0,0.0,0.0,0.0,0.0,0.0,0.0,-3.4341,-3.3078,-3.2912,-3.4182,-3.4074,-3.3868,-3.3605,-3.3605,-3.3466,-3.3326,-3.3466,-3.3605,-3.366,-3.3371,-3.283,-3.2188,-3.1432,-3.0857,-3.0453,-3.1204,-3.1895,-3.2478,-3.2667,-3.3067,-3.3605,-3.3466,-3.3157,-3.286,0.0,0.0,0.0,0.0,0.0,0.0,0.0,0.0,-1.057,-1.0745,0.0,0.0,0.0,0.0,0.0,-0.9862,-0.9763,-0.964,-0.9386,-0.9443,-0.9818,-1.0489,-1.0383,-1.0655,-1.1461,-1.1034,-1.0793,0.0,0.0,0.0,0.0,0.0,-1.3455,-1.4619,-1.5351,-1.6776,-1.8556,0.0,-1.9258,-1.8957,0.0,-1.7224,-1.6461,0.0,0.0,0.0,-1.6588,-1.5886,0.0,-1.5785,0.0,0.0,0.0,0.0,0.0,0.0,0.0,0.0,0.0,0.0,0.0,0.0,0.0,0.0,0.0,0.0,0.0,0.0,0.0,0.0,0.0,0.0,0.0,0.0,0.0,0.0,0.0,0.0,0.0,0.0,0.0,0.0,0.0,0.0,0.0,0.0,-3.4356,-3.4288,-3.4414,-3.4196,-3.4005,-3.3896,-3.3896,-3.3827,-3.3605,-3.3605,-3.3466,-3.3326,-3.3466,-3.3675,-3.3896,-3.3896,-3.3607,-3.3082,-3.2136,-3.0912,-2.9715,-3.0291,-3.096,-3.1806,-3.2443,-3.3067,-3.3605,-3.3605,-3.3466,-3.3241,0.0,0.0,0.0,0.0,0.0,0.0,-1.0542,-1.0344,-1.02,0.0,0.0,0.0,-1.0059,-1.0443,-1.0686,-1.0673,-1.0594,-1.0583,-1.0583,-1.0222,-1.0277,-1.0908,-1.0553,-1.0487,-1.0687,-1.0565,-1.0298,0.0,0.0,0.0,0.0,0.0,0.0,0.0,-1.2997,-1.3989,-1.4744,-1.8032,0.0,0.0,-1.956,-1.8347,0.0,0.0,0.0,0.0,0.0,-1.7697,-1.6918,0.0,-1.6209,-1.338,0.0,0.0,0.0,0.0,0.0,0.0,-1.2189,0.0,0.0,0.0,0.0,0.0,0.0,0.0,0.0,0.0,0.0,0.0,0.0,0.0,0.0,0.0,0.0,0.0,0.0,0.0,0.0,0.0,0.0,0.0,0.0,0.0,0.0,0.0,-3.2715,-3.2425,-3.3948,-3.3951,-3.3882,-3.3675,-3.3675,-3.3605,-3.3396,-3.3396,-3.3396,-3.3326,-3.3396,-3.3396,-3.3466,-3.3605,-3.3265,-3.2588,-3.2486,-3.1895,-3.0951,-3.0642,-3.1162,-3.2227,-3.241,-3.2847,-3.3396,-3.3396,-3.3326,-3.3241,0.0,0.0,0.0,0.0,0.0,-1.0764,-1.0362,-1.0059,-0.9874,0.0,0.0,0.0,-1.0341,-1.0661,-1.0783,-1.0597,-1.0564,-1.0586,-1.0631,-1.0355,-1.0443,-1.108,-1.0833,-1.0832,-1.1103,-1.0844,-1.053,0.0,0.0,0.0,0.0,0.0,0.0,0.0,0.0,0.0,0.0,0.0,0.0,0.0,-1.925,0.0,0.0,-2.0317,-1.9983,0.0,0.0,0.0,-1.9993,-2.1445,-1.9289,0.0,0.0,0.0,0.0,0.0,0.0,0.0,0.0,0.0,0.0,0.0,0.0,0.0,-1.265,-1.5905,0.0,0.0,0.0,0.0,0.0,0.0,0.0,0.0,0.0,0.0,0.0,0.0,0.0,0.0,0.0,0.0,0.0,-3.402,-3.3951,-3.4005,-3.2854,-3.2592,-3.3687,-3.3758,-3.3675,-3.3466,-3.3466,-3.3396,-3.3326,-3.3326,-3.3326,-3.3326,-3.3326,-3.3326,-3.3466,-3.3466,-3.3338,-3.2984,-3.273,-3.2492,-3.2351,-3.1569,-3.1738,-3.2412,-3.2412,-3.2778,-3.3326,-3.3326,-3.3326,-3.3255,0.0,0.0,-1.059,-1.0622,-1.0375,-1.0223,-1.0331,-0.9971,-0.9816,0.0,-1.0349,-1.0562,-1.0756,-1.0747,-1.0561,-1.0135,-1.0157,-1.0179,-1.0201,-1.0179,-1.0465,-1.1135,-1.1158,-1.1431,-1.1985,-1.1398,-1.1115,0.0,0.0,0.0,0.0,0.0,0.0,0.0,0.0,0.0,0.0,0.0,0.0,-1.8649,-1.7956,-1.9924,0.0,0.0,-2.1942,0.0,-2.4696,-2.4436,-2.3006,-2.5116,-2.2912,0.0,0.0,0.0,0.0,0.0,-1.3933,0.0,0.0,0.0,0.0,0.0,0.0,0.0,-1.2567,-1.6821,-2.1211,0.0,0.0,0.0,0.0,0.0,0.0,0.0,0.0,0.0,0.0,0.0,0.0,0.0,0.0,0.0,-3.3896,-3.3896,-3.3827,-3.3896,-3.3896,-3.3744,-3.3605,-3.3536,-3.3466,-3.3326,-3.3326,-3.3326,-3.3326,-3.3326,-3.3326,-3.3326,-3.3326,-3.3396,-3.3536,-3.3396,-3.3466,-3.3785,-3.2887,-3.2889,-3.3493,-3.2804,-3.2511,-3.2511,-3.2511,-3.2848,-3.3326,-3.3326,-3.3326,-3.3326,-1.069,0.0,-1.1272,-1.1382,-1.1294,-1.1227,-1.1227,-1.1081,-1.0945,-1.0945,-1.0687,-1.0554,-1.0699,-1.0497,-1.041,-1.0627,-1.0625,-1.0799,-1.1336,-1.0948,-1.0948,-1.1564,-1.1637,-1.1539,-1.1295,-1.1159,-1.0945,-1.0658,0.0,0.0,0.0,0.0,0.0,0.0,0.0,0.0,0.0,0.0,0.0,-1.4786,-1.816,0.0,-2.0018,-2.352,-2.2918,-2.0652,-2.5075,-2.5349,-2.3622,0.0,-2.3768,-2.2474,0.0,0.0,0.0,0.0,0.0,0.0,0.0,0.0,0.0,0.0,0.0,0.0,-1.2461,-1.3444,-1.524,0.0,0.0,0.0,0.0,0.0,0.0,0.0,0.0,0.0,0.0,0.0,0.0,0.0,0.0,0.0,-3.3991,-3.366,-3.3536,-3.3896,-3.3605,-3.3396,-3.3396,-3.3396,-3.3326,-3.3326,-3.3326,-3.3326,-3.3326,-3.3326,-3.3326,-3.3326,-3.3326,-3.3326,-3.3396,-3.3326,-3.3326,-3.3382,-3.3199,-3.3213,-3.3312,-3.3199,-3.3143,-3.3143,-3.3143,-3.3213,-3.3326,-3.3326,-3.3326,-3.3255,-1.081,0.0,-1.1275,-1.1465,-1.1158,-1.1032,-1.1443,-1.1079,-1.0652,-1.0436,-1.0274,-1.0421,-1.1088,-1.0783,-1.0664,-1.0977,-1.0709,-1.0641,-1.0895,-1.0606,-1.0608,-1.093,-1.093,-1.0888,-1.0798,-1.0699,-1.0608,-1.0553,0.0,0.0,0.0,0.0,0.0,0.0,0.0,0.0,0.0,0.0,-1.1155,-1.3993,-1.7197,0.0,-2.0791,-2.4331,-2.4695,-2.3634,-2.6296,-2.6815,-2.5973,-2.4903,-2.4474,0.0,0.0,-1.8846,-1.6532,0.0,-1.3964,-1.3198,0.0,0.0,0.0,-1.2401,0.0,0.0,0.0,-1.3925,-1.5724,-1.7705,0.0,0.0,0.0,0.0,0.0,0.0,0.0,0.0,0.0,0.0,0.0,0.0,0.0,0.0,-3.366,-3.3452,-3.3396,-3.3605,-3.3396,-3.3326,-3.3326,-3.3326,-3.3326,-3.3326,-3.3326,-3.3326,-3.3326,-3.3326,-3.3326,-3.3326,-3.3326,-3.3326,-3.3326,-3.3326,-3.3326,-3.3326,-3.3326,-3.3326,-3.3326,-3.3326,-3.3326,-3.3326,-3.3326,-3.3326,-3.3326,-3.3326,-3.3171,-3.3002,-1.1487,0.0,-1.1343,-1.1487,-1.0975,-1.0704,-1.1141,-1.0816,-1.0425,-1.0109,-1.0186,-1.0854,-1.2329,-1.1543,-1.1239,-1.2105,-1.1399,-1.0743,-1.0311,-1.0531,-1.0553,-1.0232,-1.0167,-1.0264,-1.0478,-1.0318,-1.035,-1.0628,-1.0532,0.0,0.0,0.0,0.0,0.0,0.0,0.0,0.0,0.0,0.0,-1.5562,0.0,-1.9455,-2.1917,-2.4921,-2.6172,-2.6454,-2.75,-2.815,-2.8162,-2.5913,0.0,-2.4312,-2.4023,-2.0733,0.0,0.0,0.0,0.0,0.0,0.0,0.0,0.0,0.0,-1.252,0.0,0.0,0.0,-1.7086,0.0,0.0,0.0,0.0,0.0,0.0,0.0,0.0,0.0,0.0,0.0,0.0,0.0,0.0,0.0,-3.2258,-3.2806,-3.3283,-3.3326,-3.3326,-3.3326,-3.3326,-3.3326,-3.3326,-3.3326,-3.3326,-3.3326,-3.3326,-3.3326,-3.3326,-3.3326,-3.3326,-3.3326,-3.3326,-3.3326,-3.3326,-3.3326,-3.3326,-3.3326,-3.3326,-3.3326,-3.3326,-3.3326,-3.3326,-3.3326,-3.3326,-3.3086,-3.2846,-1.3019,-1.2596,0.0,-1.1971,-1.1706,-1.1243,-1.0307,-1.1101,-1.1792,-1.1791,-1.1732,-1.271,0.0,0.0,0.0,0.0,0.0,0.0,-1.0977,0.0,-1.2079,-1.0353,-1.0276,-1.034,-1.0425,-1.0393,-1.0521,-1.0774,-1.0711,-1.051,0.0,0.0,0.0,0.0,-0.9455,0.0,0.0,0.0,-1.6411,0.0,-2.1524,-2.0997,0.0,-2.5242,-2.5971,-2.4506,-2.7392,-2.8462,-2.8114,0.0,-2.451,-2.4054,0.0,-1.9511,-1.7716,0.0,0.0,0.0,0.0,0.0,0.0,0.0,-1.2697,0.0,0.0,0.0,-1.3361,-1.3325,0.0,0.0,0.0,0.0,0.0,0.0,0.0,0.0,0.0,0.0,0.0,0.0,0.0,0.0,0.0,-2.8601,-3.1146,-3.3157,-3.3326,-3.3326,-3.3326,-3.3326,-3.3326,-3.3326,-3.3326,-3.3326,-3.3326,-3.3326,-3.3326,-3.3326,-3.3326,-3.3326,-3.3326,-3.3326,-3.3326,-3.3326,-3.3326,-3.3326,-3.3326,-3.3326,-3.3326,-3.3326,-3.3326,-3.3326,-3.3326,-3.3326,-3.3241,-3.3171,-1.2579,-1.2164,0.0,0.0,-1.1515,-1.1275,-1.1234,-1.1507,-1.1761,-1.1918,-1.1629,0.0,0.0,0.0,0.0,0.0,0.0,-1.504,0.0,0.0,-1.2253,-1.1845,-0.997,-0.9186,-0.9625,-0.9566,-0.9672,-0.9932,-0.9857,-0.9798,0.0,0.0,0.0,0.0,-0.9552,0.0,-1.4801,0.0,0.0,0.0,0.0,0.0,0.0,-2.5505,-2.7059,-2.66,-2.7127,-2.7834,-2.7969,0.0,-2.4929,0.0,0.0,0.0,0.0,0.0,0.0,0.0,0.0,0.0,0.0,0.0,0.0,0.0,-1.5084,0.0,-1.3119,0.0,0.0,0.0,0.0,0.0,0.0,0.0,-1.4068,0.0,0.0,0.0,0.0,0.0,0.0,0.0,0.0,0.0,0.0,0.0,-3.076,-3.0718,-3.1054,-3.2456,-3.3326,-3.3326,-3.3326,-3.3326,-3.3326,-3.3326,-3.3326,-3.3326,-3.3326,-3.3326,-3.3326,-3.3326,-3.3326,-3.3326,-3.3326,-3.3326,-3.3326,-3.3326,-3.3326,-3.3326,-3.3326,-3.3326,-3.3326,-3.3326,-3.3157,-3.2931,-1.2701,0.0,0.0,0.0,0.0,-1.1631,-1.2029,-1.2189,0.0,0.0,0.0,0.0,-1.6683,-1.4959,0.0,0.0,-1.7967,-1.7468,0.0,0.0,-1.3799,0.0,0.0,0.0,-1.0421,-0.9482,-0.9097,-0.9313,-0.9232,-0.9259,0.0,0.0,0.0,0.0,0.0,-1.2159,-1.5889,0.0,0.0,-2.3206,-2.4182,-2.4104,-2.3563,-2.5793,-2.7666,-2.8975,-2.7823,-2.8126,-2.858,-2.4674,-2.5721,0.0,-2.4333,0.0,0.0,0.0,0.0,0.0,-1.8006,0.0,0.0,0.0,0.0,0.0,0.0,0.0,0.0,0.0,0.0,0.0,0.0,0.0,0.0,0.0,0.0,-1.4492,0.0,0.0,0.0,0.0,0.0,0.0,0.0,0.0,0.0,-2.7949,-2.8428,-2.8881,-2.9393,-3.1881,-3.3326,-3.3326,-3.3326,-3.3326,-3.3326,-3.3326,-3.3326,-3.3326,-3.3326,-3.3326,-3.3326,-3.3326,-3.3326,-3.3326,-3.3326,-3.3326,-3.3326,-3.3326,-3.3326,-3.3326,-3.3326,-3.3326,-3.3326,-3.3326,-3.3086,-3.286,-1.4296,-1.3385,0.0,0.0,0.0,0.0,0.0,0.0,0.0,0.0,0.0,0.0,0.0,0.0,0.0,0.0,0.0,-1.9006,-1.9494,0.0,-1.7931,0.0,0.0,-1.0708,0.0,-1.0792,-0.9232,-0.9313,-0.9232,-0.9259,0.0,0.0,0.0,0.0,0.0,-1.2951,-1.731,-1.9964,-2.3857,-2.8287,-2.996,-3.0485,-2.9828,0.0,-2.7201,-3.0732,-2.991,0.0,0.0,-2.759,-2.6776,0.0,0.0,0.0,0.0,0.0,0.0,0.0,0.0,0.0,0.0,-2.0681,0.0,0.0,0.0,0.0,-1.4866,0.0,0.0,0.0,0.0,0.0,-1.4022,-1.4228,0.0,0.0,0.0,0.0,0.0,0.0,0.0,0.0,0.0,0.0,0.0,-2.4947,-2.7283,-2.8881,-2.9393,-3.1881,-3.3326,-3.3326,-3.3326,-3.3326,-3.3326,-3.3326,-3.3326,-3.3326,-3.3326,-3.3326,-3.3326,-3.3326,-3.3326,-3.3326,-3.3326,-3.3326,-3.3326,-3.3326,-3.3326,-3.3326,-3.3326,-3.3326,-3.3326,-3.3326,-3.3326,-3.3241,0.0,0.0,0.0,0.0,0.0,0.0,0.0,-1.3057,0.0,0.0,0.0,0.0,0.0,-2.0966,-2.0335,0.0,0.0,-2.3457,-2.1945,-2.1015,0.0,0.0,0.0,-1.4309,0.0,0.0,-1.0886,-0.9313,-0.9232,0.0,0.0,0.0,0.0,0.0,0.0,-1.3458,0.0,0.0,0.0,0.0,0.0,-2.891,-2.9754,0.0,0.0,-3.0758,-3.097,-3.1044,0.0,-2.8155,-2.8576,-2.9751,-2.7919,-2.7104,-2.7157,-2.8812,-2.6656,0.0,0.0,0.0,-2.708,-2.6102,0.0,0.0,0.0,0.0,0.0,0.0,0.0,0.0,0.0,0.0,-1.4626,-1.4676,-1.4796,0.0,0.0,0.0,0.0,0.0,0.0,0.0,0.0,0.0,0.0,-2.2158,-2.3012,-2.3733,-2.4277,-2.8396,-3.0695,-3.0695,-3.2386,-3.3309,-3.3293,-3.3309,-3.3309,-3.3293,-3.3323,-3.3507,-3.3934,-3.3507,-3.3839,-3.4624,-3.3716,-3.3563,-3.3934,-3.3507,-3.3326,-3.3326,-3.3326,-3.3326,-3.3326,-3.3326,-3.3326,-3.3241,-1.2442,0.0,0.0,0.0,0.0,0.0,0.0,0.0,0.0,0.0,-1.8495,0.0,-2.4083,0.0,-2.2949,0.0,-2.4421,-2.489,-2.5265,-2.1934,0.0,-2.5064,-1.9795,0.0,0.0,0.0,0.0,0.0,0.0,-1.0642,0.0,0.0,0.0,0.0,0.0,0.0,0.0,0.0,-2.4001,0.0,0.0,-2.91,0.0,0.0,-3.165,-3.1576,0.0,-3.1796,-3.1567,-3.0117,-3.0801,-3.1964,-3.0212,-2.9861,-3.0371,-3.1569,-2.9753,-2.7808,-2.9943,-3.1034,0.0,-3.0283,-2.877,0.0,-2.5566,0.0,0.0,0.0,0.0,0.0,0.0,0.0,0.0,-1.6127,-1.5864,-1.553,0.0,-1.5029,0.0,0.0,0.0,0.0,0.0,0.0,-1.8252,-1.9224,-2.0271,-2.1125,0.0,0.0,-2.9435,-2.9435,-3.1937,-3.3279,-3.3281,-3.3297,-3.3297,-3.3281,-3.3552,-3.3854,-3.4312,-3.4153,-3.4558,-3.5335,-3.4423,-3.4138,-3.4245,-3.3811,-3.3507,-3.3326,-3.3326,-3.3326,-3.3326,-3.3326,-3.3241,-3.3157,0.0,0.0,0.0,0.0,-1.128,0.0,0.0,0.0,-1.7753,0.0,-2.1797,-2.1529,-2.5462,-2.2967,-2.2191,-2.5189,-2.307,-2.3703,-2.8896,-2.1605,0.0,0.0,-2.1586,-1.9456,-2.4553,0.0,0.0,0.0,0.0,0.0,0.0,0.0,0.0,0.0,-1.2049,0.0,-1.5613,-2.1021,-2.4215,-2.5897,-2.871,-3.1025,-3.2556,-3.0401,-3.1124,-3.3213,-3.2187,-3.2475,-3.3326,-3.3326,-3.3326,-3.3326,-3.3368,-3.3368,-3.348,-3.4098,-3.4281,-3.4548,-3.5742,-3.6065,-3.5517,-3.3213,-3.2139,0.0,0.0,0.0,-2.7129,0.0,0.0,0.0,0.0,0.0,0.0,-1.859,-1.7366,-1.6473,0.0,0.0,0.0,0.0,0.0,0.0,0.0,-1.8064,-1.9095,-1.6368,-1.9003,0.0,0.0,0.0,-2.9142,-2.9421,-3.1766,-3.3093,-3.3347,-3.3245,-3.3245,-3.3398,-3.4002,-3.4312,-3.4403,-3.5065,-3.5404,-3.5419,-3.5385,-3.4993,-3.438,-3.4312,-3.3865,-3.3326,-3.3326,-3.3326,-3.3326,-3.3326,-3.3157,-3.2988,-1.167,-1.0885,-1.0768,0.0,-1.2877,-1.4943,0.0,0.0,0.0,0.0,-2.3533,-2.4716,-2.5577,-2.7041,-2.6762,-2.3914,-2.5091,0.0,0.0,0.0,0.0,-3.0361,-2.8143,-2.629,-2.5274,-2.3606,0.0,-2.061,0.0,0.0,-1.6788,0.0,0.0,0.0,0.0,0.0,-1.5123,-2.1258,-2.5805,-2.8753,-2.8111,-2.8852,0.0,0.0,-3.1822,-3.4044,-3.307,-3.2931,-3.3326,-3.3326,-3.3326,-3.3396,-3.3859,-3.4,-3.4126,-3.4731,-3.4913,-3.5082,-3.5855,-3.6065,-3.6023,-3.5855,-3.3926,-3.1873,0.0,0.0,0.0,0.0,0.0,0.0,0.0,0.0,0.0,0.0,0.0,0.0,0.0,0.0,0.0,-1.5567,0.0,0.0,-1.4882,-1.5902,-1.6387,-1.5592,-1.6678,0.0,0.0,0.0,0.0,-3.0079,-2.9102,-3.0249,-3.4021,-3.2458,-3.2764,-3.4864,-3.4508,-3.4598,-3.5091,-3.4763,-3.5138,-3.6084,-3.5031,-3.478,-3.5059,-3.4016,-3.3437,-3.3326,-3.3157,-3.3072,-3.3072,-3.3241,-3.3157,-3.2988,-1.1263,0.0,0.0,-1.0474,0.0,0.0,-1.7743,0.0,0.0,-2.5189,-2.6454,0.0,-2.833,-3.0058,-3.0035,-2.7159,-2.6385,0.0,-2.7621,0.0,0.0,-3.1358,-3.0363,-2.8801,-2.6895,-2.6753,0.0,-2.4252,0.0,0.0,-1.9588,0.0,0.0,0.0,0.0,-1.4032,0.0,-2.1563,-2.6557,-3.0058,-2.933,0.0,0.0,-3.1466,-3.2741,-3.4866,-3.4369,-3.4072,-3.3776,-3.3719,-3.3719,-3.3831,-3.445,-3.4632,-3.4759,-3.5377,-3.562,-3.5686,-3.6304,-3.6473,-3.6543,-3.6908,-3.5672,-3.4307,-3.4393,-3.2989,-3.1727,0.0,-3.1579,-3.1191,0.0,0.0,0.0,0.0,0.0,0.0,0.0,0.0,0.0,0.0,-1.7506,0.0,-1.5672,-1.5647,-1.5592,-1.5264,-1.5801,0.0,0.0,0.0,0.0,-2.6845,-2.7914,-2.9251,-3.0998,-2.9644,-3.0447,-3.3414,-3.305,-3.3719,-3.5278,-3.5202,-3.5654,-3.6353,-3.5531,-3.532,-3.5335,-3.4221,-3.3479,-3.3157,-3.3058,-3.2988,-3.2988,-3.3241,-3.3241,-3.3143,0.0,0.0,0.0,0.0,0.0,0.0,0.0,-2.2272,0.0,-2.958,0.0,-2.9723,-3.1409,-3.1919,-3.2033,-3.1704,0.0,-2.6947,-3.1867,-2.5604,-2.4982,-3.2295,-3.0595,-2.945,-2.9232,-2.9388,-2.9456,0.0,0.0,-2.0636,-2.2855,0.0,0.0,0.0,0.0,0.0,0.0,-2.1972,-2.6697,-3.069,-3.1449,-3.32,-3.5139,-3.3485,-3.4037,-3.5721,-3.5782,-3.531,-3.4611,-3.4496,-3.4438,-3.4536,-3.5156,-3.5427,-3.5554,-3.6085,-3.6268,-3.638,-3.6916,-3.707,-3.7056,-3.7056,-3.7056,-3.7056,-3.6978,-3.6978,-3.7056,-3.6978,-3.6978,-3.6332,0.0,0.0,0.0,0.0,0.0,0.0,0.0,0.0,0.0,0.0,0.0,0.0,-1.6814,-1.6247,-1.5845,0.0,0.0,0.0,0.0,0.0,0.0,-2.2961,-2.7321,-2.895,-2.7315,0.0,-2.8173,-3.146,-3.129,-3.264,-3.5278,-3.6041,-3.6364,-3.6395,-3.6398,-3.6039,-3.5335,-3.4581,-3.3782,-3.2988,-3.3129,-3.3058,-3.3058,-3.3297,-3.3438,-3.3367,0.0,0.0,0.0,0.0,0.0,-2.0301,-2.5369,-2.7983,-2.9206,-2.8621,-3.0438,-3.1145,-2.9406,-3.1589,-3.2376,-3.0201,-2.9666,0.0,0.0,0.0,0.0,-3.3388,-3.347,-3.3092,-3.2469,-3.2741,-3.2647,0.0,-2.5938,-2.3069,-2.3248,0.0,0.0,0.0,0.0,0.0,-2.3636,-2.2828,0.0,-3.2173,-3.2875,-3.3006,-3.3082,-3.5337,-3.6373,-3.6689,-3.6012,-3.5682,-3.5582,-3.551,-3.551,-3.5624,-3.6251,-3.645,-3.6579,-3.7192,-3.73,-3.7329,-3.7443,-3.738,-3.7226,-3.7226,-3.7226,-3.7226,-3.7056,-3.7148,-3.7226,-3.7056,-3.6978,-3.693,-3.666,0.0,0.0,0.0,0.0,0.0,0.0,0.0,0.0,0.0,0.0,-2.1083,0.0,0.0,0.0,0.0,0.0,0.0,0.0,0.0,0.0,0.0,-2.5708,0.0,0.0,0.0,-3.047,-3.5002,-3.2779,-3.3271,-3.5998,-3.6146,-3.6321,-3.6395,-3.6398,-3.6039,-3.5335,-3.4581,-3.3782,-3.3058,-3.3673,-3.3534,-3.3129,-3.3851,-3.407,-3.4012,0.0,0.0,0.0,0.0,0.0,0.0,0.0,-2.9636,0.0,-3.1046,-3.2399,-3.3035,-3.1724,-3.3035,-3.3456,-3.2222,-3.1163,-3.1148,-3.2483,-3.1322,-3.1652,-3.4013,-3.4278,0.0,-3.1911,-3.3384,-3.3197,-3.1278,-2.6511,-2.4067,-2.3724,-1.7425,0.0,0.0,0.0,-1.9931,0.0,0.0,0.0,-3.2529,-3.4661,-3.5389,-3.5493,-3.7025,-3.7618,-3.7575,-3.7183,-3.7008,-3.6965,-3.6413,-3.6239,-3.6353,-3.6982,-3.7168,-3.7225,-3.7525,-3.7625,-3.7625,-3.7625,-3.7534,-3.7457,-3.7457,-3.7457,-3.7457,-3.7303,-3.738,-3.7457,-3.7303,-3.7303,-3.6807,-3.5265,-3.2738,0.0,0.0,0.0,0.0,0.0,0.0,0.0,0.0,0.0,0.0,0.0,0.0,0.0,0.0,0.0,0.0,0.0,0.0,0.0,0.0,0.0,0.0,0.0,0.0,0.0,-3.4071,-3.2501,-3.3232,-3.5954,-3.6146,-3.6263,-3.6295,-3.6398,-3.6243,-3.5849,-3.5044,-3.4689,-3.4654,-3.4996,-3.5132,-3.523,-3.5795,-3.5933,-3.5764,0.0,-1.756,0.0,0.0,-2.1178,0.0,-2.6509,-3.0292,-3.305,-3.3601,-3.4095,-3.4414,-3.4414,-3.4414,-3.4196,-3.3645,-3.2237,-3.1787,-3.2666,-3.1903,-3.2048,-3.3463,-3.4124,-3.3456,-3.1438,-3.3369,-3.3215,0.0,-2.7295,-2.5075,-2.4105,-1.8397,0.0,0.0,0.0,0.0,0.0,0.0,-3.2306,-3.3691,-3.6403,-3.7781,-3.8202,-3.8202,-3.8202,-3.8202,-3.8202,-3.8202,-3.8055,-3.7264,-3.7032,-3.7118,-3.7605,-3.7763,-3.7763,-3.7763,-3.7763,-3.7763,-3.7763,-3.7687,-3.7701,-3.7701,-3.7701,-3.7625,-3.7625,-3.7625,-3.7625,-3.7625,-3.7625,-3.6868,-3.4298,-3.3331,0.0,0.0,0.0,0.0,0.0,0.0,0.0,0.0,0.0,0.0,-2.3617,0.0,0.0,0.0,0.0,0.0,0.0,0.0,0.0,0.0,0.0,-2.8324,-2.8301,0.0,-3.0219,-3.3602,-3.2748,-3.3758,-3.6473,-3.6729,-3.6849,-3.688,-3.7017,-3.6986,-3.6798,-3.5919,-3.5874,-3.6388,-3.6522,-3.6851,-3.7276,-3.7564,-3.7722,-3.7425,0.0,0.0,0.0,0.0,0.0,0.0,-3.2701,-3.199,-3.1685,-3.4022,-3.437,-3.4414,-3.4414,-3.4414,-3.347,-3.1134,-3.2846,-3.2115,-2.7616,-3.1536,-3.3057,-3.0895,-3.31,-3.4298,-3.4066,-3.4298,-3.4081,0.0,-3.0405,-2.7295,0.0,-2.1264,0.0,0.0,0.0,0.0,0.0,-3.2115,-3.439,-3.7694,-3.7999,-3.8159,-3.8202,-3.8202,-3.8202,-3.8202,-3.8202,-3.8202,-3.8202,-3.8055,-3.804,-3.8055,-3.8113,-3.8127,-3.8127,-3.8127,-3.8127,-3.8127,-3.8127,-3.7991,-3.7853,-3.7853,-3.7853,-3.7853,-3.7625,-3.7777,-3.7853,-3.7625,-3.7777,-3.7691,-3.7225,-3.5525,-3.3071,0.0,0.0,0.0,0.0,0.0,0.0,0.0,0.0,0.0,0.0,-2.0483,0.0,0.0,0.0,0.0,0.0,0.0,0.0,-2.4313,0.0,-2.63,-2.803,-2.9823,-3.2965,-3.7456,-3.5592,-3.6182,-3.8968,-3.8984,-3.9094,-3.9218,-3.9203,-3.8857,-3.8277,-3.7368,-3.7142,-3.7391,-3.7831,-3.781,-3.7579,-3.8183,-3.8363,-3.8312,0.0,0.0,0.0,0.0,0.0,0.0,0.0,-3.2733,-3.3498,-3.4283,-3.4414,-3.4414,-3.4414,-3.4414,-3.3993,-3.2962,-3.3819,-3.3477,-3.1435,-3.3216,-3.4124,-3.3405,-3.4428,-3.5154,-3.5546,-3.5546,-3.5476,0.0,0.0,0.0,0.0,0.0,0.0,0.0,0.0,-3.1217,-3.3209,-3.5125,-3.6809,-3.8202,-3.8202,-3.8202,-3.8202,-3.8202,-3.8202,-3.8202,-3.8202,-3.8202,-3.8202,-3.8202,-3.8202,-3.8202,-3.8202,-3.8202,-3.8202,-3.8202,-3.8202,-3.8202,-3.8202,-3.8127,-3.8066,-3.8066,-3.8066,-3.8066,-3.7991,-3.7991,-3.8066,-3.7991,-3.7991,-3.8066,-3.7991,-3.7168,-3.5581,-3.2688,0.0,0.0,0.0,0.0,0.0,0.0,0.0,0.0,0.0,0.0,0.0,0.0,0.0,0.0,0.0,0.0,0.0,-2.7792,0.0,-3.1052,-3.462,-3.3676,-3.5031,-3.8623,-3.7857,-3.8044,-3.9171,-3.9266,-3.9377,-3.9503,-3.9503,-3.9377,-3.9044,-3.8691,-3.8889,-3.9342,-3.9604,-3.9773,-3.9998,-4.0278,-4.0318,-4.0334,-3.3081,0.0,-2.8996,0.0,-3.076,-3.1337,-3.091,-3.324,-3.4714,-3.3762,-3.4359,-3.4753,-3.4428,-3.4588,-3.4385,-3.363,-3.4428,-3.4327,-3.2767,-3.4138,-3.4835,-3.453,-3.5241,0.0,-3.6301,-3.6301,-3.6301,-3.6301,-3.1695,0.0,0.0,0.0,0.0,0.0,-3.2695,-3.4443,-3.5009,-3.7259,-3.8202,-3.8202,-3.8202,-3.8202,-3.8202,-3.8202,-3.8202,-3.8202,-3.8202,-3.8202,-3.8202,-3.8202,-3.8202,-3.8202,-3.8202,-3.8202,-3.8202,-3.8202,-3.8202,-3.8202,-3.8202,-3.8202,-3.8202,-3.8202,-3.8202,-3.8202,-3.8202,-3.8202,-3.8202,-3.8202,-3.8202,-3.8202,-3.8202,-3.8066,-3.7111,-3.4423,0.0,0.0,0.0,0.0,0.0,0.0,-3.0497,-2.9699,-3.2647,-2.7602,0.0,0.0,0.0,0.0,0.0,0.0,0.0,0.0,0.0,0.0,-3.689,-3.5248,-3.6213,-3.9846,-3.9846,-3.9846,-3.9846,-3.9943,-4.0055,-4.0119,-4.0119,-4.0119,-4.0119,-4.0119,-4.0419,-4.0893,-4.0893,-4.1178,-4.1588,-4.1588,-4.1588,-4.1588,-3.6904,-3.6812,-3.6614,-3.5993,-3.5897,-3.4893,-3.1855,-3.3662,-3.452,-3.2126,-3.4236,-3.5507,-3.4472,-3.4965,-3.4327,-3.1772,-3.4457,-3.4071,-2.8901,-3.3419,-3.5085,0.0,0.0,-3.6301,-3.6301,-3.6301,-3.6301,-3.6301,0.0,0.0,-3.1482,0.0,-3.2745,-3.3543,-3.6707,-3.8144,-3.8144,-3.8188,-3.8202,-3.8202,-3.8202,-3.8202,-3.8202,-3.8202,-3.8202,-3.8202,-3.8202,-3.8202,-3.8202,-3.8202,-3.8202,-3.8202,-3.8202,-3.8202,-3.8202,-3.8202,-3.8202,-3.8202,-3.8202,-3.8202,-3.8202,-3.8202,-3.8202,-3.8202,-3.8202,-3.8202,-3.8202,-3.8202,-3.8202,-3.8202,-3.8202,-3.8202,-3.7084,-3.3667,0.0,0.0,0.0,0.0,0.0,0.0,-2.7233,-2.6103,-2.9501,-2.6546,0.0,0.0,0.0,0.0,0.0,0.0,0.0,-2.652,-2.4804,0.0,-3.1731,-3.3013,-3.6301,-4.1557,-4.1557,-4.1557,-4.1557,-4.1557,-4.1557,-4.1557,-4.1557,-4.1557,-4.1557,-4.1557,-4.1573,-4.1573,-4.1573,-4.1573,-4.1588,-4.1588,-4.1588,-4.1588,-3.3666,-3.5257,-3.6333,-3.4599,-3.5017,-3.5259,-3.4292,-3.494,-3.5269,-3.4224,-3.502,-3.5385,-3.4831,-3.5496,-3.5677,0.0,-3.4138,-3.3761,0.0,-3.3775,-3.4327,-3.5635,-3.4864,-3.4574,-3.5009,-3.5009,-3.5009,-3.5009,0.0,0.0,0.0,-3.3064,-3.4428,-3.6736,-3.7752,-3.797,-3.7622,-3.8028,-3.797,-3.7622,-3.8028,-3.8202,-3.8202,-3.8202,-3.8202,-3.8202,-3.8202,-3.8202,-3.8202,-3.8202,-3.8202,-3.8202,-3.8202,-3.8202,-3.8202,-3.8202,-3.8202,-3.8202,-3.8202,-3.8202,-3.8202,-3.8202,-3.8202,-3.8202,-3.8202,-3.8202,-3.8202,-3.8202,-3.8202,-3.8202,-3.8202,-3.8202,-3.7302,-3.4477,-3.565,0.0,-3.417,0.0,0.0,-3.3636,-3.0852,-3.0313,-3.3799,-3.0985,0.0,0.0,0.0,0.0,0.0,0.0,0.0,0.0,-3.3371,0.0,-3.8753,-3.7233,-3.8269,-4.1817,-4.1817,-4.1736,-4.1588,-4.1588,-4.1588,-4.1588,-4.1588,-4.1588,-4.1588,-4.1588,-4.1588,-4.1588,-4.1588,-4.1588,-4.1588,-4.1588,-4.1588,-4.1588,-3.457,-3.5903,-3.6841,-3.4855,-3.514,-3.5341,-3.4284,-3.5055,-3.5431,-3.4267,-3.5106,-3.5806,-3.5628,-3.6172,0.0,-3.6387,-3.515,-3.515,-3.6896,-3.5532,-3.5546,-3.7549,-3.6098,-3.543,-3.5822,-3.5836,0.0,-3.5836,-3.5444,-3.5241,-3.5241,-3.5241,-3.6315,-3.8188,-3.797,-3.7651,-3.7331,-3.7709,-3.7651,-3.736,-3.7955,-3.8202,-3.8202,-3.8202,-3.8202,-3.8202,-3.8202,-3.8202,-3.8202,-3.8202,-3.8202,-3.8202,-3.8202,-3.8202,-3.8202,-3.8202,-3.8202,-3.8202,-3.8202,-3.8202,-3.8202,-3.8202,-3.8202,-3.8202,-3.8202,-3.8202,-3.8202,-3.8202,-3.8202,-3.8202,-3.8202,-3.8202,-3.768,-3.6098,-3.7172,-3.7989,-3.7428,0.0,-3.471,0.0,0.0,0.0,0.0,-3.4422,-3.3355,0.0,0.0,0.0,0.0,0.0,0.0,-3.4918,-3.6059,-3.7923,-4.0571,-3.8798,-3.9221,-4.1898,-4.1833,-4.1736,-4.1588,-4.1588,-4.1588,-4.1588,-4.1588,-4.1588,-4.1588,-4.1588,-4.1588,-4.1588,-4.1588,-4.1588,-4.1588,-4.1588,-4.1588,-4.1588,-3.8204,-3.8196,-3.7889,0.0,-3.6276,0.0,-3.2692,-3.4425,-3.5243,-3.2946,-3.4767,-3.6462,-3.6659,-3.6718,-3.6678,-3.6611,0.0,0.0,0.0,-3.7941,-3.7955,-3.813,-3.8014,-3.7941,-3.7941,-3.7941,-3.7999,-3.8144,-3.8144,-3.8144,-3.8144,-3.8144,-3.8144,-3.8115,-3.7549,-3.7288,-3.7244,-3.7288,-3.7302,-3.7419,-3.7955,-3.8202,-3.8277,-3.8202,-3.8202,-3.8202,-3.8202,-3.8202,-3.8202,-3.8202,-3.8202,-3.8202,-3.8202,-3.8202,-3.8202,-3.8202,-3.8202,-3.8202,-3.8202,-3.8202,-3.8202,-3.8202,-3.8202,-3.8202,-3.8202,-3.8202,-3.8202,-3.8202,-3.8202,-3.8202,-3.8202,-3.8202,-3.8202,-3.8202,-3.8277,-3.8679,-3.9902,-3.7241,-3.5486,0.0,0.0,0.0,-3.6486,-3.6883,-3.7301,0.0,0.0,0.0,0.0,0.0,-2.9523,-3.3631,-3.436,-3.5873,-3.8364,-3.838,-3.961,-4.1898,-4.167,-4.1604,-4.1604,-4.1604,-4.1588,-4.1588,-4.1588,-4.1588,-4.1588,-4.1588,-4.1588,-4.1588,-4.1588,-4.1588,-4.1588,-4.1588,-4.1588,-4.1588,0.0,0.0,-3.8339,-3.6316,-3.6989,-3.7367,-3.6076,-3.6304,-3.6245,-3.504,-3.5374,-3.5723,-3.5806,-3.5821,-3.5948,-3.6251,-3.4935,-3.4986,-3.719,-3.5717,-3.5707,-3.7827,-3.6225,-3.5314,-3.5314,-3.5314,-3.604,-3.752,-3.752,-3.752,-3.752,-3.752,-3.752,-3.752,-3.7375,-3.7027,-3.6577,-3.7085,-3.7637,-3.8139,-3.8149,-3.8546,-3.8972,-3.8412,-3.8202,-3.8202,-3.8202,-3.8202,-3.8202,-3.8202,-3.8202,-3.8202,-3.8202,-3.8202,-3.8202,-3.8202,-3.8202,-3.8202,-3.8202,-3.8202,-3.8202,-3.8202,-3.8202,-3.8202,-3.8202,-3.8202,-3.8202,-3.8202,-3.8202,-3.8202,-3.8202,-3.8202,-3.8202,-3.8202,-3.8694,-3.8437,-3.6621,-3.6135,-3.525,0.0,-3.4739,-3.6206,-3.7116,-3.9591,-4.0183,0.0,0.0,0.0,0.0,-3.584,-3.6551,-4.0254,-4.0529,-4.0873,-4.1552,-4.1552,-4.1659,-4.1898,-4.1437,-4.1236,-4.1236,-4.1236,-4.1288,-4.139,-4.139,-4.1456,-4.1588,-4.1588,-4.1588,-4.1588,-4.1588,-4.1588,-4.1588,-4.1588,-4.1588,-4.1588,-3.6343,-3.7735,-3.8718,-3.713,-3.7611,-3.7978,-3.7531,-3.7055,-3.6631,-3.615,-3.6054,-3.6006,-3.6006,-3.6006,-3.608,-3.6364,-3.52,-3.5185,-3.6817,-3.5878,-3.5972,-3.7607,-3.6541,-3.5977,-3.6141,-3.6141,-3.6664,-3.7723,-3.7723,-3.7723,-3.7709,-3.7433,-3.7302,-3.7302,-3.6983,-3.6649,-3.6344,-3.7416,-3.8023,-3.8462,-3.8979,-3.9448,-3.9733,-3.9391,-3.9247,-3.9247,-3.9247,-3.8972,-3.8679,-3.8679,-3.8486,-3.8202,-3.8202,-3.8202,-3.8202,-3.8202,-3.8202,-3.8202,-3.8202,-3.8202,-3.8202,-3.8202,-3.8486,-3.8679,-3.8679,-3.8957,-3.9103,-3.8752,-3.8679,-3.8679,-3.8679,-3.8679,-3.8826,-3.9175,-3.8187,-3.696,-3.5766,-3.4576,-3.3931,-3.4355,-3.6141,-3.7954,-3.959,-4.15,-4.1824,-3.9897,-3.8537,0.0,-3.9671,-3.8521,-3.9298,-4.2537,-4.2634,-4.2634,-4.2634,-4.2571,-4.2381,-4.2141,-4.1554,-4.1355,-4.1355,-4.1221,-4.1205,-4.1323,-4.139,-4.1522,-4.1588,-4.1588,-4.1588,-4.1588,-4.1588,-4.1588,-4.1588,-4.1588,-4.1588,-4.1588,-3.9418,-3.9312,-3.9135,-3.8469,-3.8342,-3.823,-3.7978,-3.7381,-3.6904,-3.6798,-3.6783,-3.6783,-3.6783,-3.6783,-3.6722,-3.6615,-3.6364,-3.6388,-3.6596,-3.6867,-3.7124,-3.7386,-3.7561,-3.7797,-3.8046,-3.8088,-3.803,-3.7915,-3.8062,-3.8062,-3.7974,-3.7593,-3.7388,-3.7461,-3.689,-3.6684,-3.6887,-3.8038,-3.8672,-3.8946,-3.9979,-4.0485,-4.0554,-4.0416,-4.0416,-4.0416,-4.0416,-3.9999,-3.9448,-3.9448,-3.903,-3.8546,-3.8546,-3.8546,-3.8486,-3.8412,-3.8412,-3.8472,-3.8277,-3.8202,-3.8202,-3.8337,-3.8826,-3.9305,-3.9448,-3.9929,-4.0209,-3.9591,-3.9448,-3.9448,-3.9448,-3.9448,-3.9496,-3.9603,-3.7182,-3.5318,-3.5404,0.0,-3.3212,-3.6841,-3.7792,-3.9314,-4.2342,-4.2634,-4.2634,-4.2634,-4.0399,-4.0092,-4.2504,-4.0335,-4.014,-4.249,-4.2634,-4.2634,-4.2634,-4.2445,-4.2381,-4.2381,-4.1851,-4.1588,-4.1588,-4.139,-4.1323,-4.1323,-4.1456,-4.1522,-4.1522,-4.1522,-4.1522,-4.1588,-4.1588,-4.1588,-4.1588,-4.1588,-4.1588,-4.1588,-3.9781,-3.9867,-3.9901,-3.9799,-3.9782,-3.9558,-3.8854,-3.8619,-3.8342,-3.769,-3.7632,-3.7632,-3.7632,-3.7632,-3.7338,-3.6661,-3.6585,-3.6348,-3.5924,-3.6149,-3.6454,-3.6813,-3.7079,-3.7282,-3.754,-3.7777,-3.7355,-3.6458,-3.733,-3.7466,-3.6851,-3.743,-3.792,-3.8223,-3.8116,-3.8391,-3.9008,-3.9235,-3.9941,-4.0955,-4.0591,-4.0758,-4.1245,-4.0622,-4.0416,-4.0416,-4.0416,-4.0347,-4.0209,-4.0209,-4.0139,-4.0069,-4.0069,-4.0069,-3.9929,-3.9305,-3.9591,-3.9804,-3.8546,-3.8202,-3.8337,-3.8957,-3.9247,-3.9448,-4.0069,-4.0347,-4.0347,-4.0278,-4.0209,-4.0209,-4.0209,-4.0209,-3.9275,-3.6379,-3.5964,-3.5033,-3.2118,0.0,-3.6583,-3.7203,-3.9978,-4.1957,-4.2585,-4.2634,-4.2634,-4.2634,-4.2229,-4.2164,-4.2601,-4.2213,-4.218,-4.2618,-4.2634,-4.2634,-4.2634,-4.2302,-4.2174,-4.2109,-4.1785,-4.1588,-4.1588,-4.1256,-4.1272,-4.1522,-4.1138,-4.1055,-4.1323,-4.1323,-4.1323,-4.139,-4.1522,-4.1588,-4.1588,-4.1588,-4.1588,-4.1588,-3.9781,-3.9833,-3.9867,-3.9867,-3.9867,-3.9764,-3.947,-3.9102,-3.869,-3.8414,-3.8414,-3.8414,-3.8414,-3.8414,-3.8076,-3.7322,-3.7279,-3.6904,-3.6212,-3.6023,-3.6124,-3.6499,-3.6731,-3.7007,-3.7228,-3.7811,-3.7767,-3.7134,-3.8054,-3.8364,-3.8036,-3.845,-3.8733,-3.8871,-3.9294,-3.9604,-3.9831,-4.052,-4.1078,-4.1525,-4.1591,-4.1803,-4.2077,-4.1722,-4.1591,-4.1591,-4.1591,-4.1311,-4.0977,-4.0977,-4.0758,-4.0416,-4.0416,-4.0416,-4.0347,-3.9999,-3.9859,-3.9733,-3.9448,-3.9376,-3.9448,-3.9788,-4.0209,-4.0554,-4.0894,-4.1311,-4.1459,-4.1044,-4.0977,-4.0977,-4.0977,-4.0977,-4.0595,-3.933,-3.7828,0.0,-3.4585,-3.6039,-3.7323,-3.7323,-4.0464,-4.2634,-4.2634,-4.2634,-4.2634,-4.2634,-4.2634,-4.2634,-4.2634,-4.2634,-4.2634,-4.2634,-4.2634,-4.2634,-4.2634,-4.2429,-4.2365,-4.2381,-4.2045,-4.1851,-4.1851,-4.1604,-4.1472,-4.1456,-4.1323,-4.1205,-4.1221,-4.1256,-4.1323,-4.1323,-4.1522,-4.1588,-4.1588,-4.1588,-4.1588,-4.1588,-3.9625,-3.9677,-3.9677,-3.9677,-3.9677,-3.9729,-3.9849,-3.9348,-3.8978,-3.9102,-3.9102,-3.9102,-3.9102,-3.9102,-3.8761,-3.8051,-3.7994,-3.7632,-3.6859,-3.6337,-3.6268,-3.677,-3.7113,-3.7369,-3.7607,-3.8242,-3.8394,-3.799,-3.8999,-3.939,-3.9247,-3.9652,-3.9872,-3.9987,-4.0591,-4.0817,-4.0864,-4.1917,-4.2157,-4.1981,-4.2601,-4.2805,-4.2805,-4.2805,-4.2805,-4.2805,-4.2743,-4.2396,-4.1981,-4.1917,-4.1559,-4.1147,-4.1147,-4.1147,-4.1147,-4.0946,-4.0454,-3.9984,-4.0347,-4.0416,-4.0416,-4.0622,-4.1111,-4.1525,-4.1738,-4.2222,-4.2429,-4.1868,-4.1738,-4.1738,-4.1738,-4.1738,-4.1677,-4.1394,0.0,-3.7323,-3.7323,-3.7323,-3.763,-3.8456,-4.0966,-4.2634,-4.2634,-4.2634,-4.2634,-4.2634,-4.2634,-4.2634,-4.2634,-4.2634,-4.2634,-4.2634,-4.2634,-4.2634,-4.2634,-4.2634,-4.2634,-4.2634,-4.2302,-4.2238,-4.2238,-4.2012,-4.1801,-4.1522,-4.1522,-4.1406,-4.1236,-4.1205,-4.1256,-4.1323,-4.1522,-4.1588,-4.1588,-4.167,-4.167,-4.1654,-3.9484,-3.9625,-3.9677,-3.9677,-3.9677,-3.9677,-3.9729,-3.9661,-3.9609,-3.9609,-3.9661,-3.9661,-3.9661,-3.9661,-3.9312,-3.8502,-3.8446,-3.8108,-3.7413,-3.731,-3.7488,-3.7838,-3.86,-3.906,-3.9253,-3.9428,-3.8988,-3.8033,-3.9628,-4.0027,-3.9386,-4.0664,-4.1527,-4.2068,-4.2032,-4.2425,-4.3169,-4.3279,-4.3312,-4.3312,-4.3459,-4.3519,-4.3519,-4.3519,-4.3519,-4.3459,-4.3157,-4.3218,-4.3399,-4.3096,-4.3141,-4.3366,-4.3366,-4.3366,-4.3246,-4.252,-4.2062,-4.1593,-4.069,-4.0416,-4.0554,-4.1245,-4.1459,-4.1656,-4.2349,-4.2571,-4.2571,-4.2492,-4.2492,-4.2492,-4.2492,-4.2492,-4.1488,-3.8246,0.0,0.0,-3.7323,-3.7323,-3.8537,-4.1857,-4.2472,-4.2634,-4.2634,-4.2634,-4.2634,-4.2634,-4.2634,-4.2634,-4.2634,-4.2634,-4.2634,-4.2634,-4.2634,-4.2634,-4.2634,-4.2634,-4.2634,-4.2634,-4.2571,-4.2571,-4.2571,-4.2238,-4.2174,-4.2238,-4.1456,-4.1323,-4.1538,-4.1221,-4.1221,-4.1323,-4.1522,-4.1588,-4.1588,-4.1817,-4.1898,-4.1898,-3.9395,-3.9432,-3.9468,-3.9468,-3.9468,-3.9484,-3.9537,-3.959,-3.959,-3.9677,-3.9677,-3.9677,-3.9677,-3.9677,-3.9382,-3.8574,-3.8974,-3.892,-3.8108,-3.8574,-3.8714,-3.8446,-3.9257,-3.9702,-3.967,-4.0167,-4.0215,-3.9648,-4.0811,-4.1187,-4.0955,-4.1926,-4.2539,-4.2765,-4.319,-4.3422,-4.3492,-4.3492,-4.3432,-4.3235,-4.3295,-4.3279,-4.3279,-4.3279,-4.3279,-4.3279,-4.3174,-4.3157,-4.3279,-4.3295,-4.3372,-4.3476,-4.3578,-4.3578,-4.3519,-4.3246,-4.3108,-4.2909,-4.252,-4.2094,-4.1803,-4.2077,-4.2142,-4.2285,-4.2571,-4.2634,-4.2634,-4.2634,-4.2634,-4.2634,-4.2634,-4.2634,-4.2197,-4.0836,0.0,-4.061,-4.061,-4.061,-4.1112,-4.2472,-4.2634,-4.2634,-4.2634,-4.2634,-4.2634,-4.2634,-4.2634,-4.2634,-4.2634,-4.2634,-4.2634,-4.2634,-4.2634,-4.2634,-4.2634,-4.2634,-4.2634,-4.2634,-4.2634,-4.2634,-4.2571,-4.2492,-4.2302,-4.2174,-4.1851,-4.1654,-4.1588,-4.1472,-4.1472,-4.1522,-4.1686,-4.1817,-4.1817,-4.1947,-4.1996,-4.1996,-3.9272,-3.9272,-3.9272,-3.9272,-3.9272,-3.9325,-3.9448,-3.9448,-3.9484,-3.9573,-3.9573,-3.9573,-3.9573,-3.9573,-3.9345,-3.8827,-3.9292,-3.9345,-3.881,-3.9491,-3.9847,-3.9729,-4.028,-4.0653,-4.0815,-4.1262,-4.1395,-4.105,-4.1826,-4.2183,-4.2144,-4.2862,-4.323,-4.3304,-4.3764,-4.3864,-4.3687,-4.3687,-4.3568,-4.3372,-4.3416,-4.3416,-4.3416,-4.3416,-4.3416,-4.3416,-4.3295,-4.3295,-4.3416,-4.3476,-4.3611,-4.373,-4.3772,-4.3814,-4.3814,-4.3814,-4.3772,-4.3772,-4.3772,-4.3339,-4.2867,-4.2805,-4.2743,-4.2743,-4.2618,-4.2634,-4.2634,-4.2634,-4.2634,-4.2634,-4.2634,-4.2634,-4.2634,-4.2634,-4.2634,-4.2634,-4.2634,-4.2634,-4.2634,-4.2634,-4.2634,-4.2634,-4.2634,-4.2634,-4.2634,-4.2634,-4.2634,-4.2634,-4.2634,-4.2634,-4.2634,-4.2634,-4.2634,-4.2634,-4.2634,-4.2634,-4.2634,-4.2634,-4.2634,-4.2634,-4.2634,-4.2634,-4.2492,-4.2238,-4.2174,-4.198,-4.1851,-4.1736,-4.1736,-4.1785,-4.1882,-4.1947,-4.1947,-4.2125,-4.2174,-4.2174,-3.9272,-3.9272,-3.9272,-3.9272,-3.9272,-3.9272,-3.9272,-3.9272,-3.9272,-3.9272,-3.9272,-3.9272,-3.9272,-3.9272,-3.9272,-3.9272,-3.9272,-3.9272,-3.9272,-3.9967,-4.0862,-4.1871,-4.1772,-4.2105,-4.2975,-4.2772,-4.2422,-4.1921,-4.2422,-4.2715,-4.2732,-4.3322,-4.3687,-4.3898,-4.3687,-4.3704,-4.3898,-4.3898,-4.3898,-4.3898,-4.4039,-4.4097,-4.4097,-4.4097,-4.4097,-4.4039,-4.3747,-4.3805,-4.4039,-4.3889,-4.4006,-4.431,-4.431,-4.431,-4.431,-4.431,-4.4196,-4.4097,-4.4097,-4.3848,-4.3519,-4.3157,-4.3096,-4.3052,-4.268,-4.2634,-4.2634,-4.2634,-4.2634,-4.2634,-4.2634,-4.2634,-4.2634,-4.2634,-4.2634,-4.2634,-4.2634,-4.2634,-4.2634,-4.2634,-4.2634,-4.2634,-4.2634,-4.2634,-4.2634,-4.2634,-4.2634,-4.2634,-4.2634,-4.2634,-4.2634,-4.2571,-4.2634,-4.2634,-4.2634,-4.2634,-4.2634,-4.2634,-4.2634,-4.2634,-4.2634,-4.2634,-4.2634,-4.2571,-4.2238,-4.2238,-4.2381,-4.2028,-4.1947,-4.2109,-4.2109,-4.2109,-4.2109,-4.2318,-4.2381,-4.2445,-3.9272,-3.9272,-3.9272,-3.9272,-3.9272,-3.9272,-3.9272,-3.9272,-3.9272,-3.9272,-3.9272,-3.9272,-3.9272,-3.9272,-3.9272,-3.9272,-3.9272,-3.9272,-3.9272,-3.9487,-3.9989,-4.0829,-4.1288,-4.183,-4.2617,-4.2062,-4.1946,-4.2318,-4.1946,-4.2062,-4.2576,-4.2734,-4.3131,-4.3687,-4.3628,-4.3628,-4.3687,-4.3687,-4.3687,-4.3687,-4.3747,-4.3747,-4.3747,-4.3747,-4.3747,-4.3747,-4.3628,-4.3687,-4.3747,-4.3822,-4.3939,-4.4056,-4.4155,-4.4155,-4.4155,-4.4155,-4.4155,-4.4097,-4.4196,-4.408,-4.3848,-4.3519,-4.3459,-4.3399,-4.3339,-4.3279,-4.3218,-4.299,-4.2929,-4.2867,-4.2618,-4.2634,-4.2634,-4.2634,-4.2634,-4.2634,-4.2634,-4.2634,-4.2634,-4.2634,-4.2634,-4.2634,-4.2634,-4.2634,-4.2634,-4.2634,-4.2634,-4.2571,-4.2445,-4.2445,-4.2381,-4.2238,-4.2381,-4.2445,-4.2445,-4.2571,-4.2634,-4.2634,-4.2634,-4.2634,-4.2634,-4.2634,-4.2634,-4.2571,-4.2492,-4.2492,-4.2508,-4.2318,-4.2254,-4.2318,-4.2318,-4.2318,-4.2318,-4.2508,-4.2571,-4.2571,-3.9272,-3.9272,-3.9272,-3.9272,-3.9272,-3.9272,-3.9272,-3.9272,-3.9272,-3.9272,-3.9272,-3.9272,-3.9272,-3.9272,-3.9272,-3.9272,-3.9272,-3.9272,-3.9272,-3.9272,-3.9471,-3.9918,-4.0332,-4.1044,-4.2054,-4.164,-4.164,-4.2071,-4.164,-4.1789,-4.2518,-4.2518,-4.2916,-4.3628,-4.3628,-4.3628,-4.3628,-4.3628,-4.3628,-4.3628,-4.3628,-4.3628,-4.3628,-4.3628,-4.3628,-4.3628,-4.3628,-4.3628,-4.3628,-4.3822,-4.3898,-4.3898,-4.3998,-4.3998,-4.3998,-4.3998,-4.4056,-4.4097,-4.4196,-4.4155,-4.4039,-4.3848,-4.3772,-4.3638,-4.3535,-4.3595,-4.3519,-4.3295,-4.3235,-4.3235,-4.2945,-4.2867,-4.2805,-4.2805,-4.2696,-4.2634,-4.2634,-4.2634,-4.2634,-4.2634,-4.2634,-4.2634,-4.2634,-4.2571,-4.2508,-4.2445,-4.2508,-4.2445,-4.2318,-4.2381,-4.2318,-4.2109,-4.2318,-4.2381,-4.2381,-4.2508,-4.2634,-4.2634,-4.2634,-4.2634,-4.2634,-4.2634,-4.2634,-4.2634,-4.2634,-4.2634,-4.2571,-4.2508,-4.2508,-4.2508,-4.2508,-4.2508,-4.2508,-4.2571,-4.2634,-4.2634,-3.9325,-3.9325,-3.9325,-3.9272,-3.9272,-3.9272,-3.9272,-3.9272,-3.9272,-3.9272,-3.9272,-3.9272,-3.9272,-3.9272,-3.9272,-3.9272,-3.9272,-3.9272,-3.9272,-3.9272,-3.9272,-3.9272,-3.9272,-3.9885,-4.1193,-4.1226,-4.1259,-4.1326,-4.1259,-4.1607,-4.2336,-4.2386,-4.2816,-4.3529,-4.3595,-4.3628,-4.3628,-4.3628,-4.3628,-4.3628,-4.3628,-4.3628,-4.3628,-4.3628,-4.3628,-4.3628,-4.3628,-4.3628,-4.3628,-4.3822,-4.3898,-4.3898,-4.3898,-4.3898,-4.3898,-4.3898,-4.3939,-4.4039,-4.4097,-4.4039,-4.4039,-4.4097,-4.3964,-4.3713,-4.3492,-4.3535,-4.3595,-4.3432,-4.3552,-4.3535,-4.3432,-4.3174,-4.3052,-4.3052,-4.2743,-4.2571,-4.2571,-4.2571,-4.2571,-4.2571,-4.2571,-4.2571,-4.2571,-4.2445,-4.2318,-4.2109,-4.2318,-4.2318,-4.2109,-4.2254,-4.2254,-4.2045,-4.2254,-4.2381,-4.2381,-4.2508,-4.2571,-4.2634,-4.2634,-4.2634,-4.2634,-4.2634,-4.2634,-4.2634,-4.2634,-4.2634,-4.2634,-4.2634,-4.2634,-4.2634,-4.2634,-4.2634,-4.2634,-4.2634,-4.2634,-4.2634,-3.9484,-3.9448,-3.9432,-3.9325,-3.9272,-3.9272,-3.9272,-3.9272,-3.9272,-3.9272,-3.9272,-3.9272,-3.9272,-3.9272,-3.9272,-3.9272,-3.9272,-3.9272,-3.9272,-3.9272,-3.9272,-3.9272,-3.9272,-3.9421,-3.9736,-3.9736,-4.0017,-4.0613,-4.0017,-4.0117,-4.0862,-4.1392,-4.2054,-4.2783,-4.3363,-4.3628,-4.3628,-4.3628,-4.3628,-4.3628,-4.3628,-4.3628,-4.3628,-4.3628,-4.3628,-4.3628,-4.3628,-4.3628,-4.3628,-4.3628,-4.3687,-4.3687,-4.3687,-4.3687,-4.3687,-4.3687,-4.3687,-4.3747,-4.3881,-4.3822,-4.3747,-4.3881,-4.3881,-4.3881,-4.3923,-4.3981,-4.3923,-4.3628,-4.3552,-4.3492,-4.3235,-4.2929,-4.2696,-4.2696,-4.2429,-4.2238,-4.2238,-4.2238,-4.2238,-4.2445,-4.2302,-4.2238,-4.2445,-4.2445,-4.2381,-4.2318,-4.2445,-4.2381,-4.1963,-4.2061,-4.2045,-4.172,-4.1882,-4.2028,-4.2028,-4.2125,-4.2365,-4.2634,-4.2634,-4.2634,-4.2634,-4.2634,-4.2634,-4.2634,-4.2634,-4.2634,-4.2634,-4.2634,-4.2634,-4.2634,-4.2634,-4.2634,-4.2634,-4.2634,-4.2634,-4.2634,-3.959,-3.959,-3.959,-3.9468,-3.9432,-3.9395,-3.9395,-3.9325,-3.9272,-3.9272,-3.9272,-3.9272,-3.9272,-3.9272,-3.9272,-3.9272,-3.9272,-3.9272,-3.9272,-3.9272,-3.9272,-3.9272,-3.9272,-3.9272,-3.9272,-3.9272,-3.9471,-3.9852,-3.9471,-3.9653,-4.0398,-4.1094,-4.1806,-4.2551,-4.3297,-4.3628,-4.3628,-4.3628,-4.3628,-4.3628,-4.3628,-4.3628,-4.3628,-4.3628,-4.3628,-4.3628,-4.3628,-4.3628,-4.3628,-4.3628,-4.3628,-4.3628,-4.3628,-4.3628,-4.3628,-4.3628,-4.3628,-4.3628,-4.3704,-4.3687,-4.3628,-4.3704,-4.3763,-4.3822,-4.3939,-4.4039,-4.4039,-4.3822,-4.3805,-4.3747,-4.3509,-4.3251,-4.3068,-4.3068,-4.2805,-4.2539,-4.2365,-4.2302,-4.2318,-4.2238,-4.2174,-4.2125,-4.2141,-4.219,-4.2174,-4.2045,-4.2238,-4.2174,-4.1752,-4.1947,-4.1866,-4.1588,-4.1817,-4.1898,-4.1898,-4.2141,-4.2302,-4.2365,-4.2365,-4.2445,-4.2508,-4.2508,-4.2508,-4.2508,-4.2571,-4.2634,-4.2634,-4.2634,-4.2634,-4.2634,-4.2634,-4.2634,-4.2634,-4.2634,-4.2634,-4.2634,-3.9729,-3.9729,-3.9729,-3.9729,-3.959,-3.9554,-3.9501,-3.9395,-3.9325,-3.9272,-3.9272,-3.9272,-3.9272,-3.9272,-3.9272,-3.9272,-3.9272,-3.9272,-3.9272,-3.9272,-3.9272,-3.9272,-3.9272,-3.9272,-3.9272,-3.9272,-3.9272,-3.9272,-3.9272,-3.9587,-4.0216,-4.1028,-4.174,-4.2369,-4.323,-4.3628,-4.3628,-4.3628,-4.3628,-4.3628,-4.3628,-4.3628,-4.3628,-4.3628,-4.3628,-4.3628,-4.3628,-4.3628,-4.3628,-4.3628,-4.3628,-4.3628,-4.3628,-4.3628,-4.3628,-4.3628,-4.3628,-4.3628,-4.3628,-4.3628,-4.3628,-4.3628,-4.3628,-4.3628,-4.3822,-4.3939,-4.3981,-4.3881,-4.3939,-4.3981,-4.3898,-4.3704,-4.3492,-4.3492,-4.3235,-4.2929,-4.2634,-4.2634,-4.2492,-4.2238,-4.2174,-4.2125,-4.2028,-4.2012,-4.1931,-4.1654,-4.1916,-4.198,-4.1588,-4.1817,-4.1817,-4.1588,-4.1752,-4.1833,-4.1833,-4.2125,-4.219,-4.2061,-4.2045,-4.2109,-4.2381,-4.2381,-4.2381,-4.2381,-4.2445,-4.2492,-4.2508,-4.2571,-4.2571,-4.2508,-4.2571,-4.2571,-4.2571,-4.2571,-4.2571,-4.2571,-3.9901,-3.9901,-3.9849,-3.9729,-3.9677,-3.9625,-3.9501,-3.9484,-3.9432,-3.9325,-3.9272,-3.9272,-3.9272,-3.9272,-3.9272,-3.9272,-3.9272,-3.9272,-3.9272,-3.9272,-3.9272,-3.9272,-3.9272,-3.9272,-3.9272,-3.9272,-3.9272,-3.9272,-3.9272,-3.9322,-3.9454,-4.0796,-4.1458,-4.1624,-4.3015,-4.3628,-4.3628,-4.3628,-4.3628,-4.3628,-4.3628,-4.3628,-4.3628,-4.3628,-4.3628,-4.3628,-4.3628,-4.3628,-4.3628,-4.3628,-4.3628,-4.3628,-4.3628,-4.3628,-4.3628,-4.3628,-4.3628,-4.3628,-4.3628,-4.3628,-4.3628,-4.3628,-4.3628,-4.3628,-4.3628,-4.3628,-4.3687,-4.3628,-4.3628,-4.3687,-4.3628,-4.3372,-4.3174,-4.3174,-4.2912,-4.2664,-4.2634,-4.2601,-4.2664,-4.2775,-4.2508,-4.2381,-4.2318,-4.2077,-4.1898,-4.1833,-4.1996,-4.198,-4.1588,-4.1817,-4.1817,-4.1588,-4.1654,-4.1654,-4.1654,-4.1654,-4.1801,-4.1898,-4.1736,-4.1851,-4.2109,-4.2109,-4.2109,-4.2109,-4.2174,-4.2174,-4.2174,-4.2381,-4.2318,-4.2174,-4.2508,-4.2508,-4.2445,-4.2445,-4.2445,-4.2381,-4.0037,-4.0087,-4.0087,-3.9935,-3.9884,-3.9781,-3.9746,-3.9642,-3.959,-3.9432,-3.9379,-3.9379,-3.9325,-3.9272,-3.9272,-3.9272,-3.9272,-3.9272,-3.9272,-3.9272,-3.9272,-3.9272,-3.9272,-3.9272,-3.9272,-3.9272,-3.9272,-3.9272,-3.9272,-3.9272,-3.9342,-4.0348,-4.1044,-4.1458,-4.2535,-4.323,-4.3628,-4.3628,-4.3628,-4.3628,-4.3628,-4.3628,-4.3628,-4.3628,-4.3628,-4.3628,-4.3628,-4.3628,-4.3628,-4.3628,-4.3628,-4.3628,-4.3628,-4.3628,-4.3628,-4.3628,-4.3628,-4.3628,-4.3628,-4.3628,-4.3628,-4.3628,-4.3628,-4.3628,-4.3628,-4.3628,-4.3628,-4.3628,-4.3628,-4.3628,-4.3628,-4.3492,-4.3372,-4.3372,-4.3235,-4.3113,-4.2929,-4.2851,-4.2851,-4.2743,-4.2601,-4.2412,-4.2238,-4.219,-4.2077,-4.1736,-4.1882,-4.1866,-4.1588,-4.167,-4.167,-4.1588,-4.1588,-4.1588,-4.1588,-4.1736,-4.1752,-4.1736,-4.1752,-4.1882,-4.2012,-4.2012,-4.2012,-4.2012,-4.2061,-4.2109,-4.2109,-4.2174,-4.2174,-4.2109,-4.2238,-4.2302,-4.2238,-4.2238,-4.2238,-4.2238]},{"header":{"parameterUnit":"m.s-1","parameterCategory":1,"la1":30.6,"la2":28.766,"lo1":-90.7593,"lo2":-88.6598,"dy":0.0162,"dx":0.0183,"nx":116,"ny":114,"refTime":"2023-06-19T12:00:00:Z","depth":0,"parameterNumber":3,"parameterNumberName":"V-component_of_WINDS"},"data":[0.0,0.0,0.0,0.0,0.0,0.0,0.0,0.0,0.0,0.0,0.0,0.0,0.0,0.0,0.0,0.0,0.0,0.0,0.0,0.0,0.0,0.0,0.0,0.0,0.0,0.0,0.0,0.0,0.0,0.0,0.0,0.0,0.0,0.0,0.0,0.0,0.0,0.0,0.0,0.0,0.0,0.0,0.0,0.0,0.0,0.0,0.0,0.0,0.0,0.0,0.0,0.0,0.0,0.0,0.0,0.0,0.0,0.0,0.0,0.0,0.0,0.0,0.0,0.0,0.0,0.0,0.0,0.0,0.0,0.0,0.0,0.0,0.0,0.0,0.0,0.0,0.0,0.0,0.0,0.0,0.0,0.0,0.0,0.0,0.0,0.0,0.0,0.0,0.0,0.0,0.0,0.0,0.0,0.0,0.0,0.0,0.0,0.0,0.0,0.0,0.0,0.0,0.0,0.0,0.0,0.0,0.0,0.0,0.0,0.0,0.0,0.0,0.0,0.0,0.0,0.0,0.0,0.0,0.0,0.0,0.0,0.0,0.0,0.0,0.0,0.0,0.0,0.0,0.0,0.0,0.0,0.0,0.0,0.0,0.0,0.0,0.0,0.0,0.0,0.0,0.0,0.0,0.0,0.0,0.0,0.0,0.0,0.0,0.0,0.0,0.0,0.0,0.0,0.0,0.0,0.0,0.0,0.0,0.0,0.0,0.0,0.0,0.0,0.0,0.0,0.0,0.0,0.0,0.0,0.0,0.0,0.0,0.0,0.0,0.0,0.0,0.0,0.0,0.0,0.0,0.0,0.0,0.0,0.0,0.0,0.0,0.0,0.0,0.0,0.0,0.0,0.0,0.0,0.0,0.0,0.0,0.0,0.0,0.0,0.0,0.0,0.0,0.0,0.0,0.0,0.0,0.0,0.0,0.0,0.0,0.0,0.0,0.0,0.0,0.0,0.0,0.0,0.0,0.0,0.0,0.0,0.0,0.0,0.0,0.0,0.0,0.0,0.0,0.0,0.0,0.0,0.0,0.0,0.0,0.0,0.0,0.0,0.0,0.0,0.0,0.0,0.0,0.0,0.0,0.0,0.0,0.0,0.0,0.0,0.0,0.0,0.0,0.0,0.0,0.0,0.0,0.0,0.0,0.0,0.0,0.0,0.0,0.0,0.0,0.0,0.0,0.0,0.0,0.0,0.0,0.0,0.0,0.0,0.0,0.0,0.0,0.0,0.0,0.0,0.0,0.0,0.0,0.0,0.0,0.0,0.0,0.0,0.0,0.0,0.0,0.0,0.0,0.0,0.0,0.0,0.0,0.0,0.0,0.0,0.0,0.0,0.0,0.0,0.0,0.0,0.0,0.0,0.0,0.0,0.0,0.0,0.0,0.0,0.0,0.0,0.0,0.0,0.0,0.0,0.0,0.0,0.0,0.0,0.0,0.0,0.0,0.0,0.0,0.0,0.0,0.0,0.0,0.0,0.0,0.0,0.0,0.0,0.0,0.0,0.0,0.0,0.0,0.0,0.0,0.0,0.0,0.0,0.0,0.0,0.0,0.0,0.0,0.0,0.0,0.0,0.0,0.0,0.0,0.0,0.0,0.0,0.0,0.0,0.0,0.0,0.0,0.0,0.0,0.0,0.0,0.0,0.0,0.0,0.0,0.0,0.0,0.0,0.0,0.0,0.0,0.0,0.0,0.0,0.0,0.0,0.0,0.0,0.0,0.0,0.0,0.0,0.0,0.0,0.0,0.0,0.0,0.0,0.0,0.0,0.0,0.0,0.0,0.0,0.0,0.0,0.0,0.0,0.0,0.0,0.0,0.0,0.0,0.0,0.0,0.0,0.0,0.0,0.0,0.0,0.0,0.0,0.0,0.0,0.0,0.0,0.0,0.0,0.0,0.0,0.0,0.0,0.0,0.0,0.0,0.0,0.0,0.0,0.0,0.0,0.0,0.0,0.0,0.0,0.0,0.0,0.0,0.0,0.0,0.0,0.0,0.0,0.0,0.0,0.0,0.0,0.0,0.0,0.0,0.0,0.0,0.0,0.0,0.0,0.0,0.0,0.0,0.0,0.0,0.0,0.0,0.0,0.0,0.0,0.0,0.0,0.0,0.0,0.0,0.0,0.0,0.0,0.0,0.0,0.0,0.0,0.0,0.0,0.0,0.0,0.0,0.0,0.0,0.0,0.0,0.0,0.0,0.0,0.0,0.0,0.0,0.0,0.0,0.0,0.0,0.0,0.0,0.0,0.0,0.0,0.0,0.0,0.0,0.0,0.0,0.0,0.0,0.0,0.0,0.0,0.0,0.0,0.0,0.0,0.0,0.0,0.0,0.0,0.0,0.0,0.0,0.0,0.0,0.0,0.0,0.0,0.0,0.0,0.0,0.0,0.0,0.0,0.0,0.0,0.0,0.0,0.0,0.0,0.0,0.0,0.0,0.0,0.0,0.0,0.0,0.0,0.0,0.0,0.0,0.0,0.0,0.0,0.0,0.0,0.0,0.0,0.0,0.0,0.0,0.0,0.0,0.0,0.0,0.0,0.0,0.0,0.0,0.0,0.0,0.0,0.0,0.0,0.0,0.0,0.0,0.0,0.0,0.0,0.0,0.0,0.0,0.0,0.0,0.0,0.0,0.0,0.0,0.0,0.0,0.0,0.0,0.0,0.0,0.0,0.0,0.0,0.0,0.0,0.0,0.0,0.0,0.0,0.0,0.0,0.0,0.0,0.0,0.0,0.0,0.0,0.0,0.0,0.0,0.0,0.0,0.0,0.0,0.0,0.0,0.0,0.0,0.0,0.0,0.0,0.0,0.0,0.0,0.0,0.0,0.0,0.0,0.0,0.0,0.0,0.0,0.0,0.0,0.0,0.0,0.0,0.0,0.0,0.0,0.0,0.0,0.0,0.0,0.0,0.0,0.0,0.0,0.0,0.0,0.0,0.0,0.0,0.0,0.0,0.0,0.0,0.0,0.0,0.0,0.0,0.0,0.0,0.0,0.0,0.0,0.0,0.0,0.0,0.0,0.0,0.0,0.0,0.0,0.0,0.0,0.0,0.0,0.0,0.0,0.0,0.0,0.0,0.0,0.0,0.0,0.0,0.0,0.0,0.0,0.0,0.0,0.0,0.0,0.0,0.0,0.0,0.0,0.0,0.0,0.0,0.0,0.0,0.0,0.0,0.0,0.0,0.0,0.0,0.0,0.0,0.0,0.0,0.0,0.0,0.0,0.0,0.0,0.0,0.0,0.0,0.0,0.0,0.0,0.0,0.0,0.0,0.0,0.0,0.0,0.0,0.0,0.0,0.0,0.0,0.0,0.0,0.0,0.0,0.0,0.0,0.0,0.0,0.0,0.0,0.0,0.0,0.0,0.0,0.0,0.0,0.0,0.0,0.0,0.0,0.0,0.0,0.0,0.0,0.0,0.0,0.0,0.0,0.0,0.0,0.0,0.0,0.0,0.0,0.0,0.0,0.0,0.0,0.0,0.0,0.0,0.0,0.0,0.0,0.0,0.0,0.0,0.0,0.0,0.0,0.0,0.0,0.0,0.0,0.0,0.0,0.0,0.0,0.0,0.0,0.0,0.0,0.0,0.0,0.0,0.0,0.0,0.0,0.0,0.0,0.0,0.0,0.0,0.0,0.0,0.0,0.0,0.0,0.0,0.0,0.0,0.0,0.0,0.0,0.0,0.0,0.0,0.0,0.0,0.0,0.0,0.0,0.0,0.0,0.0,0.0,0.0,0.0,0.0,0.0,0.0,0.0,0.0,0.0,0.0,0.0,0.0,0.0,0.0,0.0,0.0,0.0,0.0,0.0,0.0,0.0,0.0,0.0,0.0,0.0,0.0,0.0,0.0,0.0,0.0,0.0,0.0,0.0,0.0,0.0,0.0,0.0,0.0,0.0,0.0,0.0,0.0,0.0,0.0,0.0,0.0,0.0,0.0,0.0,0.0,0.0,0.0,0.0,0.0,0.0,0.0,0.0,0.0,0.0,0.0,0.0,0.0,0.0,0.0,0.0,0.0,0.0,0.0,0.0,0.0,0.0,0.0,0.0,0.0,0.0,0.0,0.0,0.0,0.0,0.0,0.0,0.0,0.0,0.0,0.0,0.0,0.0,0.0,0.0,0.0,0.0,0.0,0.0,0.0,0.0,0.0,0.0,0.0,0.0,0.0,0.0,0.0,0.0,0.0,0.0,0.0,0.0,0.0,0.0,0.0,0.0,0.0,0.0,0.0,0.0,0.0,0.0,0.0,0.0,0.0,0.0,0.0,0.0,0.0,0.0,0.0,0.0,0.0,0.0,0.0,0.0,0.0,0.0,0.0,0.0,0.0,0.0,0.0,0.0,0.0,0.0,0.0,0.0,0.0,0.0,0.0,0.0,0.0,0.0,0.0,0.0,0.0,0.0,0.0,0.0,0.0,0.0,0.0,0.0,0.0,0.0,0.0,0.0,0.0,0.0,0.0,0.0,0.0,0.0,0.0,0.0,0.0,0.0,0.0,0.0,0.0,0.0,0.0,0.0,0.0,0.0,0.0,0.0,0.0,0.0,0.0,0.0,0.0,0.0,0.0,0.0,0.0,0.0,0.0,0.0,0.0,0.0,0.0,0.0,0.0,0.0,0.0,0.0,0.0,0.0,0.0,0.0,0.0,0.0,0.0,0.0,0.0,0.0,0.0,0.0,0.0,0.0,0.0,0.0,0.0,0.0,0.0,0.0,0.0,0.0,0.0,0.0,0.0,0.0,0.0,0.0,0.0,0.0,0.0,0.0,0.0,0.0,0.0,0.0,0.0,0.0,0.0,0.0,0.0,0.0,0.0,0.0,0.0,0.0,0.0,0.0,0.0,0.0,0.0,0.0,0.0,0.0,0.0,0.0,0.0,0.0,0.0,0.0,0.0,0.0,0.0,0.0,0.0,0.0,0.0,0.0,0.0,0.0,0.0,0.0,0.0,0.0,0.0,0.0,0.0,0.0,0.0,0.0,0.0,0.0,0.0,0.0,0.0,0.0,0.0,0.0,0.0,0.0,0.0,0.0,0.0,0.0,0.0,0.0,0.0,0.0,0.0,0.0,0.0,0.0,0.0,0.0,0.0,0.0,0.0,0.0,0.0,0.0,0.0,0.0,0.0,0.0,0.0,0.0,0.0,0.0,0.0,0.0,0.0,0.0,0.0,0.0,0.0,0.0,0.0,0.0,0.0,0.0,0.0,0.0,0.0,0.0,0.0,0.0,0.0,0.0,0.0,0.0,0.0,0.0,0.0,0.0,0.0,0.0,0.0,0.0,0.0,0.0,0.0,0.0,0.0,0.0,0.0,0.0,0.0,0.0,0.0,0.0,0.0,0.0,0.0,0.0,0.0,0.0,0.0,0.0,0.0,0.0,0.0,0.0,0.0,0.0,0.0,0.0,0.0,0.0,0.0,0.0,0.0,0.0,0.0,0.0,0.0,0.0,0.0,0.0,0.0,0.0,0.0,0.0,0.0,0.0,0.0,0.0,0.0,0.0,0.0,0.0,0.0,0.0,0.0,0.0,0.0,0.0,0.0,0.0,0.0,0.0,0.0,0.0,0.0,0.0,0.0,0.0,0.0,0.0,0.0,0.0,0.0,0.0,0.0,0.0,0.0,0.0,0.0,0.0,0.0,0.0,0.0,0.0,0.0,0.0,0.0,0.0,0.0,0.0,0.0,0.0,0.0,0.0,0.0,0.0,0.0,0.0,0.0,0.0,0.0,0.0,0.0,0.0,0.0,0.0,0.0,0.0,0.0,0.0,0.0,0.0,0.0,0.0,0.0,0.0,0.0,0.0,0.0,0.0,0.0,0.0,0.0,0.0,0.0,0.0,0.0,0.0,0.0,0.0,0.0,0.0,0.0,0.0,0.0,0.0,0.0,0.0,0.0,0.0,0.0,0.0,0.0,0.0,0.0,0.0,0.0,0.0,0.0,0.0,0.0,0.0,0.0,0.0,0.0,0.0,0.0,0.0,0.0,0.0,0.0,0.0,0.0,0.0,0.0,0.0,0.0,0.0,0.0,0.0,0.0,0.0,0.0,0.0,0.0,0.0,0.0,0.0,0.0,0.0,0.0,0.0,0.0,0.0,0.0,0.0,0.0,-2.1138,0.0,0.0,0.0,0.0,0.0,0.0,0.0,0.0,0.0,0.0,0.0,0.0,0.0,0.0,0.0,0.0,0.0,0.0,0.0,0.0,0.0,0.0,0.0,0.0,0.0,0.0,0.0,0.0,0.0,0.0,0.0,0.0,0.0,0.0,0.0,0.0,0.0,0.0,0.0,0.0,0.0,0.0,0.0,0.0,0.0,0.0,0.0,0.0,0.0,0.0,0.0,0.0,0.0,0.0,0.0,0.0,0.0,0.0,0.0,0.0,0.0,0.0,0.0,0.0,0.0,0.0,0.0,0.0,0.0,0.0,0.0,0.0,0.0,0.0,0.0,0.0,0.0,0.0,0.0,0.0,0.0,0.0,0.0,0.0,0.0,0.0,0.0,0.0,0.0,0.0,0.0,0.0,0.0,0.0,0.0,0.0,0.0,0.0,0.0,0.0,0.0,0.0,0.0,0.0,0.0,0.0,0.0,0.0,0.0,0.0,0.0,0.0,0.0,0.0,0.0,0.0,-2.3129,0.0,0.0,0.0,0.0,0.0,0.0,0.0,0.0,0.0,0.0,0.0,0.0,0.0,0.0,0.0,0.0,0.0,0.0,0.0,0.0,0.0,0.0,0.0,0.0,0.0,0.0,0.0,0.0,0.0,0.0,0.0,0.0,0.0,0.0,0.0,0.0,0.0,0.0,0.0,0.0,0.0,0.0,0.0,0.0,0.0,0.0,0.0,0.0,0.0,0.0,0.0,0.0,0.0,0.0,0.0,0.0,0.0,0.0,0.0,0.0,0.0,0.0,0.0,0.0,0.0,0.0,0.0,0.0,0.0,0.0,0.0,0.0,0.0,0.0,0.0,0.0,0.0,0.0,0.0,0.0,0.0,0.0,0.0,0.0,0.0,0.0,0.0,0.0,0.0,0.0,0.0,0.0,0.0,0.0,0.0,0.0,0.0,0.0,0.0,0.0,0.0,0.0,0.0,0.0,0.0,0.0,0.0,0.0,-2.612,-2.6372,-2.6518,-2.6514,-2.6746,-2.7177,-2.7393,-2.7748,-2.8047,-2.6431,0.0,0.0,0.0,0.0,0.0,0.0,0.0,0.0,0.0,0.0,0.0,0.0,0.0,0.0,0.0,0.0,0.0,0.0,0.0,0.0,0.0,0.0,0.0,0.0,0.0,0.0,0.0,0.0,0.0,0.0,0.0,0.0,0.0,0.0,0.0,0.0,0.0,0.0,-2.459,-2.5232,-2.5287,-2.4835,-2.4198,0.0,0.0,0.0,0.0,0.0,0.0,0.0,0.0,0.0,0.0,0.0,0.0,0.0,0.0,0.0,0.0,0.0,0.0,0.0,0.0,0.0,0.0,0.0,0.0,0.0,0.0,0.0,0.0,0.0,0.0,0.0,0.0,0.0,0.0,0.0,0.0,0.0,0.0,0.0,0.0,0.0,0.0,0.0,-2.2897,-2.4355,0.0,0.0,0.0,0.0,0.0,0.0,0.0,0.0,0.0,0.0,0.0,0.0,0.0,-2.4599,-2.4599,-2.7003,-2.827,-2.8327,-2.9898,-3.1032,-3.1703,-3.1719,-3.262,-3.404,-3.1711,0.0,-2.9164,-2.8685,0.0,0.0,0.0,0.0,0.0,0.0,0.0,0.0,0.0,0.0,0.0,0.0,0.0,0.0,0.0,0.0,0.0,0.0,0.0,0.0,0.0,0.0,0.0,0.0,0.0,0.0,0.0,0.0,0.0,0.0,0.0,0.0,0.0,0.0,0.0,0.0,-2.4138,-2.6711,-2.8047,-2.7905,-2.8363,-2.926,-2.8391,-2.6238,-2.3261,-2.3377,0.0,0.0,0.0,0.0,0.0,0.0,0.0,0.0,0.0,0.0,0.0,0.0,0.0,0.0,0.0,0.0,0.0,0.0,0.0,0.0,0.0,0.0,0.0,0.0,0.0,0.0,0.0,0.0,0.0,0.0,0.0,0.0,0.0,0.0,0.0,0.0,0.0,0.0,0.0,-2.3576,-2.4197,-2.5878,-2.6145,-2.4852,0.0,0.0,0.0,0.0,0.0,0.0,0.0,0.0,0.0,-2.6255,-2.7313,-2.8049,-2.8472,-3.0562,-3.1817,-3.2244,-3.3492,-3.4255,-3.463,-3.5039,-3.5736,-3.6543,-3.5189,-3.435,-3.3815,-3.1912,-3.1526,-3.2002,0.0,0.0,0.0,0.0,-2.9457,-3.0798,0.0,0.0,0.0,0.0,0.0,0.0,0.0,0.0,0.0,0.0,0.0,0.0,0.0,0.0,0.0,-1.4074,0.0,0.0,0.0,0.0,0.0,0.0,0.0,0.0,0.0,0.0,0.0,-2.3778,-2.703,-2.9377,-3.0853,-3.0394,-3.0852,-3.2069,-3.1651,-2.9439,-2.6064,-2.6484,-2.4896,0.0,0.0,0.0,0.0,0.0,0.0,0.0,0.0,0.0,0.0,0.0,0.0,0.0,0.0,0.0,0.0,0.0,0.0,0.0,0.0,0.0,0.0,0.0,0.0,0.0,0.0,0.0,0.0,0.0,0.0,0.0,0.0,0.0,0.0,0.0,0.0,0.0,0.0,-2.497,-2.5336,-2.7258,-2.7845,-2.6751,0.0,0.0,0.0,0.0,0.0,0.0,-2.6391,-2.7054,-2.771,-2.8379,-3.0238,-3.1461,-3.1958,-3.3261,-3.432,-3.5152,-3.5713,-3.6109,-3.6319,-3.6851,-3.7297,-3.7658,-3.7235,-3.7392,-3.7775,-3.535,-3.4673,-3.5132,-3.473,-3.3408,-3.1783,-3.1763,-3.2302,-3.3132,0.0,0.0,0.0,0.0,0.0,0.0,0.0,0.0,0.0,0.0,0.0,0.0,0.0,0.0,-1.4992,-1.5037,-1.5824,-1.5658,0.0,0.0,0.0,0.0,0.0,0.0,0.0,0.0,0.0,-2.5579,-2.8177,-2.9916,-3.0828,-3.1594,-3.2015,-3.2138,-3.2918,-3.2229,-3.0423,-2.9643,-2.8285,-2.6384,0.0,0.0,0.0,0.0,0.0,0.0,0.0,0.0,0.0,0.0,0.0,0.0,0.0,0.0,0.0,0.0,0.0,0.0,0.0,0.0,0.0,0.0,0.0,0.0,0.0,0.0,0.0,0.0,0.0,0.0,0.0,0.0,0.0,0.0,0.0,0.0,0.0,0.0,0.0,-2.8785,-3.0367,0.0,0.0,0.0,0.0,-2.413,-2.4709,-2.6613,-2.9879,-3.0089,-3.1411,-3.4282,-3.4472,-3.447,-3.433,-3.4405,-3.4895,-3.5747,-3.5735,-3.6124,-3.6855,-3.6764,-3.7243,-3.8112,-3.7075,-3.7622,-3.9158,-3.8696,-3.8116,-3.7375,-3.5853,-3.5263,-3.4958,-3.2516,-3.3665,-3.6439,0.0,0.0,0.0,0.0,0.0,0.0,0.0,0.0,0.0,0.0,0.0,0.0,0.0,-1.5398,-1.6934,-1.7501,-1.8866,-1.9204,-1.8087,0.0,0.0,0.0,0.0,0.0,0.0,0.0,-2.4647,-2.7364,-2.9366,-3.0781,-3.164,-3.1956,-3.2684,-3.3724,-3.4038,-3.4145,-3.4028,-3.32,-3.1519,-2.9318,-2.8632,-2.6279,0.0,0.0,0.0,0.0,0.0,0.0,0.0,0.0,0.0,0.0,0.0,0.0,0.0,0.0,0.0,0.0,0.0,0.0,0.0,0.0,0.0,0.0,0.0,0.0,0.0,0.0,0.0,0.0,0.0,0.0,0.0,0.0,0.0,0.0,0.0,0.0,0.0,-3.0485,-3.072,0.0,-2.8242,-2.8986,-2.8849,-2.7096,-2.8706,-3.0556,-3.2336,-3.234,-3.3067,-3.4737,-3.5303,-3.5482,-3.5259,-3.5833,-3.6176,-3.6329,-3.6723,-3.706,-3.7339,-3.7313,-3.7507,-3.7827,-3.6968,-3.6983,-3.7641,-3.7629,-3.8093,-3.8772,-3.8499,-3.8397,-3.8295,-3.7455,-3.7915,-3.895,0.0,0.0,0.0,0.0,0.0,0.0,0.0,0.0,0.0,0.0,0.0,-1.4468,-1.5443,-1.7297,-1.8807,-1.9629,-2.1052,-2.1318,-1.9915,0.0,0.0,0.0,0.0,0.0,0.0,-2.4361,-2.6743,-2.9186,-3.0567,-3.1532,-3.212,-3.24,-3.3283,-3.46,-3.4598,-3.5071,-3.5869,-3.5339,-3.4087,-3.2455,-3.2153,-2.953,-2.5638,0.0,0.0,0.0,0.0,0.0,0.0,0.0,0.0,0.0,0.0,0.0,0.0,0.0,0.0,0.0,0.0,0.0,0.0,0.0,0.0,0.0,0.0,0.0,0.0,0.0,0.0,0.0,0.0,0.0,0.0,0.0,0.0,0.0,0.0,0.0,-2.9252,-3.1446,-3.1476,-3.1002,-3.0183,-3.0715,-3.0747,-2.9918,-3.1389,-3.2732,-3.3636,-3.3638,-3.398,-3.4813,-3.5342,-3.5612,-3.5565,-3.6117,-3.6584,-3.697,-3.7072,-3.7274,-3.7579,-3.7301,-3.673,-3.6039,-3.6288,-3.5938,-3.5291,-3.6296,-3.7296,-3.8316,-3.9211,-3.9688,-3.9878,-4.0058,-4.0098,-4.0098,0.0,0.0,0.0,0.0,0.0,0.0,0.0,0.0,0.0,0.0,-1.4344,-1.5898,-1.8439,-1.961,-2.0528,-2.1232,-2.2153,-2.1656,-1.9186,-1.8918,0.0,0.0,0.0,0.0,-2.529,-2.5588,-2.7408,-3.0948,-3.1682,-3.2098,-3.2202,-3.3028,-3.3834,-3.4603,-3.4603,-3.5051,-3.583,-3.5841,-3.5899,-3.5724,-3.3227,-3.1118,-2.9104,0.0,0.0,0.0,0.0,0.0,0.0,0.0,0.0,0.0,0.0,0.0,0.0,0.0,0.0,0.0,0.0,0.0,0.0,0.0,0.0,0.0,0.0,0.0,0.0,0.0,0.0,0.0,0.0,0.0,0.0,0.0,0.0,0.0,-2.69,-2.8685,-3.0425,-3.1661,-3.2828,-3.328,-3.2629,-3.3091,-3.3164,-3.243,-3.243,-3.2916,-3.3875,-3.3961,-3.4241,-3.485,-3.4906,-3.5011,-3.5284,-3.5262,-3.6066,-3.7626,-3.6654,-3.6662,-3.7521,-3.6644,-3.5009,-3.2923,-3.5042,-3.4615,-3.2611,-3.5096,-3.6054,-3.6103,-3.7823,-3.8912,-3.9561,-3.9807,-3.987,-3.9889,0.0,0.0,0.0,0.0,0.0,0.0,0.0,0.0,0.0,0.0,-1.398,-1.5979,-1.6753,-1.9325,-2.1079,-2.1278,-2.2121,-2.2333,-2.1636,0.0,0.0,0.0,0.0,0.0,-2.6296,-2.8275,-3.0098,-3.178,-3.1362,-3.2134,-3.3981,-3.3587,-3.3852,-3.4676,-3.458,-3.4315,-3.3971,-3.4501,-3.4745,-3.4777,-3.4782,-3.3323,-3.103,0.0,0.0,0.0,0.0,0.0,0.0,0.0,0.0,0.0,0.0,0.0,0.0,0.0,0.0,0.0,0.0,0.0,0.0,0.0,0.0,0.0,0.0,0.0,0.0,0.0,0.0,0.0,0.0,0.0,0.0,0.0,0.0,-3.0837,-3.0485,-3.0996,-3.2089,-3.3891,-3.4206,-3.4233,-3.4033,-3.4259,-3.4315,-3.4128,-3.4129,-3.4263,-3.4548,-3.396,-3.3752,-3.4017,-3.4586,-3.4823,-3.4647,-3.5802,-3.6467,-3.6673,-3.6311,-3.6252,-3.6483,-3.5549,-3.5089,-3.5016,-3.4933,-3.4945,-3.5053,-3.5739,-3.634,-3.6918,-3.7737,-3.8163,-3.8391,-3.9227,-3.9575,-3.9453,0.0,0.0,0.0,0.0,0.0,0.0,0.0,0.0,0.0,0.0,-1.4474,-1.6411,-1.7536,-2.0169,-2.1839,-2.1809,-2.2623,-2.2511,-2.107,0.0,0.0,0.0,0.0,-2.6,-2.7662,-2.959,-3.0872,-3.1476,-3.1323,-3.2044,-3.3521,-3.3348,-3.3719,-3.4535,-3.4451,-3.4356,-3.4268,-3.4672,-3.4855,-3.4932,-3.5437,-3.4303,-3.2241,-3.1783,-3.0225,-2.8224,-2.7797,-2.7669,-2.7549,-2.6586,0.0,0.0,0.0,0.0,0.0,0.0,0.0,0.0,0.0,0.0,0.0,0.0,0.0,0.0,0.0,0.0,0.0,0.0,0.0,0.0,0.0,0.0,0.0,0.0,-3.1657,-3.3865,-3.3782,-3.376,-3.4225,-3.5486,-3.5039,-3.4645,-3.4583,-3.4666,-3.4727,-3.4727,-3.4747,-3.4769,-3.4812,-3.4358,-3.3791,-3.3147,-3.4488,-3.4899,-3.4234,-3.607,-3.7044,-3.7144,-3.6668,-3.6425,-3.6406,-3.5514,-3.4848,-3.4377,-3.4762,-3.487,-3.4824,-3.5774,-3.6678,0.0,0.0,0.0,0.0,0.0,-4.0352,-4.0282,0.0,0.0,0.0,0.0,0.0,0.0,0.0,0.0,0.0,0.0,0.0,-1.6918,-1.9352,-2.14,-2.257,-2.2505,-2.3164,-2.2234,0.0,0.0,0.0,-2.369,-2.4853,-2.6549,-2.9021,-2.9938,-3.0501,-3.0731,-3.141,-3.1873,-3.2175,-3.2802,-3.3519,-3.4292,-3.4301,-3.47,-3.5398,-3.5414,-3.5454,-3.5504,-3.5412,-3.4532,-3.3179,-3.2309,-3.1083,-2.9678,-2.8836,-2.8529,-2.8523,-2.8332,0.0,0.0,0.0,0.0,0.0,0.0,0.0,0.0,0.0,0.0,0.0,0.0,0.0,0.0,0.0,0.0,0.0,0.0,0.0,0.0,0.0,0.0,0.0,0.0,-3.4148,-3.6027,-3.6569,-3.6495,-3.6348,-3.6296,-3.5325,-3.4645,-3.4583,-3.4623,-3.4604,-3.4623,-3.4666,-3.4766,-3.4904,0.0,0.0,0.0,0.0,-3.5179,-3.4157,-3.6174,-3.7478,-3.8016,-3.7192,-3.6798,-3.6747,-3.6023,-3.4594,-3.2821,-3.4767,-3.4867,-3.3813,-3.5845,-3.7238,-3.8133,-3.8427,-3.9122,-4.0024,-4.07,-4.1248,-4.1613,0.0,0.0,0.0,0.0,0.0,0.0,0.0,0.0,0.0,-1.2909,-1.4833,-1.6637,-1.8328,-2.0916,-2.2519,-2.2507,-2.2019,-2.1168,0.0,0.0,-2.2038,-2.375,-2.5939,-2.7714,-2.8989,-2.986,-3.0709,-3.148,-3.0954,-3.1768,-3.3819,-3.3277,-3.348,-3.4293,-3.4245,-3.3928,-3.348,-3.4074,-3.4319,-3.4371,-3.5002,-3.5134,-3.4899,-3.455,-3.4257,-3.3983,-3.3734,-3.3694,-3.3547,-3.2191,-3.1264,-3.0776,-3.1253,0.0,0.0,0.0,0.0,0.0,0.0,0.0,0.0,0.0,0.0,0.0,0.0,0.0,0.0,0.0,0.0,0.0,0.0,0.0,0.0,-3.347,-3.6363,-3.83,-3.7641,-3.746,-3.6803,-3.5152,-3.4661,-3.4495,-3.4602,-3.4645,-3.4687,-3.4768,-3.4768,-3.503,-3.5584,-3.5044,-3.4792,-3.4881,-3.5323,-3.5342,-3.4961,-3.5965,-3.6483,-3.6425,0.0,0.0,-3.5915,-3.566,-3.5648,-3.5846,-3.6213,-3.6844,-3.763,-3.8203,-3.926,-4.0372,-3.8932,-3.9294,-4.0427,-3.8261,-3.9135,-4.1218,0.0,0.0,0.0,0.0,0.0,0.0,0.0,0.0,0.0,0.0,-1.3528,-1.5535,-1.7479,-1.9458,-2.0804,-2.121,-2.008,0.0,0.0,-2.184,-2.3252,-2.4981,-2.7069,-2.8431,-2.8943,-2.98,-3.049,-3.0951,-3.0508,-3.1191,-3.2894,-3.2877,-3.3295,-3.4116,-3.4529,-3.4477,-3.412,-3.447,-3.4626,-3.4721,-3.507,-3.5239,-3.5281,-3.5193,-3.5176,-3.5193,-3.5127,-3.5145,-3.5064,-3.412,-3.3551,-3.332,-3.3684,-3.2419,-3.039,0.0,0.0,0.0,0.0,0.0,0.0,0.0,0.0,0.0,0.0,0.0,0.0,0.0,0.0,-3.0602,0.0,0.0,-3.4043,-3.5665,-3.7127,-3.807,-3.8099,-3.8194,-3.7528,-3.5586,-3.4808,-3.4618,-3.5007,-3.509,-3.53,-3.5773,-3.5791,-3.5914,-3.6192,-3.5904,-3.544,-3.4772,-3.5906,-3.6039,-3.511,-3.69,-3.7549,-3.7039,-3.7308,-3.719,-3.6692,-3.6608,-3.6772,-3.7166,-3.747,-3.818,-3.9185,-4.0002,-4.0824,-4.1474,-4.0217,-4.0619,-4.1632,-3.9882,-4.0478,-4.2004,0.0,0.0,0.0,0.0,0.0,0.0,0.0,0.0,0.0,0.0,-1.2271,-1.4223,-1.662,-1.7826,-1.8713,0.0,0.0,0.0,0.0,-2.236,-2.4126,-2.6662,-2.8056,-2.896,-2.9346,-2.9875,-3.0219,-3.039,-3.0219,-3.0596,-3.1446,-3.229,-3.3115,-3.3917,-3.4811,-3.5235,-3.5288,-3.5219,-3.5251,-3.5336,-3.5239,-3.5209,-3.5209,-3.5209,-3.5209,-3.5193,-3.511,-3.5129,-3.5164,-3.5001,-3.5001,-3.5075,-3.502,-3.5107,-3.432,-2.9683,-2.9944,0.0,0.0,0.0,0.0,0.0,0.0,0.0,0.0,0.0,-3.0828,-3.1168,-3.2171,-3.3216,-3.4028,-3.4255,-3.5215,-3.7926,-3.7828,-3.7655,-3.8331,-3.8563,-3.8074,-3.6411,-3.5443,-3.5133,-3.5659,-3.569,-3.5962,-3.6668,-3.6705,-3.676,-3.6774,-3.6883,-3.6311,-3.4934,-3.6691,-3.7081,-3.5846,-3.7965,-3.8791,-3.8269,-3.8582,-3.833,-3.7667,-3.7737,-3.7772,-3.7788,-3.8599,-3.9301,-3.9911,-4.1241,-4.1841,-4.1899,-4.1078,-4.155,-4.2598,-4.2105,-4.2214,-4.2647,0.0,0.0,0.0,0.0,0.0,0.0,0.0,0.0,0.0,0.0,0.0,0.0,0.0,0.0,0.0,0.0,0.0,0.0,-2.1079,-2.3379,-2.5844,-2.8328,-2.8597,-2.9409,-3.0907,-3.0281,-3.03,-3.1094,-3.03,-3.0373,-3.1244,-3.2184,-3.3035,-3.3851,-3.4776,-3.519,-3.5207,-3.519,-3.5209,-3.5223,-3.5209,-3.5209,-3.5209,-3.5209,-3.5209,-3.5193,-3.5056,-3.5092,-3.52,-3.5111,-3.5057,-3.5001,-3.5001,-3.4964,-3.4413,-3.1676,0.0,-3.0284,-2.536,-2.3077,-2.2607,-2.4791,-2.7659,-2.996,0.0,0.0,-3.6469,-3.4971,-3.6525,-3.8437,-3.9298,-3.9451,-3.9603,-3.9985,-3.9814,-3.9373,-3.8606,-3.8361,-3.7839,-3.6694,-3.6482,-3.6463,-3.6474,-3.6369,-3.6325,-3.6454,-3.6454,-3.675,-3.7451,-3.7488,-3.7661,-3.7973,-3.8266,-3.8524,-3.8805,-3.8409,-3.8451,-3.887,-3.8312,-3.7864,-3.7649,-3.8102,-3.8306,-3.8394,-3.9658,-4.038,-4.0724,-4.1341,-4.1692,-4.1639,-3.9944,-4.0447,-4.2139,-4.1845,-4.1667,-4.1551,0.0,0.0,0.0,0.0,0.0,0.0,0.0,0.0,0.0,0.0,0.0,0.0,0.0,0.0,0.0,0.0,0.0,0.0,-1.9388,-2.1845,-2.4542,-2.747,-2.7725,-2.8548,-3.0243,-3.0028,-3.0324,-3.1142,-3.0309,-3.0591,-3.1896,-3.1779,-3.2441,-3.3767,-3.4179,-3.4277,-3.4112,-3.4131,-3.4131,-3.4093,-3.4093,-3.4471,-3.5037,-3.5037,-3.5037,-3.4829,-3.333,-3.2851,0.0,0.0,-3.2748,-3.3031,-3.4491,-3.3995,-3.2638,-3.1559,-3.0653,0.0,-2.8053,-2.8188,0.0,0.0,-3.3142,-3.5411,-3.5921,-3.7693,-3.9026,-3.8323,-3.903,-3.9871,-4.0234,-3.8918,-3.8347,0.0,-3.8724,-3.7845,-3.8836,-3.8908,-3.8592,-3.7893,-3.663,-3.5613,-3.5095,-3.6168,-3.6552,-3.5643,-3.6864,-3.7771,-3.8053,-3.8102,-3.8376,-3.894,-3.9028,-3.9361,-3.9986,-3.9535,-3.9464,-3.9697,-3.885,-3.8142,-3.7686,-3.786,-3.7955,-3.8077,-3.9473,-4.0161,-4.0388,-4.1051,-4.1343,-4.135,-4.0215,-4.0597,-4.1528,-4.0338,-4.0554,-4.141,0.0,0.0,0.0,0.0,0.0,0.0,0.0,0.0,0.0,0.0,0.0,0.0,0.0,0.0,0.0,0.0,0.0,0.0,0.0,-2.0793,-2.3498,-2.6894,-2.7028,-2.7885,-2.9756,-2.9739,-3.0076,-3.0885,-3.0058,-3.0433,-3.1902,-3.1525,-3.2128,-3.3563,-3.3866,-3.3807,-3.3524,-3.3567,-3.3585,-3.3524,-3.3524,-3.3984,-3.4674,-3.4674,-3.4279,-3.3468,-3.1711,-3.1172,0.0,0.0,-3.045,-3.135,-3.2449,-3.2101,-3.1175,-3.0625,-2.9569,-2.8772,-2.9522,0.0,0.0,-3.4618,-3.6578,-3.8441,-3.9852,-4.0176,-4.0176,-4.0234,-4.0234,-4.0139,-3.9871,-3.8115,-3.737,-3.941,-3.7807,-3.6975,-3.8962,-3.9173,-3.8776,-3.7819,-3.6166,-3.4383,-3.2371,-3.4861,-3.6431,-3.5948,-3.7478,-3.8401,-3.8368,-3.8382,-3.8682,-3.9278,-3.9385,-3.9769,-4.0486,-4.0157,-3.9985,-4.0024,-3.9062,-3.8292,-3.7776,-3.8033,-3.8269,-3.8587,-3.9851,-4.0475,-4.0646,-4.1152,-4.139,-4.1392,-4.0629,-4.09,-4.141,-3.9586,-3.9954,-4.1389,0.0,0.0,0.0,0.0,0.0,0.0,0.0,0.0,0.0,0.0,0.0,0.0,0.0,0.0,0.0,0.0,0.0,0.0,0.0,-2.1246,-2.3618,-2.7485,-2.7135,-2.7897,-3.0243,-2.9579,-2.9579,-3.0317,-2.9518,-2.9659,-3.0684,-3.1553,-3.2379,-3.3156,-3.407,-3.4342,-3.4067,-3.4067,-3.4067,-3.4067,-3.4067,-3.4086,-3.4128,-3.4128,-3.2664,-3.0644,-3.077,0.0,0.0,0.0,-2.8857,-3.0601,-2.8265,-2.9132,0.0,-2.9055,-2.7999,0.0,0.0,0.0,-2.9658,-3.3866,-3.559,-3.6956,-3.9526,-4.0098,-4.0098,-4.0117,-4.0057,-3.9728,-3.8809,-3.8537,-3.8411,-3.8371,-3.8047,-3.8143,-3.8971,-3.8881,-3.7826,-3.5392,-3.5054,-3.313,0.0,-3.2145,-3.5818,-3.8016,-3.8204,-3.8259,-3.8307,-3.8186,-3.8482,-3.9278,-3.9246,-3.9638,-4.0475,-3.9693,-3.9441,-3.9612,-3.8528,-3.8013,-3.8018,-3.9075,-3.9914,-4.0648,-4.151,-4.192,-4.2011,-4.2028,-4.2098,-4.1977,-4.075,-4.1117,-4.2083,-4.0292,-4.0325,-4.1206,0.0,0.0,0.0,0.0,0.0,0.0,0.0,0.0,0.0,0.0,0.0,0.0,0.0,0.0,0.0,0.0,0.0,0.0,0.0,-1.9867,-2.2203,-2.5691,-2.6757,-2.7889,-2.9255,-2.9252,-2.9536,-3.0226,-2.9429,-2.9742,-3.1057,-3.084,-3.1431,-3.2724,-3.3074,-3.3105,-3.2838,-3.2855,-3.2828,-3.2838,-3.2838,-3.3275,-3.3744,-3.217,-3.1043,-2.9876,0.0,0.0,0.0,0.0,0.0,-2.5781,-2.6746,-2.609,-2.4765,-2.381,-2.6107,-2.8889,0.0,0.0,-3.3961,-3.5401,-3.7299,-3.903,-3.9887,-4.0117,-4.0117,-4.0117,-3.8765,-3.7509,-3.7147,-3.5409,-3.4614,-3.6355,-3.5268,-3.5294,-3.8507,-3.6445,-3.5292,-3.7228,-3.4587,0.0,0.0,0.0,0.0,-3.3629,-3.6445,-3.8174,-3.8104,-3.8576,-3.8978,-3.9316,-3.9811,-4.0264,-4.0665,-3.9919,-3.9738,-4.0246,-3.911,-3.8731,-3.9069,-3.9063,-3.9226,-3.9666,-4.0971,-4.1451,-4.1271,-4.1733,-4.1989,-4.2054,-4.1213,-4.1418,-4.2104,-4.17,-4.203,-4.2508,0.0,0.0,0.0,0.0,0.0,0.0,0.0,0.0,0.0,0.0,0.0,0.0,0.0,0.0,0.0,0.0,0.0,0.0,0.0,0.0,-2.0537,-2.3682,-2.4753,-2.5606,-2.639,-2.7218,-2.7771,-2.8082,-2.853,-2.9539,-3.1071,-3.0622,-3.1261,-3.2776,-3.283,-3.2711,-3.248,-3.2484,-3.234,-3.2087,-3.148,-3.1302,-3.1172,-2.9089,-2.7575,0.0,0.0,0.0,0.0,0.0,0.0,0.0,-2.3912,-2.2978,-2.1786,-2.3066,-2.5997,-2.9082,-3.0207,-3.3217,-3.6283,-3.7236,-3.8698,-3.9973,-4.0015,-4.0015,-3.9975,-3.9975,-3.8702,-3.7107,-3.5514,-3.3588,-3.2858,-3.475,-3.3747,-3.4345,-3.8836,-3.7131,-3.606,-3.7812,-3.5257,-3.4235,0.0,0.0,0.0,-3.2602,-3.5755,-3.7631,-3.7238,-3.7738,-3.8592,-3.9776,-4.0052,-4.0283,-4.0497,-4.0292,-4.0402,-4.0746,-3.9686,-3.9397,-3.9768,-3.9734,-3.9402,-3.8836,-4.0962,-4.1274,-4.0473,-4.1694,-4.2276,-4.2348,-4.2035,-4.2134,-4.2501,-4.2664,-4.3036,-4.324,0.0,0.0,0.0,0.0,0.0,0.0,0.0,0.0,0.0,0.0,0.0,0.0,0.0,0.0,0.0,0.0,0.0,0.0,0.0,0.0,0.0,-2.1651,-2.143,-2.1536,-2.2144,-2.3848,-2.4551,-2.4196,-2.6765,-2.8811,-3.0322,-3.0586,-3.1528,-3.2954,-3.299,-3.2925,-3.2746,-3.2746,-3.2343,-3.1541,-2.9994,-2.8407,-2.6788,-2.5147,0.0,0.0,0.0,0.0,0.0,0.0,0.0,0.0,0.0,-2.0295,-2.2027,-2.6368,-2.7545,-2.8371,-3.2831,-3.5006,-3.6587,-3.9058,-3.9689,-3.9712,-3.9826,-3.9804,-3.9724,-3.9554,-3.9368,-3.7957,0.0,0.0,-3.2747,-3.346,-3.3469,-3.503,-3.9642,-4.0292,-3.9422,0.0,0.0,0.0,0.0,0.0,0.0,-3.4879,0.0,-3.6801,-3.6027,-3.6061,-3.7478,-4.0524,-3.9988,-3.9782,-4.0003,-4.0849,-4.1188,-4.1033,-4.0189,-3.9962,-4.0251,-4.1064,-4.0365,-3.8691,-4.1391,-4.1529,-3.9968,-4.2053,-4.2899,-4.2961,-4.3052,-4.3113,-4.3113,-4.3113,-4.3235,-4.3449,0.0,0.0,0.0,0.0,0.0,0.0,0.0,0.0,0.0,0.0,0.0,0.0,0.0,0.0,0.0,0.0,0.0,0.0,0.0,0.0,0.0,0.0,0.0,0.0,0.0,0.0,0.0,0.0,0.0,-2.4743,-2.5209,-2.6357,-2.7441,-2.839,-2.8958,-2.9254,-2.9347,-2.9318,-2.8574,-2.7476,0.0,-2.6726,-2.5015,0.0,0.0,0.0,0.0,0.0,0.0,0.0,0.0,0.0,0.0,-2.4031,-2.4983,-2.5619,-2.8463,-3.1689,-3.2868,-3.5904,-3.8836,-3.94,-3.9575,-3.9532,-3.9141,-3.9327,-3.8794,-3.6029,-3.4277,-3.2108,0.0,0.0,0.0,-3.1107,-3.1166,0.0,-3.7145,-3.6801,0.0,0.0,0.0,-3.7562,-3.871,-3.9427,0.0,0.0,-3.7681,-3.8783,-3.8569,-3.8684,-3.8874,-3.9268,-4.03,-4.0748,-4.0481,-4.0967,-4.1418,-4.1753,-4.1172,-4.1158,-4.1597,-4.198,-4.188,-4.152,-4.245,-4.2696,-4.2463,-4.3021,-4.3328,-4.3432,-4.3432,-4.3492,-4.3492,-4.3492,-4.3492,-4.3568,0.0,0.0,0.0,0.0,0.0,0.0,0.0,0.0,0.0,0.0,0.0,0.0,0.0,0.0,0.0,0.0,0.0,0.0,0.0,0.0,0.0,0.0,0.0,0.0,0.0,0.0,0.0,0.0,0.0,0.0,0.0,-2.454,-2.5438,-2.633,-2.7081,-2.7472,-2.7573,-2.778,0.0,0.0,0.0,0.0,0.0,0.0,0.0,0.0,0.0,0.0,0.0,0.0,0.0,-2.3929,-2.6115,-2.6531,-2.6662,-2.9054,0.0,-3.2996,-3.466,-3.7064,-3.9119,-3.9208,-3.9117,-3.8599,-3.7151,-3.6956,-3.5957,-3.2089,-3.0798,0.0,0.0,0.0,0.0,0.0,0.0,0.0,-3.6669,-3.6558,-3.6407,0.0,-3.7468,0.0,-4.1361,-4.162,-4.0828,0.0,-3.8637,-3.8491,-3.8123,-3.8225,-3.8862,-3.9966,-4.0645,-4.1174,-4.1533,-4.1375,-4.1708,-4.249,-4.1833,-4.1814,-4.2302,-4.2445,-4.2132,-4.1488,0.0,-4.2545,-4.2021,-4.2977,-4.3432,-4.3509,-4.3568,-4.3628,-4.3628,-4.3628,-4.3628,-4.3628,0.0,0.0,0.0,0.0,0.0,0.0,0.0,0.0,0.0,0.0,0.0,0.0,0.0,0.0,0.0,0.0,0.0,0.0,0.0,0.0,0.0,0.0,0.0,0.0,0.0,0.0,0.0,0.0,0.0,0.0,0.0,0.0,0.0,0.0,0.0,0.0,0.0,0.0,0.0,0.0,0.0,0.0,0.0,0.0,0.0,0.0,0.0,0.0,0.0,0.0,-2.5508,-2.4866,-2.8703,-2.8586,-2.8139,-3.3653,-3.4051,-3.3415,-3.6648,-3.7899,-3.8387,-3.8704,-3.8456,-3.7551,-3.5206,-3.4227,-3.2686,-2.8721,0.0,-2.7642,-2.3913,0.0,-2.679,-3.0584,0.0,-3.3539,-3.6622,-3.7664,-3.7987,-3.7593,-3.7827,-3.9265,-4.24,-4.2264,-4.1917,-4.1835,-3.9329,-3.7534,-3.6861,-3.7024,-3.8497,-4.1478,-4.1043,-4.1438,-4.2822,-4.2045,-4.2104,-4.3096,-4.2309,-4.2158,-4.2634,-4.2634,-4.1752,-4.0418,-4.2162,0.0,-4.0703,-4.2657,-4.3449,-4.3432,-4.3568,-4.3628,-4.3568,-4.3568,-4.3552,-4.3568,0.0,0.0,0.0,0.0,0.0,0.0,0.0,0.0,0.0,0.0,-1.0197,0.0,0.0,0.0,0.0,0.0,0.0,0.0,0.0,0.0,0.0,0.0,0.0,0.0,0.0,0.0,0.0,0.0,0.0,0.0,0.0,0.0,0.0,0.0,0.0,0.0,0.0,0.0,0.0,0.0,0.0,0.0,0.0,0.0,0.0,0.0,0.0,0.0,0.0,0.0,-2.6803,-2.7804,-3.1022,-3.1799,-3.1724,-3.2793,-3.3898,-3.4932,-3.5567,-3.7,-3.8259,-3.8176,-3.8092,-3.7799,-3.6915,-3.4961,0.0,0.0,0.0,-2.4779,-2.3925,-2.515,0.0,-3.1255,0.0,0.0,0.0,0.0,-3.8272,0.0,0.0,0.0,0.0,0.0,0.0,0.0,0.0,-3.9443,-3.9662,-3.9817,-4.0567,-4.196,-4.1653,-4.1905,-4.2992,-4.2864,-4.2911,-4.3096,-4.2691,-4.252,-4.2634,-4.2634,-4.2502,-4.2439,-4.2904,0.0,-4.2845,-4.3343,-4.3568,-4.3568,-4.3568,-4.3628,-4.3568,-4.3295,-4.3355,-4.3568,0.0,0.0,0.0,0.0,0.0,0.0,0.0,0.0,0.0,-0.9458,-0.988,-1.0471,0.0,0.0,0.0,0.0,0.0,0.0,0.0,0.0,0.0,0.0,0.0,0.0,0.0,0.0,0.0,0.0,0.0,0.0,0.0,0.0,0.0,0.0,0.0,0.0,0.0,0.0,0.0,0.0,0.0,0.0,0.0,0.0,0.0,0.0,0.0,0.0,0.0,0.0,-2.5559,-2.737,-3.119,-3.2754,-3.3121,-3.268,-3.3986,-3.5474,-3.5084,-3.6221,-3.7524,-3.7578,-3.7487,-3.6487,-3.3168,0.0,0.0,0.0,0.0,-2.1225,-2.0713,0.0,0.0,0.0,0.0,0.0,0.0,0.0,0.0,0.0,0.0,0.0,0.0,0.0,0.0,0.0,0.0,-3.8819,-3.9969,-4.0522,-4.11,-4.1837,-4.2167,-4.2549,-4.3065,-4.3054,-4.299,-4.2867,-4.2696,-4.2634,-4.2634,-4.2634,-4.2696,-4.2899,-4.3052,0.0,-4.1774,-4.2894,-4.2772,-4.1981,-4.2791,-4.3174,-4.3295,-4.2974,-4.2912,-4.3035,0.0,0.0,0.0,0.0,0.0,0.0,0.0,-0.9983,-0.9665,-0.9444,-0.9516,-1.0152,-1.1662,-1.1943,-1.234,0.0,0.0,0.0,0.0,0.0,0.0,0.0,0.0,0.0,0.0,0.0,0.0,0.0,0.0,0.0,0.0,0.0,0.0,0.0,0.0,0.0,0.0,0.0,0.0,0.0,0.0,0.0,0.0,0.0,0.0,0.0,0.0,0.0,0.0,0.0,-2.3842,-2.56,-2.9889,-3.1897,-3.2716,-3.2525,-3.3793,-3.5265,-3.5159,-3.598,-3.6891,-3.7091,-3.6952,-3.5399,-3.0106,-2.8276,0.0,0.0,-1.8638,-1.8878,-1.9071,0.0,0.0,0.0,0.0,0.0,0.0,0.0,0.0,0.0,0.0,0.0,0.0,0.0,0.0,0.0,0.0,0.0,-3.9915,-4.0622,-4.1208,-4.1638,-4.2422,-4.2841,-4.2867,-4.297,-4.2867,-4.2634,-4.2634,-4.2634,-4.2634,-4.2634,-4.2696,-4.2837,-4.299,0.0,0.0,-4.2228,-4.1911,-4.0358,-4.1943,-4.2772,-4.2974,-4.2585,-4.2522,-4.2585,0.0,0.0,0.0,0.0,0.0,0.0,0.0,-1.0108,-1.0255,-0.9585,-0.9505,-1.0124,-1.1729,-1.1959,-1.2356,0.0,0.0,0.0,0.0,0.0,0.0,0.0,0.0,0.0,0.0,0.0,0.0,0.0,0.0,0.0,0.0,0.0,0.0,0.0,0.0,0.0,0.0,0.0,0.0,0.0,0.0,0.0,0.0,0.0,0.0,0.0,0.0,0.0,0.0,0.0,0.0,-2.348,-2.6917,-2.8623,-2.9751,-3.1721,0.0,0.0,-3.6059,-3.6786,-3.6948,-3.6851,-3.6811,-3.5898,-3.2492,0.0,0.0,-2.316,-2.042,-1.9717,-2.3294,-2.4177,0.0,0.0,0.0,0.0,0.0,0.0,0.0,0.0,0.0,0.0,0.0,0.0,0.0,0.0,0.0,0.0,-4.0826,-4.0978,-4.1225,-4.1765,-4.2137,-4.2275,-4.2087,-4.2496,-4.2634,-4.2634,-4.2634,-4.2634,-4.2634,-4.2634,-4.2634,-4.2634,-4.2821,0.0,0.0,-4.2004,-4.1613,-3.9755,-4.1821,-4.2648,-4.2585,-4.2285,-4.2349,-4.2585,0.0,0.0,0.0,0.0,0.0,0.0,0.0,-0.943,-0.9515,-1.0032,-0.976,-1.0399,-1.2727,-1.2351,-1.2323,0.0,0.0,0.0,0.0,0.0,0.0,0.0,0.0,0.0,0.0,0.0,0.0,0.0,0.0,0.0,0.0,0.0,0.0,0.0,0.0,0.0,0.0,0.0,0.0,0.0,0.0,0.0,0.0,0.0,0.0,0.0,0.0,0.0,0.0,0.0,0.0,0.0,-2.3119,-2.4681,0.0,0.0,-3.1654,-3.4049,-3.4049,-3.5413,-3.6869,-3.6748,-3.6829,-3.5612,-3.0471,0.0,0.0,-2.1255,-1.9283,-1.8997,-2.0689,-2.1015,-2.2486,0.0,0.0,0.0,0.0,0.0,0.0,0.0,0.0,0.0,0.0,0.0,0.0,0.0,0.0,0.0,-4.1281,-4.1141,-4.1335,-4.2054,-4.2211,-4.2337,-4.2382,-4.255,-4.2634,-4.2634,-4.2634,-4.2634,-4.2634,-4.2634,-4.2634,-4.2634,-4.2696,0.0,0.0,-4.1087,-4.0474,-3.7825,-4.0828,-4.2093,-4.2285,-4.1916,-4.19,-4.1964,0.0,0.0,0.0,0.0,0.0,0.0,-0.9479,-0.9507,-0.9559,-0.9885,-1.0063,-1.0912,-1.2928,-1.2397,-1.2373,-1.3478,0.0,0.0,0.0,0.0,0.0,0.0,0.0,0.0,0.0,0.0,0.0,0.0,0.0,0.0,0.0,0.0,0.0,0.0,0.0,0.0,0.0,0.0,0.0,0.0,0.0,0.0,0.0,0.0,0.0,0.0,0.0,0.0,0.0,0.0,0.0,0.0,0.0,0.0,0.0,0.0,-3.0254,-3.3439,-3.3054,-3.4856,-3.6869,-3.6806,-3.6344,-3.4475,0.0,0.0,0.0,-1.9542,-1.8251,-1.8272,-1.8823,-1.8506,-1.9615,-2.3995,0.0,0.0,0.0,0.0,0.0,0.0,0.0,0.0,0.0,0.0,0.0,0.0,0.0,0.0,-4.181,-4.1555,-4.166,-4.2285,-4.2456,-4.2561,-4.2634,-4.2634,-4.2634,-4.2634,-4.2634,-4.2294,-4.1756,-4.2342,-4.2215,-4.1666,-4.2296,0.0,0.0,-4.0638,-3.9982,-3.7183,-4.0372,-4.172,-4.1916,-4.172,-4.1588,-4.1588,0.0,0.0,0.0,0.0,0.0,0.0,0.0,-1.0784,-1.093,-0.888,-1.0396,-1.1706,-1.1808,-1.1926,-1.2589,-1.4067,0.0,0.0,0.0,0.0,0.0,0.0,0.0,0.0,0.0,0.0,0.0,0.0,0.0,0.0,0.0,0.0,0.0,0.0,0.0,0.0,0.0,0.0,0.0,0.0,0.0,0.0,0.0,0.0,0.0,0.0,0.0,0.0,0.0,0.0,0.0,0.0,0.0,0.0,0.0,0.0,-2.8759,-3.1739,-3.4038,-3.5794,-3.6987,-3.6987,-3.5232,-3.2511,0.0,0.0,0.0,-1.921,-1.7871,-1.7874,-1.9418,-1.8436,-1.916,-2.4524,-2.5384,0.0,0.0,0.0,0.0,0.0,0.0,0.0,0.0,0.0,0.0,0.0,0.0,0.0,-4.2665,-4.2444,-4.2301,-4.2318,-4.2797,-4.2912,-4.2634,-4.2634,-4.2634,-4.2634,-4.2634,-4.1578,-3.9682,-4.1707,-4.1423,0.0,0.0,0.0,0.0,-4.1024,-4.0515,-3.8681,-4.0767,-4.1588,-4.1588,-4.1588,-4.1588,-4.1588,0.0,0.0,0.0,0.0,0.0,0.0,0.0,-0.9232,-0.9444,-0.9237,-0.9786,-1.0752,-1.218,-1.2103,-1.2503,-1.3955,0.0,0.0,0.0,0.0,0.0,0.0,0.0,0.0,0.0,0.0,0.0,-1.5124,-1.5862,0.0,0.0,0.0,0.0,0.0,0.0,0.0,0.0,0.0,0.0,0.0,0.0,0.0,0.0,0.0,0.0,0.0,0.0,0.0,0.0,0.0,0.0,0.0,0.0,0.0,0.0,0.0,0.0,0.0,-2.9105,-3.0282,-3.1317,-3.0773,-3.0088,-2.8667,-2.5322,0.0,0.0,-1.9167,-1.7908,-1.7698,-1.8698,-1.8067,-1.8984,-2.3864,-2.4629,0.0,0.0,0.0,0.0,0.0,0.0,0.0,0.0,0.0,0.0,0.0,0.0,0.0,-4.3105,-4.3162,-4.3162,-4.3043,-4.3015,-4.2883,-4.2837,-4.2696,-4.2634,-4.2634,-4.2634,-4.1455,-3.9467,-4.1539,-4.1222,0.0,0.0,0.0,0.0,-4.088,-4.0451,-3.8728,-4.0783,-4.1588,-4.1588,-4.1588,-4.1588,-4.1588,0.0,0.0,0.0,0.0,0.0,0.0,0.0,-0.8947,-0.9239,-0.9129,-0.982,-1.0833,-1.2132,-1.2104,-1.2538,-1.3955,0.0,0.0,0.0,0.0,0.0,0.0,0.0,0.0,0.0,0.0,-1.4219,-1.5204,-1.5605,-1.6384,-1.746,0.0,0.0,0.0,0.0,0.0,0.0,0.0,0.0,0.0,0.0,0.0,-2.115,0.0,0.0,0.0,0.0,0.0,0.0,0.0,0.0,0.0,0.0,0.0,0.0,0.0,-2.2855,0.0,0.0,-2.7736,-2.8732,-2.7971,-2.7109,0.0,0.0,0.0,0.0,0.0,-1.89,-1.9061,-1.8575,-1.888,-1.9856,-2.1831,-2.4418,0.0,0.0,0.0,0.0,0.0,0.0,0.0,0.0,0.0,0.0,0.0,0.0,0.0,-4.3426,-4.3432,-4.3432,-4.3492,-4.3129,-4.2945,-4.2899,-4.2696,-4.2634,-4.2634,-4.2634,-4.1455,-3.9424,-4.1477,-4.1144,0.0,0.0,0.0,0.0,-4.1132,-4.083,-3.9803,-4.1083,-4.1588,-4.1588,-4.1588,-4.1588,-4.1588,0.0,0.0,0.0,0.0,0.0,0.0,0.0,0.0,0.0,0.0,-1.0269,-1.1575,-1.1626,-1.191,-1.264,0.0,0.0,0.0,0.0,0.0,0.0,0.0,0.0,0.0,0.0,-1.3031,-1.3722,-1.5204,-1.5204,-1.5967,-1.7515,-1.7515,-1.7467,0.0,0.0,0.0,0.0,0.0,0.0,0.0,0.0,0.0,0.0,0.0,0.0,0.0,0.0,0.0,0.0,0.0,0.0,0.0,0.0,0.0,0.0,0.0,0.0,0.0,0.0,0.0,0.0,0.0,0.0,0.0,0.0,0.0,0.0,0.0,0.0,0.0,0.0,-2.0898,-2.1795,-1.9462,0.0,0.0,0.0,0.0,0.0,0.0,0.0,0.0,0.0,0.0,0.0,0.0,0.0,0.0,-4.3568,-4.3295,-4.3235,-4.3552,-4.3235,-4.3052,-4.2961,-4.2759,-4.2553,-4.2407,-4.2569,-4.1375,-3.924,-4.1397,-4.1082,0.0,0.0,0.0,0.0,-4.1588,-4.1588,-4.1588,-4.1588,-4.1588,-4.1522,-4.1522,-4.1522,-4.1374,0.0,0.0,0.0,0.0,0.0,0.0,0.0,0.0,0.0,0.0,-0.9354,-1.0267,-1.0944,-1.1613,-1.239,0.0,0.0,0.0,0.0,0.0,0.0,0.0,0.0,0.0,0.0,-1.3051,-1.3741,-1.5271,-1.5166,-1.5945,-1.7515,-1.7515,-1.7491,-1.7467,-1.7474,0.0,0.0,0.0,0.0,0.0,0.0,0.0,0.0,0.0,0.0,0.0,-1.8566,-1.8253,0.0,0.0,0.0,0.0,0.0,0.0,0.0,0.0,-1.9689,-2.0956,-2.1251,0.0,-2.1726,-2.0978,-1.9882,0.0,0.0,0.0,0.0,0.0,0.0,0.0,0.0,0.0,0.0,0.0,0.0,0.0,0.0,0.0,0.0,0.0,0.0,0.0,0.0,0.0,0.0,0.0,0.0,-4.3432,-4.3449,-4.3235,-4.3113,-4.3235,-4.3174,-4.3174,-4.3251,-4.3052,-4.2174,-4.0531,-4.1918,-4.0582,-3.6909,-4.0446,-4.0737,0.0,0.0,0.0,-4.139,-4.1522,-4.1522,-4.139,-4.1522,-4.1241,-4.0752,-4.0752,-4.0393,-3.9804,0.0,0.0,0.0,0.0,0.0,0.0,0.0,0.0,0.0,0.0,0.0,0.0,0.0,0.0,0.0,0.0,0.0,0.0,0.0,0.0,0.0,0.0,0.0,0.0,0.0,-1.3416,-1.4126,-1.5292,-1.5577,-1.632,-1.7515,-1.7515,-1.7515,-1.7515,-1.7467,0.0,0.0,0.0,0.0,0.0,-1.9414,0.0,0.0,0.0,0.0,0.0,-1.8243,-1.7947,0.0,-1.8184,-1.8307,-1.8072,0.0,0.0,0.0,0.0,-1.874,-1.9703,-1.924,-1.9682,-2.04,-2.0767,-1.9646,-1.8902,0.0,0.0,0.0,0.0,0.0,0.0,0.0,0.0,0.0,0.0,0.0,0.0,0.0,0.0,0.0,0.0,0.0,0.0,0.0,0.0,0.0,0.0,0.0,-4.3372,-4.3372,-4.3129,-4.3007,-4.3007,-4.2912,-4.2974,-4.3251,-4.299,-4.1792,-3.9723,-4.1536,-4.0598,-3.739,-4.0482,-4.1214,0.0,0.0,0.0,-4.1377,-4.0513,-4.0671,-4.1374,-4.1174,-4.082,-4.0478,-4.0115,-3.9677,-3.9233,0.0,0.0,0.0,0.0,0.0,0.0,0.0,0.0,0.0,0.0,0.0,0.0,0.0,0.0,0.0,0.0,0.0,0.0,0.0,0.0,0.0,0.0,0.0,0.0,-1.3206,-1.3847,-1.4559,-1.5292,-1.6039,-1.6785,-1.7515,-1.7515,-1.7541,-1.764,-1.756,-1.7863,-1.8402,-1.768,0.0,0.0,-1.8767,0.0,0.0,0.0,0.0,0.0,0.0,0.0,0.0,-1.8121,-1.827,-1.8211,-1.7234,0.0,0.0,0.0,0.0,0.0,-1.8525,-1.9693,-2.1282,-2.2993,-2.1515,-2.0286,0.0,0.0,0.0,0.0,0.0,0.0,0.0,0.0,0.0,0.0,0.0,0.0,0.0,0.0,0.0,0.0,0.0,0.0,0.0,0.0,0.0,0.0,0.0,-4.3312,-4.3251,-4.2945,-4.2775,-4.2775,-4.2664,-4.2726,-4.299,-4.2743,-4.1549,-3.9518,-4.1289,-4.0943,-3.8874,-4.0928,-4.1752,-4.1494,0.0,0.0,-4.1396,-3.9708,-3.9881,-4.1225,-4.0668,-4.0324,-4.0045,-3.9305,-3.9015,-3.8884,0.0,0.0,0.0,0.0,0.0,0.0,0.0,0.0,0.0,0.0,0.0,0.0,0.0,0.0,0.0,0.0,0.0,0.0,0.0,0.0,0.0,0.0,0.0,0.0,-1.3206,-1.3812,-1.4503,-1.5292,-1.5978,-1.6723,-1.7515,-1.7515,-1.7781,-1.8259,-1.8175,-1.8532,-1.9088,-1.8372,-1.8589,-1.9435,-1.9135,0.0,0.0,0.0,0.0,0.0,0.0,0.0,0.0,-1.668,-1.6993,-1.7461,-1.5853,0.0,0.0,0.0,0.0,0.0,-1.9044,-1.9734,-2.0794,-2.2691,-2.0714,-1.9152,-2.2482,0.0,0.0,0.0,0.0,0.0,0.0,0.0,0.0,0.0,0.0,0.0,0.0,0.0,0.0,0.0,0.0,0.0,0.0,0.0,0.0,0.0,0.0,-4.2899,-4.2759,-4.2429,-4.2238,-4.2238,-4.2365,-4.2445,-4.2508,-4.2539,-4.1533,-3.9418,-4.1227,-4.0927,-3.887,-4.0769,-4.1654,-4.1573,0.0,-4.1107,-4.1138,-4.1125,-4.066,-3.9929,-4.0124,-3.9331,-3.8204,-3.8055,-3.7767,-3.7352,0.0,0.0,0.0,0.0,0.0,0.0,0.0,0.0,0.0,0.0,0.0,0.0,0.0,0.0,0.0,0.0,0.0,0.0,0.0,0.0,0.0,0.0,-1.3754,-1.3735,-1.3733,-1.441,-1.5122,-1.5889,-1.6204,-1.6752,-1.7515,-1.7515,-1.7806,-1.8391,-1.7987,-1.8191,-1.8761,-1.8007,-1.828,-1.9223,0.0,0.0,0.0,0.0,0.0,0.0,0.0,0.0,0.0,0.0,-1.662,-1.653,-1.5695,0.0,0.0,0.0,0.0,0.0,-1.8599,-1.8996,-2.0272,-2.3862,-2.2084,-2.0829,-2.6053,0.0,0.0,0.0,0.0,0.0,0.0,0.0,0.0,0.0,0.0,0.0,0.0,0.0,0.0,0.0,0.0,0.0,0.0,0.0,0.0,0.0,0.0,0.0,-4.2508,-4.219,-4.1821,-4.1422,-4.1438,-4.1263,-4.0848,-4.0895,-4.0347,-3.9226,-4.0976,-4.069,-3.8737,-4.0689,-4.1588,-4.1525,0.0,-4.0497,-4.126,-3.9888,-3.9596,-4.003,-3.9203,-3.8487,-3.7933,-3.7567,-3.7197,-3.6978,0.0,0.0,0.0,0.0,0.0,0.0,0.0,0.0,0.0,0.0,0.0,0.0,0.0,0.0,0.0,0.0,0.0,0.0,0.0,0.0,-1.3826,-1.4466,-1.4649,-1.4665,-1.448,-1.5213,-1.5778,-1.6143,-1.6492,-1.7017,-1.7699,-1.7881,-1.8194,-1.8637,-1.793,-1.8012,-1.8595,-1.7787,-1.8062,-1.8969,0.0,0.0,0.0,0.0,0.0,0.0,0.0,0.0,0.0,0.0,0.0,0.0,0.0,0.0,0.0,-1.7251,-1.7867,-1.844,-1.831,-1.842,-1.9641,-2.4183,0.0,-2.1927,-2.9037,0.0,0.0,0.0,0.0,0.0,0.0,0.0,0.0,0.0,0.0,0.0,0.0,0.0,0.0,0.0,0.0,0.0,0.0,0.0,0.0,0.0,0.0,0.0,-4.2254,-4.1869,-4.1341,-4.0769,-4.0483,-4.0072,-3.9503,-3.9503,-3.9358,-3.9154,-4.0452,-4.0277,-3.8792,-4.0372,-4.1099,-4.102,-3.9424,-3.9503,-4.0629,-3.8657,-3.8519,-3.9451,-3.8281,-3.7782,-3.7749,-3.7211,-3.6978,-3.6978,0.0,0.0,0.0,0.0,0.0,0.0,0.0,0.0,0.0,0.0,0.0,0.0,0.0,0.0,0.0,0.0,0.0,0.0,0.0,0.0,-1.4924,-1.5042,-1.5698,-1.5835,-1.5321,-1.6037,-1.607,-1.5367,-1.6758,-1.7732,-1.8358,-1.8962,-1.9307,-1.9394,-1.8585,-1.8683,-1.935,-1.848,-1.8261,-1.8398,-1.7467,0.0,0.0,0.0,0.0,0.0,0.0,0.0,0.0,0.0,0.0,0.0,0.0,0.0,-1.7045,-1.7234,-1.7698,-1.8284,-1.8937,-1.8584,-1.8799,-2.1891,-2.0462,0.0,-2.8566,0.0,0.0,0.0,0.0,0.0,0.0,0.0,0.0,0.0,0.0,0.0,0.0,0.0,0.0,0.0,0.0,0.0,0.0,0.0,0.0,0.0,0.0,0.0,-4.1963,-4.1165,-4.0656,-4.0593,-3.9929,-3.955,-3.9503,-3.9503,-3.9471,-3.9486,-3.9582,-3.9566,-3.9424,-3.9582,-3.9645,-3.9645,-3.9487,-3.9044,-3.8484,-3.9041,-3.8312,-3.6919,-3.7523,-3.7414,-3.6786,-3.6915,-3.6978,-3.6978,0.0,0.0,0.0,0.0,0.0,0.0,0.0,0.0,0.0,0.0,0.0,0.0,0.0,0.0,0.0,0.0,0.0,0.0,0.0,0.0,-1.5294,-1.5819,-1.6165,-1.6425,-1.6636,-1.6548,-1.6548,-1.6675,-1.7592,-1.7963,-1.7774,-1.8447,0.0,0.0,-1.8112,-1.7972,-1.8228,-1.7856,-1.7453,-1.7058,-1.6636,-1.6082,0.0,0.0,0.0,0.0,0.0,0.0,0.0,0.0,-1.4217,-1.4093,0.0,-1.5737,-1.6333,-1.7435,-1.7921,-1.8057,-1.789,-1.792,-1.8961,-2.2948,0.0,0.0,0.0,0.0,0.0,0.0,0.0,0.0,0.0,0.0,0.0,0.0,0.0,0.0,0.0,0.0,0.0,0.0,0.0,0.0,0.0,0.0,0.0,0.0,0.0,0.0,-4.0436,-4.0135,-3.9724,-3.9313,-3.9029,-3.8681,-3.8254,-3.7779,-3.7577,-3.7577,-3.8447,-3.8852,-3.8852,-3.8446,-3.8233,-3.8233,-3.8233,-3.8101,-3.7714,-3.7545,-3.7019,-3.6447,-3.6664,-3.6493,-3.6192,-3.6774,-3.6978,-3.6978,0.0,0.0,0.0,0.0,0.0,0.0,0.0,0.0,0.0,0.0,0.0,0.0,0.0,0.0,0.0,0.0,0.0,0.0,0.0,0.0,-1.5707,-1.6551,-1.6621,-1.6898,-1.7377,-1.7047,-1.6953,-1.715,-1.7996,-1.8416,-1.84,-1.8868,0.0,0.0,0.0,0.0,0.0,-1.7485,-1.6927,-1.6236,-1.587,-1.5326,0.0,0.0,0.0,0.0,0.0,0.0,0.0,0.0,-1.398,0.0,0.0,0.0,0.0,-1.7203,-1.7684,-1.7698,-1.7023,-1.7189,-1.8543,0.0,0.0,0.0,0.0,0.0,0.0,0.0,0.0,0.0,0.0,0.0,0.0,0.0,0.0,0.0,0.0,0.0,0.0,0.0,0.0,0.0,0.0,0.0,0.0,0.0,0.0,0.0,0.0,-3.9297,-3.8981,-3.8523,-3.8302,-3.7954,-3.748,-3.6754,-3.643,-3.6445,-3.6903,-3.7279,-3.7491,-3.7014,-3.6813,-3.6813,-3.6813,-3.6664,-3.6476,-3.6146,-3.5941,-3.5956,-3.5826,-3.5723,-3.5717,-3.6262,-3.6529,-3.6697,0.0,0.0,0.0,0.0,0.0,0.0,0.0,0.0,0.0,0.0,0.0,0.0,0.0,0.0,0.0,0.0,0.0,0.0,0.0,-1.5602,-1.6306,-1.7158,-1.7199,-1.7273,-1.7411,-1.7512,-1.7215,-1.6415,-1.7814,-1.9207,-2.0475,-2.0562,0.0,0.0,0.0,0.0,0.0,0.0,-1.691,-1.6131,-1.5259,-1.4541,-1.3896,0.0,0.0,0.0,0.0,0.0,0.0,0.0,-1.4488,0.0,0.0,0.0,0.0,-1.6538,-1.688,-1.7179,-1.6669,-1.6564,0.0,0.0,0.0,0.0,0.0,0.0,0.0,0.0,0.0,0.0,0.0,0.0,0.0,0.0,0.0,0.0,0.0,0.0,0.0,0.0,0.0,0.0,0.0,0.0,0.0,0.0,0.0,0.0,0.0,-3.8855,-3.8507,-3.8507,-3.7844,-3.748,-3.748,-3.6754,-3.6368,-3.6368,-3.4978,-3.4647,-3.54,-3.54,-3.54,-3.54,-3.54,-3.4993,-3.4356,-3.5024,-3.5267,-3.5212,-3.5212,-3.5226,-3.5212,-3.5226,-3.562,-3.6065,0.0,0.0,0.0,0.0,0.0,0.0,0.0,0.0,0.0,0.0,0.0,0.0,0.0,0.0,0.0,0.0,0.0,0.0,0.0,-1.6394,-1.6938,-1.7199,-1.7298,-1.7371,-1.7411,-1.7474,-1.7638,-1.7872,-1.8772,-1.941,0.0,0.0,0.0,-1.9266,0.0,0.0,0.0,0.0,0.0,0.0,-1.5586,-1.4763,-1.3913,0.0,0.0,0.0,0.0,0.0,0.0,0.0,0.0,0.0,0.0,0.0,0.0,-1.8447,-1.7871,-1.6897,-1.8961,0.0,0.0,0.0,0.0,0.0,0.0,0.0,0.0,0.0,0.0,0.0,0.0,0.0,0.0,0.0,0.0,0.0,0.0,0.0,0.0,0.0,0.0,0.0,0.0,0.0,0.0,0.0,0.0,0.0,0.0,-3.7891,-3.7796,-3.7796,-3.7575,-3.727,-3.6754,-3.6039,-3.5449,-3.4898,-3.4016,-3.3948,-3.4581,-3.4153,-3.3908,-3.3908,-3.3908,-3.377,-3.3577,-3.3537,-3.3435,-3.3501,-3.3932,-3.4259,-3.4562,-3.4997,-3.5339,-3.5508,0.0,0.0,0.0,0.0,0.0,0.0,0.0,0.0,0.0,0.0,0.0,0.0,0.0,0.0,0.0,0.0,0.0,0.0,0.0,0.0,-1.7224,-1.7289,-1.7363,-1.7419,-1.7427,-1.7707,-1.8079,-1.8493,-1.8887,0.0,0.0,0.0,-1.982,-1.9465,0.0,-1.9804,0.0,0.0,0.0,0.0,-1.5098,-1.4255,-1.3391,0.0,0.0,0.0,0.0,0.0,0.0,0.0,0.0,0.0,0.0,0.0,0.0,-1.7813,-1.7996,-1.8299,-1.9972,0.0,0.0,0.0,0.0,0.0,0.0,0.0,0.0,0.0,0.0,0.0,0.0,0.0,0.0,0.0,0.0,0.0,0.0,0.0,0.0,0.0,0.0,0.0,0.0,0.0,0.0,0.0,0.0,0.0,0.0,-3.721,-3.7089,-3.7089,-3.6815,-3.643,-3.5976,-3.532,-3.4714,-3.4312,-3.3632,-3.3423,-3.3644,-3.3423,-3.3326,-3.3326,-3.3326,-3.3241,-3.3016,-3.2775,-3.2632,-3.2516,-3.2887,-3.3183,-3.3456,-3.3977,-3.4343,-3.4626,0.0,0.0,0.0,0.0,0.0,0.0,0.0,0.0,0.0,0.0,0.0,0.0,0.0,0.0,0.0,0.0,0.0,0.0,0.0,0.0,-1.7175,-1.7296,-1.7428,-1.7526,-1.7588,-1.8112,-1.8433,-1.8493,-1.8493,0.0,0.0,0.0,-2.0517,-2.0472,0.0,-1.928,0.0,0.0,0.0,-1.5108,-1.421,-1.3412,-1.2687,-1.2648,0.0,0.0,0.0,0.0,0.0,0.0,0.0,0.0,0.0,0.0,-1.8688,-1.5747,-1.7602,-2.0541,0.0,0.0,0.0,0.0,0.0,0.0,0.0,0.0,0.0,0.0,0.0,0.0,0.0,0.0,0.0,0.0,0.0,0.0,0.0,0.0,0.0,0.0,0.0,0.0,0.0,0.0,0.0,0.0,0.0,0.0,0.0,-3.6815,-3.643,-3.643,-3.5721,-3.54,-3.5335,-3.4647,-3.4245,-3.4177,-3.3563,-3.3016,-3.2704,-3.3086,-3.3255,-3.3255,-3.3255,-3.3016,-3.2632,-3.2632,-3.2417,-3.2055,-3.2055,-3.2055,-3.2128,-3.2489,-3.3049,-3.3591,0.0,0.0,0.0,0.0,0.0,0.0,0.0,0.0,0.0,0.0,0.0,0.0,0.0,0.0,0.0,0.0,0.0,0.0,0.0,0.0,-1.658,-1.6603,-1.7617,-1.8202,-1.8286,-1.835,-1.8433,-1.8493,-1.8493,0.0,0.0,0.0,0.0,-1.9022,0.0,-1.9893,0.0,0.0,0.0,-1.5801,-1.4771,-1.3985,-1.3428,-1.304,-1.2773,0.0,0.0,0.0,0.0,0.0,0.0,0.0,-1.2999,-1.3956,-1.5296,-1.6712,-1.8086,-1.972,0.0,0.0,0.0,0.0,0.0,0.0,0.0,0.0,0.0,0.0,0.0,0.0,0.0,0.0,0.0,0.0,0.0,0.0,0.0,0.0,0.0,0.0,0.0,0.0,0.0,0.0,0.0,0.0,0.0,0.0,-3.748,-3.6815,-3.643,-3.643,-3.5721,-3.5124,-3.4514,-3.438,-3.3905,0.0,-3.2917,-3.2775,-3.2704,-3.3086,-3.3157,-3.2846,-3.2846,-3.2417,-3.185,-3.185,-3.1776,-3.1703,-3.1703,-3.1836,-3.2128,-3.22,-3.2499,-3.2897,0.0,0.0,0.0,0.0,0.0,0.0,0.0,0.0,0.0,0.0,0.0,0.0,0.0,0.0,0.0,0.0,0.0,0.0,0.0,0.0,0.0,0.0,-1.7077,-1.7616,-1.8021,-1.7988,-1.7996,-1.8029,0.0,0.0,0.0,0.0,0.0,-1.895,0.0,-1.9022,0.0,0.0,0.0,-1.5016,-1.3985,-1.3404,-1.3107,-1.2896,-1.2729,-1.2609,-1.2613,0.0,0.0,0.0,0.0,0.0,0.0,0.0,-1.5663,-1.5717,-1.7183,-1.9183,0.0,0.0,0.0,0.0,0.0,0.0,0.0,0.0,0.0,0.0,0.0,0.0,0.0,0.0,0.0,0.0,0.0,0.0,0.0,0.0,0.0,0.0,0.0,0.0,0.0,0.0,0.0,0.0,0.0,-3.6585,-3.6952,-3.5834,-3.524,-3.537,-3.4743,-3.4221,-3.3811,-3.3659,-3.3241,-3.2704,-3.2489,-3.2417,-3.2417,-3.286,-3.2789,-3.2417,-3.2417,-3.2128,-3.1629,-3.1629,-3.1482,-3.1347,-3.1347,-3.1421,-3.1629,-3.1776,-3.2055,-3.2417,0.0,0.0,0.0,0.0,0.0,0.0,0.0,0.0,0.0,0.0,0.0,0.0,0.0,0.0,0.0,0.0,0.0,0.0,0.0,0.0,0.0,0.0,-1.6625,-1.6984,-1.7498,-1.7607,-1.7614,-1.7512,0.0,0.0,0.0,0.0,0.0,-1.953,0.0,0.0,0.0,0.0,0.0,-1.3916,-1.3141,-1.278,-1.2693,-1.268,-1.2712,-1.2772,-1.2668,-1.262,-1.2639,-1.2665,0.0,0.0,0.0,0.0,-1.6435,-1.4022,-1.5826,-1.8691,0.0,0.0,0.0,0.0,0.0,0.0,0.0,0.0,0.0,0.0,0.0,0.0,0.0,0.0,0.0,0.0,0.0,0.0,0.0,0.0,0.0,0.0,0.0,0.0,0.0,0.0,0.0,0.0,0.0,-3.5503,-3.6009,-3.4566,-3.3851,-3.4177,-3.3479,-3.31,-3.3171,-3.2789,-3.2561,-3.2489,-3.22,-3.1928,-3.1834,-3.2195,-3.2249,-3.1982,-3.1982,-3.185,-3.1482,-3.1482,-3.1272,-3.0986,-3.0986,-3.0986,-3.1061,-3.1421,-3.1776,-3.2128,0.0,0.0,0.0,0.0,0.0,0.0,0.0,0.0,0.0,0.0,0.0,0.0,0.0,0.0,0.0,0.0,0.0,0.0,-1.4836,0.0,0.0,-1.6464,-1.755,-1.7939,-1.7505,-1.8021,-1.8046,0.0,0.0,0.0,0.0,0.0,0.0,-2.0137,0.0,0.0,0.0,0.0,0.0,0.0,-1.3811,-1.3699,-1.3503,-1.3111,-1.32,-1.3487,-1.2906,-1.27,-1.2684,-1.2703,-1.2684,0.0,0.0,0.0,-1.3213,-1.2751,-1.5122,0.0,0.0,0.0,0.0,0.0,0.0,0.0,0.0,0.0,0.0,0.0,0.0,0.0,0.0,0.0,0.0,0.0,0.0,0.0,0.0,0.0,0.0,0.0,0.0,0.0,0.0,0.0,0.0,0.0,-3.5424,-3.5085,-3.4545,-3.3696,-3.3478,-3.3851,-3.2832,-3.2431,-3.2775,-3.2417,-3.2055,-3.1776,-3.1703,-3.1289,-3.0665,-3.1012,-3.1366,-3.1703,-3.1703,-3.1408,-3.1061,-3.1061,-3.1061,-3.0986,-3.0986,-3.0986,-3.1061,-3.1272,-3.1629,-3.2128,0.0,0.0,0.0,0.0,0.0,0.0,0.0,0.0,0.0,0.0,0.0,0.0,0.0,0.0,0.0,-1.5921,-1.5647,-1.5367,-1.5064,-1.537,-1.5832,-1.6425,-1.6984,-1.7358,-1.7498,-1.7748,-1.7748,0.0,0.0,0.0,0.0,-2.2005,-2.1779,0.0,0.0,0.0,0.0,0.0,0.0,0.0,0.0,0.0,0.0,-1.3682,-1.3581,-1.3657,-1.3012,-1.2757,-1.2757,-1.2757,-1.27,-1.2642,-1.2616,0.0,0.0,0.0,0.0,0.0,0.0,0.0,0.0,0.0,0.0,0.0,0.0,0.0,0.0,0.0,0.0,0.0,0.0,0.0,0.0,0.0,0.0,0.0,0.0,0.0,0.0,0.0,0.0,0.0,0.0,0.0,0.0,0.0,-3.3955,-3.3559,-3.3628,-3.2763,-3.2448,-3.2818,-3.2331,-3.22,-3.2345,-3.2141,-3.1877,-3.1582,-3.1236,-3.1043,-3.0863,-3.049,-3.0414,-3.0597,-3.0857,-3.0857,-3.0677,-3.093,-3.0986,-3.0986,-3.1123,-3.1198,-3.1198,-3.136,-3.1863,-3.2489,0.0,0.0,0.0,0.0,0.0,0.0,0.0,0.0,0.0,0.0,0.0,0.0,0.0,0.0,0.0,0.0,-1.5462,-1.5583,-1.5802,-1.5843,-1.6101,-1.6664,-1.6703,-1.6947,-1.7498,-1.7474,0.0,0.0,0.0,0.0,-2.2673,-2.3077,-2.3157,0.0,-2.2735,0.0,0.0,0.0,0.0,0.0,0.0,0.0,0.0,-1.4277,-1.4202,-1.425,-1.3391,-1.3086,-1.3054,-1.2821,-1.2678,-1.26,-1.2581,-1.2577,0.0,0.0,0.0,0.0,0.0,0.0,0.0,0.0,0.0,0.0,0.0,0.0,0.0,0.0,0.0,0.0,0.0,0.0,0.0,0.0,0.0,0.0,0.0,0.0,0.0,0.0,0.0,0.0,0.0,0.0,0.0,0.0,-3.2678,-3.229,-3.2621,-3.1882,-3.1629,-3.1982,-3.1836,-3.1836,-3.1982,-3.179,-3.1669,-3.1596,-3.1057,-3.099,-3.1095,-3.0294,-2.9807,-2.9707,-3.0082,-3.0262,-3.0302,-3.075,-3.0913,-3.0852,-3.122,-3.1272,-3.1347,-3.1522,-3.2023,-3.2561,0.0,0.0,0.0,0.0,0.0,0.0,0.0,0.0,0.0,0.0,0.0,0.0,-1.5212,-1.5092,-1.5124,-1.53,-1.5365,-1.5765,-1.6568,-1.6581,-1.6814,-1.7429,-1.7516,0.0,-1.7515,-1.7377,0.0,0.0,0.0,0.0,-2.1231,-2.2713,-2.4015,-2.5006,-2.2314,-2.1872,-2.2925,0.0,0.0,0.0,0.0,0.0,0.0,0.0,0.0,0.0,0.0,-1.3852,-1.3719,-1.2883,-1.262,-1.2581,-1.2518,-1.2514,-1.2514,0.0,0.0,0.0,0.0,0.0,0.0,0.0,0.0,0.0,0.0,0.0,0.0,0.0,0.0,0.0,0.0,0.0,0.0,0.0,0.0,0.0,0.0,0.0,0.0,0.0,0.0,0.0,0.0,0.0,0.0,0.0,-3.2146,-3.1809,-3.1123,-3.1048,-3.1198,-3.1629,-3.1272,-3.1272,-3.1629,-3.1421,-3.1434,-3.1609,-3.1394,-3.1103,-3.073,-3.0461,-2.998,-2.9228,-2.968,-2.9794,-2.9917,-3.049,-3.0599,-3.0507,-3.1061,-3.1272,-3.1347,-3.1522,-3.189,-3.2314,0.0,0.0,0.0,0.0,0.0,0.0,0.0,0.0,0.0,0.0,0.0,0.0,0.0,-1.5561,-1.5665,-1.5276,-1.5263,-1.5574,-1.6276,-1.5923,-1.5967,-1.6574,-1.6215,-1.6198,-1.6584,-1.6544,0.0,0.0,0.0,-1.7952,-1.9636,-2.0223,-2.1263,-2.2705,-2.531,-2.4842,-2.2167,-2.379,0.0,0.0,0.0,0.0,0.0,0.0,0.0,0.0,0.0,0.0,0.0,-1.3907,-1.2919,-1.2613,-1.2577,-1.2558,-1.2669,0.0,0.0,0.0,0.0,0.0,0.0,0.0,0.0,0.0,0.0,0.0,0.0,0.0,0.0,0.0,0.0,0.0,0.0,0.0,0.0,0.0,0.0,0.0,0.0,0.0,0.0,0.0,0.0,0.0,0.0,0.0,0.0,-3.0228,-3.0934,-3.0013,-2.9981,-3.1172,-3.1198,-3.1421,-3.1803,-3.173,-3.1817,-3.1963,-3.1803,-3.1623,-3.1481,-3.0863,-3.0321,-2.9766,-2.9536,-2.9388,-2.9441,-2.9961,-3.0286,-3.0645,-3.0943,-3.1336,-3.173,-3.189,-3.2241,-3.2574,0.0,0.0,0.0,0.0,0.0,0.0,0.0,0.0,0.0,-1.5346,0.0,0.0,0.0,0.0,-1.5632,-1.5209,-1.5192,-1.5385,-1.5841,-1.5456,-1.5501,-1.6105,-1.5731,-1.5791,-1.6393,-1.6182,0.0,0.0,0.0,0.0,0.0,-1.8719,-1.9739,-2.1279,-2.558,-2.5979,0.0,0.0,0.0,-2.1324,0.0,0.0,-1.9599,0.0,0.0,0.0,0.0,0.0,0.0,0.0,-1.5669,-1.4352,0.0,0.0,0.0,0.0,0.0,0.0,0.0,0.0,0.0,0.0,0.0,0.0,0.0,0.0,0.0,0.0,0.0,0.0,0.0,0.0,0.0,0.0,0.0,0.0,0.0,0.0,0.0,0.0,0.0,0.0,0.0,0.0,0.0,0.0,0.0,0.0,-3.0921,-3.0046,-3.0026,-3.1185,-3.136,-3.1582,-3.189,-3.189,-3.2036,-3.2182,-3.2036,-3.189,-3.1803,-3.1256,-3.0748,-3.0147,-2.9697,-2.9282,-2.9026,-2.9483,-3.0003,-3.0552,-3.0864,-3.1379,-3.189,-3.2036,-3.23,-3.2574,0.0,0.0,0.0,0.0,0.0,0.0,0.0,0.0,-1.6121,-1.6005,0.0,0.0,0.0,0.0,0.0,-1.5114,-1.5178,-1.5279,-1.5391,-1.5334,-1.556,-1.6151,-1.6219,-1.6485,-1.6912,-1.6281,-1.5926,0.0,0.0,0.0,0.0,0.0,-1.9761,-2.0975,-2.2652,-2.4871,-2.751,0.0,-2.8686,-2.8371,0.0,-2.5062,-2.3951,0.0,0.0,0.0,-2.3363,-2.2375,0.0,-2.2543,0.0,0.0,0.0,0.0,0.0,0.0,0.0,0.0,0.0,0.0,0.0,0.0,0.0,0.0,0.0,0.0,0.0,0.0,0.0,0.0,0.0,0.0,0.0,0.0,0.0,0.0,0.0,0.0,0.0,0.0,0.0,0.0,0.0,0.0,0.0,0.0,-3.0934,-3.1009,-3.0986,-3.1198,-3.1434,-3.1609,-3.1609,-3.1683,-3.189,-3.189,-3.2036,-3.2182,-3.2036,-3.1817,-3.1609,-3.1609,-3.1203,-3.0447,-3.0231,-2.9592,-2.8695,-2.9252,-2.9767,-3.0183,-3.0788,-3.1379,-3.189,-3.189,-3.2036,-3.2241,0.0,0.0,0.0,0.0,0.0,0.0,-1.5126,-1.5192,-1.5265,0.0,0.0,0.0,-1.5054,-1.5337,-1.5621,-1.5676,-1.5706,-1.569,-1.569,-1.5227,-1.5237,-1.5871,-1.5427,-1.5188,-1.5334,-1.5158,-1.4844,0.0,0.0,0.0,0.0,0.0,0.0,0.0,-1.9269,-2.0837,-2.1859,-2.6733,0.0,0.0,-2.8196,-2.6447,0.0,0.0,0.0,0.0,0.0,-2.3592,-2.276,0.0,-2.1412,-1.7919,0.0,0.0,0.0,0.0,0.0,0.0,-1.6102,0.0,0.0,0.0,0.0,0.0,0.0,0.0,0.0,0.0,0.0,0.0,0.0,0.0,0.0,0.0,0.0,0.0,0.0,0.0,0.0,0.0,0.0,0.0,0.0,0.0,0.0,0.0,-3.0241,-3.0237,-3.1381,-3.1522,-3.1596,-3.1817,-3.1817,-3.189,-3.2109,-3.2109,-3.2109,-3.2182,-3.2109,-3.2109,-3.2036,-3.189,-3.1567,-3.106,-3.0828,-3.04,-2.9889,-2.9591,-3.0093,-3.0986,-3.1162,-3.1581,-3.2109,-3.2109,-3.2182,-3.2241,0.0,0.0,0.0,0.0,0.0,-1.5161,-1.4799,-1.4913,-1.506,0.0,0.0,0.0,-1.5476,-1.5732,-1.5838,-1.5563,-1.5515,-1.5475,-1.5468,-1.5066,-1.5124,-1.5751,-1.5399,-1.5256,-1.5495,-1.5272,-1.4968,0.0,0.0,0.0,0.0,0.0,0.0,0.0,0.0,0.0,0.0,0.0,0.0,0.0,-2.7364,0.0,0.0,-2.7583,-2.6882,0.0,0.0,0.0,-2.6411,-2.8202,-2.5597,0.0,0.0,0.0,0.0,0.0,0.0,0.0,0.0,0.0,0.0,0.0,0.0,0.0,-1.6191,-1.9641,0.0,0.0,0.0,0.0,0.0,0.0,0.0,0.0,0.0,0.0,0.0,0.0,0.0,0.0,0.0,0.0,0.0,-3.1447,-3.1522,-3.1434,-3.0637,-3.0659,-3.169,-3.1757,-3.1817,-3.2036,-3.2036,-3.2109,-3.2182,-3.2182,-3.2182,-3.2182,-3.2182,-3.2182,-3.2036,-3.2036,-3.1775,-3.1438,-3.1195,-3.1105,-3.0969,-3.0486,-3.0649,-3.13,-3.13,-3.1653,-3.2182,-3.2182,-3.2182,-3.2255,0.0,0.0,-1.471,-1.4687,-1.4886,-1.5014,-1.4892,-1.5136,-1.526,0.0,-1.5635,-1.6033,-1.6021,-1.5933,-1.5658,-1.5168,-1.5059,-1.5091,-1.5194,-1.5091,-1.5298,-1.5903,-1.5935,-1.6101,-1.6496,-1.6053,-1.5727,0.0,0.0,0.0,0.0,0.0,0.0,0.0,0.0,0.0,0.0,0.0,0.0,-2.7518,-2.5289,-2.7676,0.0,0.0,-2.8855,0.0,-3.2625,-3.2135,-3.0254,-3.3482,-3.1105,0.0,0.0,0.0,0.0,0.0,-1.9089,0.0,0.0,0.0,0.0,0.0,0.0,0.0,-1.6231,-2.0406,-2.408,0.0,0.0,0.0,0.0,0.0,0.0,0.0,0.0,0.0,0.0,0.0,0.0,0.0,0.0,0.0,-3.1609,-3.1609,-3.1683,-3.1609,-3.1609,-3.1743,-3.189,-3.1963,-3.2036,-3.2182,-3.2182,-3.2182,-3.2182,-3.2182,-3.2182,-3.2182,-3.2182,-3.2109,-3.1963,-3.2109,-3.2036,-3.1643,-3.1483,-3.1622,-3.1923,-3.1541,-3.1395,-3.1395,-3.1395,-3.1721,-3.2182,-3.2182,-3.2182,-3.2182,-1.4782,0.0,-1.5373,-1.5243,-1.5332,-1.5382,-1.5382,-1.5463,-1.5559,-1.5559,-1.5192,-1.5213,-1.6012,-1.5489,-1.5289,-1.5755,-1.5827,-1.6086,-1.6572,-1.608,-1.608,-1.6747,-1.6696,-1.6479,-1.5982,-1.5863,-1.5487,-1.4805,0.0,0.0,0.0,0.0,0.0,0.0,0.0,0.0,0.0,0.0,0.0,-2.1215,-2.5695,0.0,-2.6808,-3.1212,-3.0002,-2.6793,-3.2384,-3.2592,-3.0371,0.0,-3.0975,-2.9555,0.0,0.0,0.0,0.0,0.0,0.0,0.0,0.0,0.0,0.0,0.0,0.0,-1.6313,-1.7207,-1.857,0.0,0.0,0.0,0.0,0.0,0.0,0.0,0.0,0.0,0.0,0.0,0.0,0.0,0.0,0.0,-3.1421,-3.1803,-3.1963,-3.1609,-3.189,-3.2109,-3.2109,-3.2109,-3.2182,-3.2182,-3.2182,-3.2182,-3.2182,-3.2182,-3.2182,-3.2182,-3.2182,-3.2182,-3.2109,-3.2182,-3.2182,-3.2096,-3.206,-3.2074,-3.2169,-3.206,-3.2006,-3.2006,-3.2006,-3.2074,-3.2182,-3.2182,-3.2182,-3.2255,-1.4476,0.0,-1.503,-1.5424,-1.5287,-1.5185,-1.5465,-1.532,-1.5073,-1.4699,-1.4742,-1.5234,-1.6362,-1.5838,-1.5517,-1.5823,-1.5581,-1.5556,-1.5927,-1.5651,-1.5579,-1.5903,-1.5903,-1.5695,-1.5209,-1.5279,-1.508,-1.4592,0.0,0.0,0.0,0.0,0.0,0.0,0.0,0.0,0.0,0.0,-1.5144,-1.8997,-2.367,0.0,-2.7717,-3.2142,-3.2183,-3.0387,-3.3809,-3.4321,-3.3244,-3.1874,-3.1466,0.0,0.0,-2.5123,-2.2342,0.0,-1.8531,-1.72,0.0,0.0,0.0,-1.6382,0.0,0.0,0.0,-1.7273,-1.8574,-1.9749,0.0,0.0,0.0,0.0,0.0,0.0,0.0,0.0,0.0,0.0,0.0,0.0,0.0,0.0,-3.1803,-3.2023,-3.2109,-3.189,-3.2109,-3.2182,-3.2182,-3.2182,-3.2182,-3.2182,-3.2182,-3.2182,-3.2182,-3.2182,-3.2182,-3.2182,-3.2182,-3.2182,-3.2182,-3.2182,-3.2182,-3.2182,-3.2182,-3.2182,-3.2182,-3.2182,-3.2182,-3.2182,-3.2182,-3.2182,-3.2182,-3.2182,-3.2314,-3.2431,-1.4571,0.0,-1.4782,-1.5383,-1.5106,-1.4868,-1.5057,-1.4956,-1.4683,-1.4237,-1.4684,-1.5647,-1.7284,-1.6333,-1.583,-1.6433,-1.5908,-1.5415,-1.5072,-1.5466,-1.5427,-1.4818,-1.4863,-1.4796,-1.4622,-1.4735,-1.4713,-1.4561,-1.463,0.0,0.0,0.0,0.0,0.0,0.0,0.0,0.0,0.0,0.0,-1.974,0.0,-2.5936,-2.9217,-3.2773,-3.3955,-3.386,-3.5199,-3.603,-3.6045,-3.3167,0.0,-3.1542,-3.1591,-2.7639,0.0,0.0,0.0,0.0,0.0,0.0,0.0,0.0,0.0,-1.6316,0.0,0.0,0.0,-1.9228,0.0,0.0,0.0,0.0,0.0,0.0,0.0,0.0,0.0,0.0,0.0,0.0,0.0,0.0,0.0,-3.1151,-3.168,-3.2141,-3.2182,-3.2182,-3.2182,-3.2182,-3.2182,-3.2182,-3.2182,-3.2182,-3.2182,-3.2182,-3.2182,-3.2182,-3.2182,-3.2182,-3.2182,-3.2182,-3.2182,-3.2182,-3.2182,-3.2182,-3.2182,-3.2182,-3.2182,-3.2182,-3.2182,-3.2182,-3.2182,-3.2182,-3.2372,-3.2561,-1.5311,-1.5836,0.0,-1.5185,-1.5119,-1.4785,-1.3803,-1.4402,-1.5299,-1.6155,-1.564,-1.6268,0.0,0.0,0.0,0.0,0.0,0.0,-1.5823,0.0,-1.7412,-1.4924,-1.4812,-1.4767,-1.4683,-1.4706,-1.4615,-1.4429,-1.4476,-1.4139,0.0,0.0,0.0,0.0,-1.2267,0.0,0.0,0.0,-1.9908,0.0,-2.7426,-2.7241,0.0,-3.2748,-3.3542,-3.1366,-3.506,-3.643,-3.5984,0.0,-3.1512,-3.0926,0.0,-2.5428,-2.3088,0.0,0.0,0.0,0.0,0.0,0.0,0.0,-1.6179,0.0,0.0,0.0,-1.6574,-1.6603,0.0,0.0,0.0,0.0,0.0,0.0,0.0,0.0,0.0,0.0,0.0,0.0,0.0,0.0,0.0,-2.726,-2.9686,-3.2019,-3.2182,-3.2182,-3.2182,-3.2182,-3.2182,-3.2182,-3.2182,-3.2182,-3.2182,-3.2182,-3.2182,-3.2182,-3.2182,-3.2182,-3.2182,-3.2182,-3.2182,-3.2182,-3.2182,-3.2182,-3.2182,-3.2182,-3.2182,-3.2182,-3.2182,-3.2182,-3.2182,-3.2182,-3.2241,-3.2314,-1.4218,-1.4626,0.0,0.0,-1.4872,-1.4761,-1.5182,-1.5271,-1.5397,-1.5744,-1.5644,0.0,0.0,0.0,0.0,0.0,0.0,-2.0795,0.0,0.0,-1.7338,-1.6453,-1.4239,-1.3119,-1.3431,-1.3473,-1.3373,-1.3181,-1.3261,-1.3062,0.0,0.0,0.0,0.0,-1.2117,0.0,-1.7717,0.0,0.0,0.0,0.0,0.0,0.0,-3.3089,-3.4948,-3.3894,-3.3649,-3.4836,-3.5799,0.0,-3.2052,0.0,0.0,0.0,0.0,0.0,0.0,0.0,0.0,0.0,0.0,0.0,0.0,0.0,-1.9048,0.0,-1.6642,0.0,0.0,0.0,0.0,0.0,0.0,0.0,-1.5901,0.0,0.0,0.0,0.0,0.0,0.0,0.0,0.0,0.0,0.0,0.0,-2.9834,-2.9794,-3.012,-3.148,-3.2182,-3.2182,-3.2182,-3.2182,-3.2182,-3.2182,-3.2182,-3.2182,-3.2182,-3.2182,-3.2182,-3.2182,-3.2182,-3.2182,-3.2182,-3.2182,-3.2182,-3.2182,-3.2182,-3.2182,-3.2182,-3.2182,-3.2182,-3.2182,-3.23,-3.2503,-1.374,0.0,0.0,0.0,0.0,-1.4557,-1.5536,-1.6249,0.0,0.0,0.0,0.0,-2.0695,-1.9319,0.0,0.0,-2.2893,-2.2662,0.0,0.0,-1.8312,0.0,0.0,0.0,-1.3643,-1.2931,-1.2463,-1.2302,-1.2363,-1.2343,0.0,0.0,0.0,0.0,0.0,-1.4427,-1.8278,0.0,0.0,-2.5887,-2.7942,-2.8727,-2.9097,-3.3013,-3.5094,-3.5622,-3.3306,-3.3968,-3.5137,-3.0334,-3.1622,0.0,-3.0183,0.0,0.0,0.0,0.0,0.0,-2.2137,0.0,0.0,0.0,0.0,0.0,0.0,0.0,0.0,0.0,0.0,0.0,0.0,0.0,0.0,0.0,0.0,-1.5541,0.0,0.0,0.0,0.0,0.0,0.0,0.0,0.0,0.0,-2.7346,-2.7693,-2.8012,-2.8634,-3.0922,-3.2182,-3.2182,-3.2182,-3.2182,-3.2182,-3.2182,-3.2182,-3.2182,-3.2182,-3.2182,-3.2182,-3.2182,-3.2182,-3.2182,-3.2182,-3.2182,-3.2182,-3.2182,-3.2182,-3.2182,-3.2182,-3.2182,-3.2182,-3.2182,-3.2372,-3.2574,-1.4676,-1.4544,0.0,0.0,0.0,0.0,0.0,0.0,0.0,0.0,0.0,0.0,0.0,0.0,0.0,0.0,0.0,-2.2551,-2.2131,0.0,-2.1464,0.0,0.0,-1.3644,0.0,-1.3875,-1.2363,-1.2302,-1.2363,-1.2343,0.0,0.0,0.0,0.0,0.0,-1.5851,-2.0813,-2.2966,-2.6035,-2.9808,-3.284,-3.4155,-3.4162,0.0,-3.2706,-3.4432,-3.502,0.0,0.0,-3.0507,-2.9479,0.0,0.0,0.0,0.0,0.0,0.0,0.0,0.0,0.0,0.0,-2.2081,0.0,0.0,0.0,0.0,-1.756,0.0,0.0,0.0,0.0,0.0,-1.6637,-1.6513,0.0,0.0,0.0,0.0,0.0,0.0,0.0,0.0,0.0,0.0,0.0,-2.4409,-2.6462,-2.8012,-2.8634,-3.0922,-3.2182,-3.2182,-3.2182,-3.2182,-3.2182,-3.2182,-3.2182,-3.2182,-3.2182,-3.2182,-3.2182,-3.2182,-3.2182,-3.2182,-3.2182,-3.2182,-3.2182,-3.2182,-3.2182,-3.2182,-3.2182,-3.2182,-3.2182,-3.2182,-3.2182,-3.2241,0.0,0.0,0.0,0.0,0.0,0.0,0.0,-1.5355,0.0,0.0,0.0,0.0,0.0,-2.3697,-2.3496,0.0,0.0,-2.7586,-2.5923,-2.4714,0.0,0.0,0.0,-1.7591,0.0,0.0,-1.4711,-1.2302,-1.2363,0.0,0.0,0.0,0.0,0.0,0.0,-1.5758,0.0,0.0,0.0,0.0,0.0,-3.155,-3.0946,0.0,0.0,-3.4461,-3.4245,-3.4177,0.0,-3.0997,-3.1459,-3.2898,-3.0736,-2.9709,-2.9766,-3.214,-2.9218,0.0,0.0,0.0,-2.7799,-2.7869,0.0,0.0,0.0,0.0,0.0,0.0,0.0,0.0,0.0,0.0,-1.7277,-1.726,-1.6218,0.0,0.0,0.0,0.0,0.0,0.0,0.0,0.0,0.0,0.0,-2.187,-2.2812,-2.3527,-2.4171,-2.7783,-2.9901,-2.9901,-3.1412,-3.1748,-3.091,-3.1748,-3.1748,-3.091,-3.1761,-3.1936,-3.1368,-3.1936,-3.1556,-3.0633,-3.1716,-3.185,-3.1368,-3.1936,-3.2182,-3.2182,-3.2182,-3.2182,-3.2182,-3.2182,-3.2182,-3.2241,-1.2828,0.0,0.0,0.0,0.0,0.0,0.0,0.0,0.0,0.0,-2.0272,0.0,-2.5826,0.0,-2.5487,0.0,-2.7603,-2.8257,-2.8682,-2.4901,0.0,-2.7472,-2.2672,0.0,0.0,0.0,0.0,0.0,0.0,-1.3744,0.0,0.0,0.0,0.0,0.0,0.0,0.0,0.0,-2.4962,0.0,0.0,-3.0003,0.0,0.0,-3.2208,-3.3713,0.0,-3.3506,-3.3265,-3.1599,-3.2458,-3.3831,-3.1698,-3.133,-3.2004,-3.3559,-3.1217,-2.8671,-3.1279,-3.1581,0.0,-3.1222,-2.9533,0.0,-2.7059,0.0,0.0,0.0,0.0,0.0,0.0,0.0,0.0,-1.799,-1.6718,-1.5873,0.0,-1.5161,0.0,0.0,0.0,0.0,0.0,0.0,-1.8014,-1.9224,-2.036,-2.1218,0.0,0.0,-2.8675,-2.8675,-3.0977,-3.1581,-3.023,-3.105,-3.105,-3.023,-3.0745,-3.1022,-3.0895,-3.1158,-3.0709,-2.9781,-3.0859,-3.1145,-3.097,-3.1529,-3.1936,-3.2182,-3.2182,-3.2182,-3.2182,-3.2182,-3.2241,-3.23,0.0,0.0,0.0,0.0,-1.2472,0.0,0.0,0.0,-2.0333,0.0,-2.307,-2.2786,-2.4804,-2.2967,-2.2582,-2.497,-2.3579,-2.4761,-2.9792,-2.2767,0.0,0.0,-2.2946,-2.114,-2.6215,0.0,0.0,0.0,0.0,0.0,0.0,0.0,0.0,0.0,-1.5148,0.0,-1.5819,-2.1485,-2.39,-2.415,-2.689,-2.97,-3.1993,-2.9615,-3.0188,-3.2355,-3.3185,-3.2903,-3.2182,-3.2182,-3.2182,-3.2182,-3.2223,-3.2223,-3.2331,-3.2928,-3.3105,-3.3363,-3.4516,-3.4828,-3.4299,-3.2074,-3.1721,0.0,0.0,0.0,-2.7367,0.0,0.0,0.0,0.0,0.0,0.0,-1.8918,-1.7215,-1.5978,0.0,0.0,0.0,0.0,0.0,0.0,0.0,-1.7368,-1.8521,-1.6584,-1.9086,0.0,0.0,0.0,-2.8389,-2.8661,-3.0676,-3.1267,-3.0157,-3.0066,-3.0066,-3.0072,-2.9298,-2.9565,-3.0706,-2.9948,-2.9576,-2.9589,-2.9691,-3.0152,-3.082,-3.0895,-3.1442,-3.2182,-3.2182,-3.2182,-3.2182,-3.2182,-3.23,-3.2417,-1.2244,-1.1827,-1.1855,0.0,-1.387,-1.5815,0.0,0.0,0.0,0.0,-2.3533,-2.4394,-2.5134,-2.6458,-2.6185,-2.3398,-2.4765,0.0,0.0,0.0,0.0,-3.0627,-2.889,-2.7583,-2.6985,-2.5761,0.0,-2.2889,0.0,0.0,-1.8892,0.0,0.0,0.0,0.0,0.0,-1.5123,-2.089,-2.4703,-2.693,-2.6444,-2.762,0.0,0.0,-3.073,-3.259,-3.264,-3.2503,-3.2182,-3.2182,-3.2182,-3.225,-3.2698,-3.2833,-3.2955,-3.3539,-3.3715,-3.3878,-3.4624,-3.4828,-3.4787,-3.4624,-3.305,-3.1322,0.0,0.0,0.0,0.0,0.0,0.0,0.0,0.0,0.0,0.0,0.0,0.0,0.0,0.0,0.0,-1.5033,0.0,0.0,-1.4561,-1.5696,-1.6316,-1.5867,-1.7046,0.0,0.0,0.0,0.0,-2.7683,-2.6667,-2.7117,-2.9185,-2.8216,-2.786,-2.8359,-2.87,-2.8775,-2.8543,-2.8912,-2.8455,-2.7439,-2.9656,-3.0367,-3.0075,-3.1307,-3.2009,-3.2182,-3.23,-3.2359,-3.2359,-3.2241,-3.23,-3.2417,-1.1714,0.0,0.0,-1.133,0.0,0.0,-1.8135,0.0,0.0,-2.497,-2.5324,0.0,-2.712,-2.8648,-2.8502,-2.5886,-2.548,0.0,-2.6674,0.0,0.0,-3.0815,-3.0099,-2.8927,-2.7488,-2.7463,0.0,-2.5668,0.0,0.0,-2.1284,0.0,0.0,0.0,0.0,-1.4982,0.0,-2.0462,-2.4874,-2.7907,-2.7112,0.0,0.0,-2.986,-3.107,-3.3087,-3.2901,-3.2617,-3.2475,-3.2562,-3.2562,-3.2671,-3.3268,-3.3444,-3.3566,-3.4163,-3.4248,-3.4461,-3.5058,-3.5221,-3.5289,-3.5642,-3.4448,-3.3275,-3.3213,-3.1996,-3.0773,0.0,-3.0897,-3.0651,0.0,0.0,0.0,0.0,0.0,0.0,0.0,0.0,0.0,0.0,-1.7129,0.0,-1.5401,-1.5647,-1.5867,-1.5669,-1.6291,0.0,0.0,0.0,0.0,-2.4707,-2.5245,-2.5653,-2.5895,-2.5318,-2.5548,-2.6578,-2.6407,-2.6822,-2.7811,-2.7876,-2.7359,-2.6655,-2.8901,-2.9768,-2.9781,-3.1084,-3.1909,-3.23,-3.2345,-3.2417,-3.2417,-3.2241,-3.2241,-3.2286,0.0,0.0,0.0,0.0,0.0,0.0,0.0,-2.1697,0.0,-2.8441,0.0,-2.7117,-2.9035,-2.9635,-2.9741,-2.9435,0.0,-2.5797,-3.0373,-2.4404,-2.3811,-3.0915,-2.916,-2.8069,-2.8352,-2.8133,-2.857,0.0,0.0,-2.1369,-2.4085,0.0,0.0,0.0,0.0,0.0,0.0,-2.0311,-2.4464,-2.7999,-2.8441,-3.029,-3.2625,-3.0818,-3.1601,-3.3603,-3.3367,-3.3071,-3.2845,-3.3022,-3.3111,-3.3206,-3.3801,-3.3914,-3.4035,-3.4695,-3.4871,-3.4979,-3.5494,-3.5642,-3.5629,-3.5629,-3.5629,-3.5629,-3.571,-3.571,-3.5629,-3.571,-3.571,-3.5086,0.0,0.0,0.0,0.0,0.0,0.0,0.0,0.0,0.0,0.0,0.0,0.0,-1.6523,-1.6318,-1.6194,0.0,0.0,0.0,0.0,0.0,0.0,-2.1599,-2.4708,-2.5166,-2.2718,0.0,-2.364,-2.5704,-2.3902,-2.4708,-2.7811,-2.6913,-2.6541,-2.6564,-2.7929,-2.8924,-2.9781,-3.0594,-3.1502,-3.2417,-3.2273,-3.2345,-3.2345,-3.2155,-3.215,-3.2364,0.0,0.0,0.0,0.0,0.0,-1.969,-2.3657,-2.6209,-2.7474,-2.7042,-2.8014,-2.8166,-2.6711,-2.8694,-2.928,-2.7433,-2.6947,0.0,0.0,0.0,0.0,-3.1409,-3.0804,-3.0724,-3.1355,-3.107,-3.1253,0.0,-2.5825,-2.3169,-2.3761,0.0,0.0,0.0,0.0,0.0,-2.1849,-2.0736,0.0,-2.9096,-2.9601,-2.9981,-3.0447,-3.2381,-3.3476,-3.3767,-3.3435,-3.3274,-3.3181,-3.3258,-3.3258,-3.3365,-3.3953,-3.4139,-3.426,-3.4834,-3.5089,-3.5116,-3.5223,-3.5318,-3.548,-3.548,-3.548,-3.548,-3.5629,-3.5562,-3.548,-3.5629,-3.571,-3.5507,-3.4941,0.0,0.0,0.0,0.0,0.0,0.0,0.0,0.0,0.0,0.0,-2.0538,0.0,0.0,0.0,0.0,0.0,0.0,0.0,0.0,0.0,0.0,-2.1381,0.0,0.0,0.0,-2.4129,-2.8344,-2.5266,-2.4844,-2.7003,-2.6869,-2.6632,-2.6564,-2.7929,-2.8924,-2.9781,-3.0594,-3.1502,-3.2345,-3.1676,-3.1823,-3.2273,-3.1429,-3.191,-3.2989,0.0,0.0,0.0,0.0,0.0,0.0,0.0,-2.7038,0.0,-2.8449,-2.9429,-2.9745,-2.869,-2.9745,-3.0124,-2.9013,-2.8059,-2.8046,-2.9248,-2.8203,-2.8625,-3.1167,-3.1136,0.0,-2.9757,-3.0725,-3.0956,-3.0337,-2.549,-2.3241,-2.3313,-1.735,0.0,0.0,0.0,-1.8749,0.0,0.0,0.0,-2.9547,-3.1209,-3.2005,-3.2239,-3.3631,-3.417,-3.413,-3.3923,-3.3911,-3.3872,-3.3807,-3.3793,-3.39,-3.4486,-3.4659,-3.4713,-3.4992,-3.5086,-3.5086,-3.5086,-3.5154,-3.5236,-3.5236,-3.5236,-3.5236,-3.5399,-3.5318,-3.5236,-3.5399,-3.5399,-3.4929,-3.3319,-3.0931,0.0,0.0,0.0,0.0,0.0,0.0,0.0,0.0,0.0,0.0,0.0,0.0,0.0,0.0,0.0,0.0,0.0,0.0,0.0,0.0,0.0,0.0,0.0,0.0,0.0,-2.7101,-2.5052,-2.5156,-2.7093,-2.6869,-2.6711,-2.6734,-2.7929,-2.87,-2.916,-3.0063,-3.0825,-3.1478,-3.1098,-3.1356,-3.1861,-3.1254,-3.1512,-3.2202,0.0,-1.602,0.0,0.0,-1.9153,0.0,-2.3974,-2.7275,-2.9758,-3.0255,-3.0699,-3.0986,-3.0986,-3.0986,-3.079,-3.0294,-2.9026,-2.8621,-2.9542,-2.8726,-2.8856,-3.0262,-3.0725,-3.0124,-2.8307,-3.0045,-3.0303,0.0,-2.5342,-2.3485,-2.2975,-1.7922,0.0,0.0,0.0,0.0,0.0,0.0,-2.9473,-3.0737,-3.2922,-3.4018,-3.4397,-3.4397,-3.4397,-3.4397,-3.4397,-3.4397,-3.4415,-3.4296,-3.4232,-3.4311,-3.4762,-3.4908,-3.4908,-3.4908,-3.4908,-3.4908,-3.4908,-3.499,-3.5003,-3.5003,-3.5003,-3.5086,-3.5086,-3.5086,-3.5086,-3.5086,-3.5086,-3.438,-3.2123,-3.1355,0.0,0.0,0.0,0.0,0.0,0.0,0.0,0.0,0.0,0.0,-2.2412,0.0,0.0,0.0,0.0,0.0,0.0,0.0,0.0,0.0,0.0,-2.253,-2.2714,0.0,-2.4037,-2.6371,-2.5242,-2.5787,-2.7735,-2.7427,-2.7267,-2.729,-2.8148,-2.8638,-2.8879,-2.9874,-3.0504,-3.0804,-3.0645,-3.0922,-3.1417,-3.1103,-3.1096,-3.1543,0.0,0.0,0.0,0.0,0.0,0.0,-2.9444,-2.8804,-2.8529,-3.0634,-3.0947,-3.0986,-3.0986,-3.0986,-3.0137,-2.8033,-2.9575,-2.9044,-2.5195,-2.852,-2.9895,-2.8063,-2.9935,-3.0882,-3.0673,-3.0882,-3.1093,0.0,-2.8107,-2.5342,0.0,-2.0267,0.0,0.0,0.0,0.0,0.0,-2.9044,-3.1101,-3.394,-3.4214,-3.4358,-3.4397,-3.4397,-3.4397,-3.4397,-3.4397,-3.4397,-3.4397,-3.4415,-3.4402,-3.4415,-3.4468,-3.4481,-3.4481,-3.4481,-3.4481,-3.4481,-3.4481,-3.466,-3.4839,-3.4839,-3.4839,-3.4839,-3.5086,-3.4921,-3.4839,-3.5086,-3.4921,-3.4841,-3.4713,-3.2696,-3.0171,0.0,0.0,0.0,0.0,0.0,0.0,0.0,0.0,0.0,0.0,-1.9867,0.0,0.0,0.0,0.0,0.0,0.0,0.0,-2.0673,0.0,-2.1584,-2.4259,-2.3405,-2.5409,-3.0061,-2.7311,-2.7018,-2.8835,-2.8847,-2.8665,-2.8494,-2.8614,-2.9148,-2.9905,-3.0941,-3.1304,-3.1098,-3.0499,-3.0618,-3.1116,-3.0372,-3.0928,-3.2006,0.0,0.0,0.0,0.0,0.0,0.0,0.0,-2.9087,-2.9637,-3.0869,-3.0986,-3.0986,-3.0986,-3.0986,-3.0607,-2.968,-3.0451,-3.0275,-2.8428,-3.004,-3.0725,-3.021,-3.0999,-3.1653,-3.2006,-3.2006,-3.2083,0.0,0.0,0.0,0.0,0.0,0.0,0.0,0.0,-2.8232,-2.9902,-3.1627,-3.3143,-3.4397,-3.4397,-3.4397,-3.4397,-3.4397,-3.4397,-3.4397,-3.4397,-3.4397,-3.4397,-3.4397,-3.4397,-3.4397,-3.4397,-3.4397,-3.4397,-3.4397,-3.4397,-3.4397,-3.4397,-3.4481,-3.4577,-3.4577,-3.4577,-3.4577,-3.466,-3.466,-3.4577,-3.466,-3.466,-3.4577,-3.466,-3.391,-3.2462,-2.9953,0.0,0.0,0.0,0.0,0.0,0.0,0.0,0.0,0.0,0.0,0.0,0.0,0.0,0.0,0.0,0.0,0.0,-2.2506,0.0,-2.3827,-2.7415,-2.5958,-2.6759,-2.9905,-2.8657,-2.8538,-2.925,-2.9056,-2.8872,-2.87,-2.87,-2.8872,-2.9289,-2.9689,-2.9976,-3.0188,-2.9844,-3.0107,-3.0553,-3.0214,-3.052,-3.0949,-2.6432,0.0,-2.3903,0.0,-2.6388,-2.7361,-2.7227,-2.8895,-3.0176,-3.0134,-3.0667,-3.1018,-3.0999,-3.1143,-3.096,-3.0281,-3.0999,-3.0908,-2.9633,-3.0738,-3.1365,-3.1091,-3.1731,0.0,-3.2685,-3.2685,-3.2685,-3.2685,-2.8664,0.0,0.0,0.0,0.0,0.0,-2.9568,-3.1013,-3.1522,-3.3548,-3.4397,-3.4397,-3.4397,-3.4397,-3.4397,-3.4397,-3.4397,-3.4397,-3.4397,-3.4397,-3.4397,-3.4397,-3.4397,-3.4397,-3.4397,-3.4397,-3.4397,-3.4397,-3.4397,-3.4397,-3.4397,-3.4397,-3.4397,-3.4397,-3.4397,-3.4397,-3.4397,-3.4397,-3.4397,-3.4397,-3.4397,-3.4397,-3.4397,-3.4577,-3.3857,-3.1268,0.0,0.0,0.0,0.0,0.0,0.0,-2.6394,-2.5254,-2.7394,-2.3679,0.0,0.0,0.0,0.0,0.0,0.0,0.0,0.0,0.0,0.0,-2.7799,-2.6441,-2.7041,-2.9619,-2.9619,-2.9619,-2.9619,-2.9422,-2.9236,-2.9148,-2.9148,-2.9148,-2.9148,-2.9148,-2.9366,-2.9711,-2.9711,-2.9917,-3.0216,-3.0216,-3.0216,-3.0216,-2.7683,-2.774,-2.7968,-2.8888,-2.9069,-2.8509,-2.6848,-2.8371,-2.9353,-2.8298,-2.9892,-3.1139,-3.1039,-3.1483,-3.0908,-2.8608,-3.1026,-3.0813,-2.6367,-3.0223,-3.173,0.0,0.0,-3.2685,-3.2685,-3.2685,-3.2685,-3.2685,0.0,0.0,-2.8347,0.0,-2.9483,-3.0202,-3.3051,-3.4345,-3.4345,-3.4384,-3.4397,-3.4397,-3.4397,-3.4397,-3.4397,-3.4397,-3.4397,-3.4397,-3.4397,-3.4397,-3.4397,-3.4397,-3.4397,-3.4397,-3.4397,-3.4397,-3.4397,-3.4397,-3.4397,-3.4397,-3.4397,-3.4397,-3.4397,-3.4397,-3.4397,-3.4397,-3.4397,-3.4397,-3.4397,-3.4397,-3.4397,-3.4397,-3.4397,-3.4397,-3.3537,-3.085,0.0,0.0,0.0,0.0,0.0,0.0,-2.2449,-2.1517,-2.4211,-2.2176,0.0,0.0,0.0,0.0,0.0,0.0,0.0,-2.0075,-1.8522,0.0,-2.4129,-2.3876,-2.5893,-3.0193,-3.0193,-3.0193,-3.0193,-3.0193,-3.0193,-3.0193,-3.0193,-3.0193,-3.0193,-3.0193,-3.0204,-3.0204,-3.0204,-3.0204,-3.0216,-3.0216,-3.0216,-3.0216,-2.3903,-2.597,-2.7628,-2.7031,-2.8356,-2.9324,-2.8775,-2.9188,-2.9464,-2.9489,-2.991,-3.0355,-3.0546,-3.1681,-3.2123,0.0,-3.0738,-3.0398,0.0,-3.0411,-3.0908,-3.2227,-3.1392,-3.113,-3.1522,-3.1522,-3.1522,-3.1522,0.0,0.0,0.0,-2.9771,-3.0999,-3.3077,-3.3992,-3.4188,-3.3875,-3.4241,-3.4188,-3.3875,-3.4241,-3.4397,-3.4397,-3.4397,-3.4397,-3.4397,-3.4397,-3.4397,-3.4397,-3.4397,-3.4397,-3.4397,-3.4397,-3.4397,-3.4397,-3.4397,-3.4397,-3.4397,-3.4397,-3.4397,-3.4397,-3.4397,-3.4397,-3.4397,-3.4397,-3.4397,-3.4397,-3.4397,-3.4397,-3.4397,-3.4397,-3.4397,-3.3587,-3.1179,-3.224,0.0,-2.8799,0.0,0.0,-2.7238,-2.4213,-2.3155,-2.5701,-2.3561,0.0,0.0,0.0,0.0,0.0,0.0,0.0,0.0,-2.3913,0.0,-2.777,-2.6436,-2.7171,-2.9966,-2.9966,-3.0045,-3.0216,-3.0216,-3.0216,-3.0216,-3.0216,-3.0216,-3.0216,-3.0216,-3.0216,-3.0216,-3.0216,-3.0216,-3.0216,-3.0216,-3.0216,-3.0216,-2.3318,-2.5374,-2.7013,-2.6988,-2.8329,-2.9133,-2.8388,-2.8897,-2.9207,-2.9138,-2.9719,-3.0312,-3.0971,-3.1861,0.0,-3.2619,-3.1511,-3.1511,-3.3221,-3.1993,-3.2006,-3.3809,-3.2502,-3.1901,-3.2254,-3.2267,0.0,-3.2267,-3.1914,-3.1731,-3.1731,-3.1731,-3.2698,-3.4384,-3.4188,-3.3901,-3.3613,-3.3953,-3.3901,-3.3639,-3.4175,-3.4397,-3.4397,-3.4397,-3.4397,-3.4397,-3.4397,-3.4397,-3.4397,-3.4397,-3.4397,-3.4397,-3.4397,-3.4397,-3.4397,-3.4397,-3.4397,-3.4397,-3.4397,-3.4397,-3.4397,-3.4397,-3.4397,-3.4397,-3.4397,-3.4397,-3.4397,-3.4397,-3.4397,-3.4397,-3.4397,-3.4397,-3.3927,-3.2502,-3.347,-3.3462,-3.0716,0.0,-2.8486,0.0,0.0,0.0,0.0,-2.4894,-2.3902,0.0,0.0,0.0,0.0,0.0,0.0,-2.4907,-2.5015,-2.6063,-2.8277,-2.7166,-2.7719,-2.9886,-2.9977,-3.0045,-3.0216,-3.0216,-3.0216,-3.0216,-3.0216,-3.0216,-3.0216,-3.0216,-3.0216,-3.0216,-3.0216,-3.0216,-3.0216,-3.0216,-3.0216,-3.0216,-2.5048,-2.5521,-2.6284,0.0,-2.8469,0.0,-2.6355,-2.7753,-2.8667,-2.7645,-2.9303,-3.0867,-3.1867,-3.1919,-3.2024,-3.2249,0.0,0.0,0.0,-3.4162,-3.4175,-3.4332,-3.4228,-3.4162,-3.4162,-3.4162,-3.4214,-3.4345,-3.4345,-3.4345,-3.4345,-3.4345,-3.4345,-3.4319,-3.3809,-3.3574,-3.3535,-3.3574,-3.3587,-3.3545,-3.4175,-3.4397,-3.4314,-3.4397,-3.4397,-3.4397,-3.4397,-3.4397,-3.4397,-3.4397,-3.4397,-3.4397,-3.4397,-3.4397,-3.4397,-3.4397,-3.4397,-3.4397,-3.4397,-3.4397,-3.4397,-3.4397,-3.4397,-3.4397,-3.4397,-3.4397,-3.4397,-3.4397,-3.4397,-3.4397,-3.4397,-3.4397,-3.4397,-3.4397,-3.4314,-3.3623,-3.1598,-2.9359,-2.7353,0.0,0.0,0.0,-2.5666,-2.6187,-2.624,0.0,0.0,0.0,0.0,0.0,-2.0865,-2.2684,-2.3176,-2.4425,-2.649,-2.6501,-2.7607,-2.9886,-3.0136,-3.0227,-3.0227,-3.0227,-3.0216,-3.0216,-3.0216,-3.0216,-3.0216,-3.0216,-3.0216,-3.0216,-3.0216,-3.0216,-3.0216,-3.0216,-3.0216,-3.0216,0.0,0.0,-2.4661,-2.4151,-2.5422,-2.6653,-2.7062,-2.7731,-2.8318,-2.8884,-2.9551,-3.0108,-3.0312,-3.0325,-3.0567,-3.1236,-3.0368,-3.0547,-3.2329,-3.1461,-3.1591,-3.3173,-3.2332,-3.1797,-3.1797,-3.1797,-3.245,-3.3783,-3.3783,-3.3783,-3.3783,-3.3783,-3.3783,-3.3783,-3.3652,-3.3339,-3.2934,-3.3391,-3.3152,-3.2574,-3.39,-3.3953,-3.3433,-3.4134,-3.4397,-3.4397,-3.4397,-3.4397,-3.4397,-3.4397,-3.4397,-3.4397,-3.4397,-3.4397,-3.4397,-3.4397,-3.4397,-3.4397,-3.4397,-3.4397,-3.4397,-3.4397,-3.4397,-3.4397,-3.4397,-3.4397,-3.4397,-3.4397,-3.4397,-3.4397,-3.4397,-3.4397,-3.4397,-3.4397,-3.3784,-3.2252,-2.926,-2.7727,-2.5847,0.0,-2.3764,-2.4768,-2.5271,-2.7083,-2.736,0.0,0.0,0.0,0.0,-2.4403,-2.4886,-2.7151,-2.7337,-2.7699,-2.816,-2.816,-2.8765,-2.9886,-3.0522,-3.0793,-3.0793,-3.0793,-3.0691,-3.0487,-3.0487,-3.0397,-3.0216,-3.0216,-3.0216,-3.0216,-3.0216,-3.0216,-3.0216,-3.0216,-3.0216,-3.0216,-2.1729,-2.3238,-2.4429,-2.4228,-2.5131,-2.6224,-2.6894,-2.7545,-2.8108,-2.8755,-2.8937,-2.9028,-2.9028,-2.9028,-2.9217,-2.9579,-2.9668,-3.0318,-3.1864,-3.1188,-3.1408,-3.298,-3.2329,-3.2111,-3.2542,-3.2542,-3.3012,-3.3966,-3.3966,-3.3966,-3.3953,-3.3705,-3.3587,-3.3587,-3.33,-3.2999,-3.2725,-3.2813,-3.2619,-3.2131,-3.2852,-3.2809,-3.2463,-3.2907,-3.3079,-3.3079,-3.3079,-3.3433,-3.3771,-3.3771,-3.405,-3.4397,-3.4397,-3.4397,-3.4397,-3.4397,-3.4397,-3.4397,-3.4397,-3.4397,-3.4397,-3.4397,-3.405,-3.3771,-3.3771,-3.342,-3.325,-3.3687,-3.3771,-3.3771,-3.3771,-3.3771,-3.3602,-3.3164,-3.176,-2.993,-2.7693,-2.5937,-2.4539,-2.3392,-2.4377,-2.56,-2.6704,-2.7992,-2.8211,-2.6911,-2.5994,0.0,-2.6758,-2.5983,-2.6507,-2.8691,-2.8757,-2.8757,-2.8757,-2.885,-2.9128,-2.9508,-3.0329,-3.0601,-3.0601,-3.0781,-3.0769,-3.0578,-3.0487,-3.0306,-3.0216,-3.0216,-3.0216,-3.0216,-3.0216,-3.0216,-3.0216,-3.0216,-3.0216,-3.0216,-2.4155,-2.4327,-2.4573,-2.5462,-2.5619,-2.5786,-2.6224,-2.7035,-2.7683,-2.7855,-2.7844,-2.7844,-2.7844,-2.7844,-2.7924,-2.8096,-2.9579,-3.0804,-3.1672,-3.1627,-3.1988,-3.2787,-3.2795,-3.3148,-3.3957,-3.4145,-3.4092,-3.384,-3.3822,-3.3822,-3.3744,-3.3114,-3.2933,-3.2998,-3.2494,-3.2313,-3.2349,-3.2059,-3.1878,-3.1821,-3.1659,-3.1488,-3.14,-3.1577,-3.1577,-3.1577,-3.1577,-3.2103,-3.2809,-3.2809,-3.3335,-3.3953,-3.3953,-3.3953,-3.405,-3.4134,-3.4134,-3.4037,-3.4314,-3.4397,-3.4397,-3.4217,-3.3602,-3.298,-3.2809,-3.219,-3.184,-3.2636,-3.2809,-3.2809,-3.2809,-3.2809,-3.2413,-3.1221,-2.9181,-2.7346,-2.6198,0.0,-2.38,-2.5084,-2.5491,-2.6518,-2.856,-2.8757,-2.8757,-2.8757,-2.725,-2.7042,-2.8669,-2.7206,-2.7075,-2.8795,-2.8757,-2.8757,-2.8757,-2.9035,-2.9128,-2.9128,-2.9852,-3.0216,-3.0216,-3.0487,-3.0578,-3.0578,-3.0397,-3.0306,-3.0306,-3.0306,-3.0306,-3.0216,-3.0216,-3.0216,-3.0216,-3.0216,-3.0216,-3.0216,-2.3667,-2.3484,-2.3387,-2.356,-2.3551,-2.3887,-2.4872,-2.5199,-2.5619,-2.6637,-2.6719,-2.6719,-2.6719,-2.6719,-2.7128,-2.8004,-2.8327,-2.8913,-2.9745,-3.0602,-3.0998,-3.0753,-3.1529,-3.1983,-3.1921,-3.2695,-3.2615,-3.1414,-3.1323,-3.116,-3.0922,-2.9906,-2.976,-3.054,-3.0455,-3.0675,-3.1028,-3.093,-3.0787,-3.0582,-3.1288,-3.1134,-3.0519,-3.1311,-3.1577,-3.1577,-3.1577,-3.1665,-3.184,-3.184,-3.1928,-3.2016,-3.2016,-3.2016,-3.219,-3.298,-3.2636,-3.2376,-3.3953,-3.4397,-3.4217,-3.342,-3.3079,-3.2809,-3.2016,-3.1665,-3.1665,-3.1753,-3.184,-3.184,-3.184,-3.184,-3.1101,-2.8937,-2.7596,-2.6042,-2.3875,0.0,-2.4908,-2.5212,-2.6966,-2.8433,-2.8724,-2.8757,-2.8757,-2.8757,-2.8484,-2.844,-2.8735,-2.8473,-2.8451,-2.8746,-2.8757,-2.8757,-2.8757,-2.9209,-2.9393,-2.9485,-2.9943,-3.0216,-3.0216,-3.0668,-3.0679,-3.0306,-3.0859,-3.0937,-3.0578,-3.0578,-3.0578,-3.0487,-3.0306,-3.0216,-3.0216,-3.0216,-3.0216,-3.0216,-2.3667,-2.358,-2.3484,-2.3484,-2.3484,-2.3657,-2.4069,-2.4553,-2.5126,-2.5546,-2.5546,-2.5546,-2.5546,-2.5546,-2.6047,-2.7116,-2.7209,-2.7683,-2.8676,-2.9564,-3.0177,-3.049,-3.0821,-3.1191,-3.1655,-3.1447,-3.1133,-3.0611,-2.9999,-2.9571,-2.9451,-2.8843,-2.8792,-2.9291,-2.9476,-2.9844,-3.0288,-3.012,-3.012,-3.017,-3.0079,-2.9818,-2.9463,-2.9897,-3.0079,-3.0079,-3.0079,-3.0429,-3.0878,-3.0878,-3.1134,-3.1577,-3.1577,-3.1577,-3.1665,-3.2103,-3.2277,-3.2463,-3.2809,-3.2895,-3.2809,-3.2364,-3.184,-3.14,-3.0956,-3.0429,-3.026,-3.0789,-3.0878,-3.0878,-3.0878,-3.0878,-3.0313,-2.8706,-2.6982,0.0,-2.4329,-2.4769,-2.5175,-2.5175,-2.7293,-2.8757,-2.8757,-2.8757,-2.8757,-2.8757,-2.8757,-2.8757,-2.8757,-2.8757,-2.8757,-2.8757,-2.8757,-2.8757,-2.8757,-2.9024,-2.9117,-2.9128,-2.9577,-2.9852,-2.9852,-3.0227,-3.0408,-3.0397,-3.0578,-3.0769,-3.0781,-3.0668,-3.0578,-3.0578,-3.0306,-3.0216,-3.0216,-3.0216,-3.0216,-3.0216,-2.3927,-2.3841,-2.3841,-2.3841,-2.3841,-2.3754,-2.359,-2.4231,-2.4713,-2.4553,-2.4553,-2.4553,-2.4553,-2.4553,-2.5052,-2.6152,-2.6235,-2.6719,-2.7775,-2.8518,-2.9108,-2.9511,-2.9521,-2.9858,-3.0589,-3.0013,-2.9594,-2.9415,-2.8727,-2.8357,-2.8254,-2.8023,-2.8049,-2.826,-2.8555,-2.898,-2.9418,-2.9079,-2.9246,-2.9532,-2.8735,-2.8466,-2.8466,-2.8466,-2.8466,-2.8466,-2.856,-2.9002,-2.9532,-2.9624,-3.0056,-3.0586,-3.0586,-3.0586,-3.0586,-3.0855,-3.1464,-3.2091,-3.1665,-3.1577,-3.1577,-3.1311,-3.0699,-3.017,-2.9909,-2.929,-2.9024,-2.9726,-2.9909,-2.9909,-2.9909,-2.9909,-2.9455,-2.8184,0.0,-2.5175,-2.5175,-2.5175,-2.5382,-2.5939,-2.7632,-2.8757,-2.8757,-2.8757,-2.8757,-2.8757,-2.8757,-2.8757,-2.8757,-2.8757,-2.8757,-2.8757,-2.8757,-2.8757,-2.8757,-2.8757,-2.8757,-2.8757,-2.9209,-2.9301,-2.9301,-2.9691,-2.9954,-3.0306,-3.0306,-3.0499,-3.0793,-3.0769,-3.0668,-3.0578,-3.0306,-3.0216,-3.0216,-3.0136,-3.0136,-3.0125,-2.4196,-2.3927,-2.3841,-2.3841,-2.3841,-2.3841,-2.3754,-2.3831,-2.3917,-2.3917,-2.3831,-2.3831,-2.3831,-2.3831,-2.4327,-2.5484,-2.5568,-2.6069,-2.7058,-2.7232,-2.6987,-2.6494,-2.6903,-2.7097,-2.6852,-2.7865,-2.781,-2.6385,-2.6856,-2.6998,-2.6691,-2.6282,-2.6456,-2.7059,-2.7296,-2.7551,-2.7767,-2.7704,-2.7726,-2.7726,-2.7421,-2.7326,-2.7326,-2.7326,-2.7326,-2.7421,-2.7893,-2.7799,-2.7515,-2.7987,-2.7882,-2.7494,-2.7494,-2.7494,-2.7683,-2.868,-2.9315,-2.9943,-3.1223,-3.1577,-3.14,-3.0519,-3.026,-2.9988,-2.9106,-2.885,-2.885,-2.8932,-2.8932,-2.8932,-2.8932,-2.8932,-2.8116,-2.5797,0.0,0.0,-2.5175,-2.5175,-2.5994,-2.8233,-2.8648,-2.8757,-2.8757,-2.8757,-2.8757,-2.8757,-2.8757,-2.8757,-2.8757,-2.8757,-2.8757,-2.8757,-2.8757,-2.8757,-2.8757,-2.8757,-2.8757,-2.8757,-2.885,-2.885,-2.885,-2.9301,-2.9393,-2.9301,-3.0397,-3.0578,-3.0318,-3.0781,-3.0781,-3.0578,-3.0306,-3.0216,-3.0216,-2.9966,-2.9886,-2.9886,-2.4378,-2.4282,-2.4186,-2.4186,-2.4186,-2.4196,-2.411,-2.4024,-2.4024,-2.3841,-2.3841,-2.3841,-2.3841,-2.3841,-2.4251,-2.5411,-2.4829,-2.4914,-2.6069,-2.5411,-2.5624,-2.692,-2.7361,-2.7542,-2.752,-2.7349,-2.6998,-2.6617,-2.6125,-2.5861,-2.5716,-2.5818,-2.594,-2.6207,-2.6597,-2.7002,-2.7441,-2.7441,-2.7536,-2.7809,-2.7715,-2.7704,-2.7704,-2.7704,-2.7704,-2.7704,-2.7904,-2.7893,-2.7704,-2.7715,-2.7631,-2.7431,-2.7231,-2.7231,-2.7326,-2.7683,-2.7861,-2.8132,-2.868,-2.9338,-2.9818,-2.9463,-2.9371,-2.9198,-2.885,-2.8757,-2.8757,-2.8757,-2.8757,-2.8757,-2.8757,-2.8757,-2.8462,-2.7545,0.0,-2.7392,-2.7392,-2.7392,-2.773,-2.8648,-2.8757,-2.8757,-2.8757,-2.8757,-2.8757,-2.8757,-2.8757,-2.8757,-2.8757,-2.8757,-2.8757,-2.8757,-2.8757,-2.8757,-2.8757,-2.8757,-2.8757,-2.8757,-2.8757,-2.8757,-2.885,-2.8932,-2.9209,-2.9393,-2.9852,-3.0125,-3.0216,-3.0408,-3.0408,-3.0306,-3.0148,-2.9966,-2.9966,-2.9783,-2.968,-2.968,-2.454,-2.454,-2.454,-2.454,-2.454,-2.4454,-2.4292,-2.4292,-2.4196,-2.4013,-2.4013,-2.4013,-2.4013,-2.4013,-2.4348,-2.5094,-2.4433,-2.4348,-2.5084,-2.4557,-2.502,-2.6672,-2.7042,-2.7292,-2.7401,-2.6796,-2.6372,-2.6404,-2.5757,-2.5472,-2.5574,-2.601,-2.6232,-2.6148,-2.6557,-2.688,-2.7167,-2.7167,-2.7357,-2.7631,-2.7526,-2.7526,-2.7526,-2.7526,-2.7526,-2.7526,-2.7715,-2.7715,-2.7526,-2.7431,-2.7251,-2.7061,-2.6955,-2.6849,-2.6849,-2.6849,-2.6955,-2.6955,-2.6955,-2.761,-2.8373,-2.8466,-2.856,-2.856,-2.8746,-2.8757,-2.8757,-2.8757,-2.8757,-2.8757,-2.8757,-2.8757,-2.8757,-2.8757,-2.8757,-2.8757,-2.8757,-2.8757,-2.8757,-2.8757,-2.8757,-2.8757,-2.8757,-2.8757,-2.8757,-2.8757,-2.8757,-2.8757,-2.8757,-2.8757,-2.8757,-2.8757,-2.8757,-2.8757,-2.8757,-2.8757,-2.8757,-2.8757,-2.8757,-2.8757,-2.8757,-2.8757,-2.8932,-2.9301,-2.9393,-2.9669,-2.9852,-3.0045,-3.0045,-2.9943,-2.9874,-2.9783,-2.9783,-2.9497,-2.9393,-2.9393,-2.454,-2.454,-2.454,-2.454,-2.454,-2.454,-2.454,-2.454,-2.454,-2.454,-2.454,-2.454,-2.454,-2.454,-2.454,-2.454,-2.454,-2.454,-2.454,-2.4974,-2.5163,-2.5158,-2.5473,-2.5676,-2.5822,-2.6083,-2.5869,-2.5189,-2.5869,-2.6176,-2.6186,-2.694,-2.7167,-2.69,-2.7167,-2.7177,-2.69,-2.69,-2.69,-2.69,-2.6592,-2.6496,-2.6496,-2.6496,-2.6496,-2.6592,-2.7071,-2.6976,-2.6592,-2.6764,-2.6572,-2.61,-2.61,-2.61,-2.61,-2.61,-2.6294,-2.6496,-2.6496,-2.687,-2.7326,-2.7893,-2.7987,-2.8092,-2.8653,-2.8757,-2.8757,-2.8757,-2.8757,-2.8757,-2.8757,-2.8757,-2.8757,-2.8757,-2.8757,-2.8757,-2.8757,-2.8757,-2.8757,-2.8757,-2.8757,-2.8757,-2.8757,-2.8757,-2.8757,-2.8757,-2.8757,-2.8757,-2.8757,-2.8757,-2.8757,-2.885,-2.8757,-2.8757,-2.8757,-2.8757,-2.8757,-2.8757,-2.8757,-2.8757,-2.8757,-2.8757,-2.8757,-2.885,-2.9301,-2.9301,-2.9128,-2.9703,-2.9783,-2.9485,-2.9485,-2.9485,-2.9485,-2.922,-2.9128,-2.9035,-2.454,-2.454,-2.454,-2.454,-2.454,-2.454,-2.454,-2.454,-2.454,-2.454,-2.454,-2.454,-2.454,-2.454,-2.454,-2.454,-2.454,-2.454,-2.454,-2.4674,-2.4867,-2.5142,-2.555,-2.6011,-2.6372,-2.6156,-2.6084,-2.6187,-2.6084,-2.6156,-2.6476,-2.6703,-2.6951,-2.7167,-2.7262,-2.7262,-2.7167,-2.7167,-2.7167,-2.7167,-2.7071,-2.7071,-2.7071,-2.7071,-2.7071,-2.7071,-2.7262,-2.7167,-2.7071,-2.6986,-2.6794,-2.6602,-2.64,-2.64,-2.64,-2.64,-2.64,-2.6496,-2.6294,-2.6486,-2.687,-2.7326,-2.7421,-2.7515,-2.761,-2.7704,-2.7799,-2.8186,-2.8279,-2.8373,-2.8746,-2.8757,-2.8757,-2.8757,-2.8757,-2.8757,-2.8757,-2.8757,-2.8757,-2.8757,-2.8757,-2.8757,-2.8757,-2.8757,-2.8757,-2.8757,-2.8757,-2.885,-2.9035,-2.9035,-2.9128,-2.9301,-2.9128,-2.9035,-2.9035,-2.885,-2.8757,-2.8757,-2.8757,-2.8757,-2.8757,-2.8757,-2.8757,-2.885,-2.8932,-2.8932,-2.8943,-2.922,-2.9312,-2.922,-2.922,-2.922,-2.922,-2.8943,-2.885,-2.885,-2.454,-2.454,-2.454,-2.454,-2.454,-2.454,-2.454,-2.454,-2.454,-2.454,-2.454,-2.454,-2.454,-2.454,-2.454,-2.454,-2.454,-2.454,-2.454,-2.454,-2.4664,-2.4943,-2.5202,-2.5647,-2.6279,-2.602,-2.602,-2.6289,-2.602,-2.6113,-2.6568,-2.6568,-2.6817,-2.7262,-2.7262,-2.7262,-2.7262,-2.7262,-2.7262,-2.7262,-2.7262,-2.7262,-2.7262,-2.7262,-2.7262,-2.7262,-2.7262,-2.7262,-2.7262,-2.6986,-2.69,-2.69,-2.6699,-2.6699,-2.6699,-2.6699,-2.6602,-2.6496,-2.6294,-2.64,-2.6592,-2.687,-2.6955,-2.7136,-2.7336,-2.7241,-2.7326,-2.7715,-2.7809,-2.7809,-2.829,-2.8373,-2.8466,-2.8466,-2.8664,-2.8757,-2.8757,-2.8757,-2.8757,-2.8757,-2.8757,-2.8757,-2.8757,-2.885,-2.8943,-2.9035,-2.8943,-2.9035,-2.922,-2.9128,-2.922,-2.9485,-2.922,-2.9128,-2.9128,-2.8943,-2.8757,-2.8757,-2.8757,-2.8757,-2.8757,-2.8757,-2.8757,-2.8757,-2.8757,-2.8757,-2.885,-2.8943,-2.8943,-2.8943,-2.8943,-2.8943,-2.8943,-2.885,-2.8757,-2.8757,-2.4454,-2.4454,-2.4454,-2.454,-2.454,-2.454,-2.454,-2.454,-2.454,-2.454,-2.454,-2.454,-2.454,-2.454,-2.454,-2.454,-2.454,-2.454,-2.454,-2.454,-2.454,-2.454,-2.454,-2.4923,-2.574,-2.5761,-2.5782,-2.5823,-2.5782,-2.5999,-2.6455,-2.6486,-2.6755,-2.72,-2.7241,-2.7262,-2.7262,-2.7262,-2.7262,-2.7262,-2.7262,-2.7262,-2.7262,-2.7262,-2.7262,-2.7262,-2.7262,-2.7262,-2.7262,-2.6986,-2.69,-2.69,-2.69,-2.69,-2.69,-2.69,-2.6794,-2.6592,-2.6496,-2.6592,-2.6592,-2.6496,-2.6678,-2.7051,-2.7441,-2.7336,-2.7241,-2.7536,-2.7347,-2.7336,-2.7536,-2.7904,-2.8092,-2.8092,-2.856,-2.885,-2.885,-2.885,-2.885,-2.885,-2.885,-2.885,-2.885,-2.9035,-2.922,-2.9485,-2.922,-2.922,-2.9485,-2.9312,-2.9312,-2.9577,-2.9312,-2.9128,-2.9128,-2.8943,-2.885,-2.8757,-2.8757,-2.8757,-2.8757,-2.8757,-2.8757,-2.8757,-2.8757,-2.8757,-2.8757,-2.8757,-2.8757,-2.8757,-2.8757,-2.8757,-2.8757,-2.8757,-2.8757,-2.8757,-2.4196,-2.4292,-2.4282,-2.4454,-2.454,-2.454,-2.454,-2.454,-2.454,-2.454,-2.454,-2.454,-2.454,-2.454,-2.454,-2.454,-2.454,-2.454,-2.454,-2.454,-2.454,-2.454,-2.454,-2.4633,-2.483,-2.483,-2.5006,-2.5378,-2.5006,-2.5068,-2.5533,-2.5865,-2.6279,-2.6734,-2.7096,-2.7262,-2.7262,-2.7262,-2.7262,-2.7262,-2.7262,-2.7262,-2.7262,-2.7262,-2.7262,-2.7262,-2.7262,-2.7262,-2.7262,-2.7262,-2.7167,-2.7167,-2.7167,-2.7167,-2.7167,-2.7167,-2.7167,-2.7071,-2.689,-2.6986,-2.7071,-2.689,-2.689,-2.689,-2.6784,-2.6688,-2.6784,-2.7262,-2.7347,-2.7441,-2.7809,-2.8279,-2.8664,-2.8664,-2.9024,-2.9301,-2.9301,-2.9301,-2.9301,-2.9035,-2.9209,-2.9301,-2.9035,-2.9035,-2.9128,-2.922,-2.9035,-2.9128,-2.9794,-2.9588,-2.9577,-3.0034,-2.9874,-2.9703,-2.9703,-2.9497,-2.9117,-2.8757,-2.8757,-2.8757,-2.8757,-2.8757,-2.8757,-2.8757,-2.8757,-2.8757,-2.8757,-2.8757,-2.8757,-2.8757,-2.8757,-2.8757,-2.8757,-2.8757,-2.8757,-2.8757,-2.4024,-2.4024,-2.4024,-2.4186,-2.4282,-2.4378,-2.4378,-2.4454,-2.454,-2.454,-2.454,-2.454,-2.454,-2.454,-2.454,-2.454,-2.454,-2.454,-2.454,-2.454,-2.454,-2.454,-2.454,-2.454,-2.454,-2.454,-2.4664,-2.4902,-2.4664,-2.4778,-2.5244,-2.5678,-2.6123,-2.6589,-2.7055,-2.7262,-2.7262,-2.7262,-2.7262,-2.7262,-2.7262,-2.7262,-2.7262,-2.7262,-2.7262,-2.7262,-2.7262,-2.7262,-2.7262,-2.7262,-2.7262,-2.7262,-2.7262,-2.7262,-2.7262,-2.7262,-2.7262,-2.7262,-2.7177,-2.7167,-2.7262,-2.7177,-2.7081,-2.6986,-2.6794,-2.6592,-2.6592,-2.6986,-2.6976,-2.7071,-2.7452,-2.782,-2.8102,-2.8102,-2.8466,-2.8828,-2.9117,-2.9209,-2.922,-2.9301,-2.9393,-2.9497,-2.9508,-2.9405,-2.9393,-2.9577,-2.9301,-2.9393,-3.0057,-2.9783,-2.9863,-3.0216,-2.9966,-2.9886,-2.9886,-2.9508,-2.9209,-2.9117,-2.9117,-2.9035,-2.8943,-2.8943,-2.8943,-2.8943,-2.885,-2.8757,-2.8757,-2.8757,-2.8757,-2.8757,-2.8757,-2.8757,-2.8757,-2.8757,-2.8757,-2.8757,-2.3754,-2.3754,-2.3754,-2.3754,-2.4024,-2.412,-2.4206,-2.4378,-2.4454,-2.454,-2.454,-2.454,-2.454,-2.454,-2.454,-2.454,-2.454,-2.454,-2.454,-2.454,-2.454,-2.454,-2.454,-2.454,-2.454,-2.454,-2.454,-2.454,-2.454,-2.4736,-2.513,-2.5637,-2.6082,-2.6475,-2.7013,-2.7262,-2.7262,-2.7262,-2.7262,-2.7262,-2.7262,-2.7262,-2.7262,-2.7262,-2.7262,-2.7262,-2.7262,-2.7262,-2.7262,-2.7262,-2.7262,-2.7262,-2.7262,-2.7262,-2.7262,-2.7262,-2.7262,-2.7262,-2.7262,-2.7262,-2.7262,-2.7262,-2.7262,-2.7262,-2.6986,-2.6794,-2.6688,-2.689,-2.6794,-2.6688,-2.69,-2.7177,-2.7441,-2.7441,-2.7809,-2.8279,-2.8757,-2.8757,-2.8932,-2.9301,-2.9393,-2.9497,-2.9703,-2.9691,-2.9772,-3.0125,-2.976,-2.9669,-3.0216,-2.9966,-2.9966,-3.0216,-3.0057,-2.9977,-2.9977,-2.9497,-2.9405,-2.9588,-2.9577,-2.9485,-2.9128,-2.9128,-2.9128,-2.9128,-2.9035,-2.8932,-2.8943,-2.885,-2.885,-2.8943,-2.885,-2.885,-2.885,-2.885,-2.885,-2.885,-2.3503,-2.3503,-2.359,-2.3754,-2.3841,-2.3927,-2.4206,-2.4196,-2.4282,-2.4454,-2.454,-2.454,-2.454,-2.454,-2.454,-2.454,-2.454,-2.454,-2.454,-2.454,-2.454,-2.454,-2.454,-2.454,-2.454,-2.454,-2.454,-2.454,-2.454,-2.4571,-2.4654,-2.5492,-2.5906,-2.6009,-2.6879,-2.7262,-2.7262,-2.7262,-2.7262,-2.7262,-2.7262,-2.7262,-2.7262,-2.7262,-2.7262,-2.7262,-2.7262,-2.7262,-2.7262,-2.7262,-2.7262,-2.7262,-2.7262,-2.7262,-2.7262,-2.7262,-2.7262,-2.7262,-2.7262,-2.7262,-2.7262,-2.7262,-2.7262,-2.7262,-2.7262,-2.7262,-2.7167,-2.7262,-2.7262,-2.7167,-2.7262,-2.7631,-2.7904,-2.7904,-2.8269,-2.8642,-2.8757,-2.8735,-2.8642,-2.8581,-2.8943,-2.9128,-2.922,-2.96,-2.9886,-2.9977,-2.968,-2.9669,-3.0216,-2.9966,-2.9966,-3.0216,-3.0125,-3.0125,-3.0125,-3.0125,-2.9954,-2.9886,-3.0045,-2.9852,-2.9485,-2.9485,-2.9485,-2.9485,-2.9393,-2.9393,-2.9393,-2.9128,-2.922,-2.9393,-2.8943,-2.8943,-2.9035,-2.9035,-2.9035,-2.9128,-2.3232,-2.3144,-2.3144,-2.3406,-2.3493,-2.3667,-2.3764,-2.3937,-2.4024,-2.4282,-2.4368,-2.4368,-2.4454,-2.454,-2.454,-2.454,-2.454,-2.454,-2.454,-2.454,-2.454,-2.454,-2.454,-2.454,-2.454,-2.454,-2.454,-2.454,-2.454,-2.454,-2.4464,-2.5213,-2.5647,-2.5906,-2.6579,-2.7013,-2.7262,-2.7262,-2.7262,-2.7262,-2.7262,-2.7262,-2.7262,-2.7262,-2.7262,-2.7262,-2.7262,-2.7262,-2.7262,-2.7262,-2.7262,-2.7262,-2.7262,-2.7262,-2.7262,-2.7262,-2.7262,-2.7262,-2.7262,-2.7262,-2.7262,-2.7262,-2.7262,-2.7262,-2.7262,-2.7262,-2.7262,-2.7262,-2.7262,-2.7262,-2.7262,-2.7441,-2.7631,-2.7631,-2.7809,-2.7998,-2.8279,-2.8362,-2.8362,-2.856,-2.8735,-2.9013,-2.9301,-2.9405,-2.96,-3.0045,-2.9874,-2.9863,-3.0216,-3.0136,-3.0136,-3.0216,-3.0216,-3.0216,-3.0216,-3.0045,-3.0057,-3.0045,-3.0057,-2.9874,-2.9691,-2.9691,-2.9691,-2.9691,-2.9588,-2.9485,-2.9485,-2.9393,-2.9393,-2.9485,-2.9301,-2.9209,-2.9301,-2.9301,-2.9301,-2.9301]}]]